Wetterdaten: Sonntag, 29.07.2018
Datum Zeit Temp. A. Feuchte A. Luftdruck Regen Wind Richtung Richtung Sonnenschein ET UV Solar Taupunkt Windchill Windböen
29.07.2018 00:00 18,6 °C 77 % 1013,2 hPa 0,0 mm 0,5 km/h (0 Bft) W-SW 249 ° 0 min 0,000 mm 0,0 UV-I 0 W/m² 14,5 °C 18,6 °C 3,2 km/h (1 Bft)
29.07.2018 00:01 18,6 °C 77 % 1013,3 hPa 0,0 mm 1,5 km/h (1 Bft) W-SW 249 ° 0 min 0,000 mm 0,0 UV-I 0 W/m² 14,5 °C 18,6 °C 4,8 km/h (1 Bft)
29.07.2018 00:02 18,6 °C 77 % 1013,2 hPa 0,0 mm 0,2 km/h (0 Bft) W-SW 249 ° 0 min 0,000 mm 0,0 UV-I 0 W/m² 14,5 °C 18,6 °C 1,6 km/h (1 Bft)
29.07.2018 00:03 18,6 °C 77 % 1013,3 hPa 0,0 mm 0,7 km/h (0 Bft) W-SW 249 ° 0 min 0,000 mm 0,0 UV-I 0 W/m² 14,5 °C 18,6 °C 1,6 km/h (1 Bft)
29.07.2018 00:04 18,6 °C 76 % 1013,3 hPa 0,0 mm 0,0 km/h (0 Bft) W-SW 249 ° 0 min 0,000 mm 0,0 UV-I 0 W/m² 14,3 °C 18,6 °C 0,0 km/h (0 Bft)
29.07.2018 00:05 18,6 °C 76 % 1013,3 hPa 0,0 mm 0,3 km/h (0 Bft) W-SW 249 ° 0 min 0,000 mm 0,0 UV-I 0 W/m² 14,3 °C 18,6 °C 1,6 km/h (1 Bft)
29.07.2018 00:06 18,6 °C 76 % 1013,2 hPa 0,0 mm 0,0 km/h (0 Bft) W-SW 249 ° 0 min 0,000 mm 0,0 UV-I 0 W/m² 14,3 °C 18,6 °C 0,0 km/h (0 Bft)
29.07.2018 00:07 18,6 °C 77 % 1013,3 hPa 0,0 mm 0,1 km/h (0 Bft) W-SW 249 ° 0 min 0,000 mm 0,0 UV-I 0 W/m² 14,5 °C 18,6 °C 1,6 km/h (1 Bft)
29.07.2018 00:08 18,6 °C 77 % 1013,3 hPa 0,0 mm 1,7 km/h (1 Bft) W-SW 240 ° 0 min 0,000 mm 0,0 UV-I 0 W/m² 14,5 °C 18,6 °C 4,8 km/h (1 Bft)
29.07.2018 00:09 18,6 °C 76 % 1013,3 hPa 0,0 mm 1,4 km/h (1 Bft) W-SW 240 ° 0 min 0,000 mm 0,0 UV-I 0 W/m² 14,3 °C 18,6 °C 4,8 km/h (1 Bft)
29.07.2018 00:10 18,6 °C 76 % 1013,3 hPa 0,0 mm 0,1 km/h (0 Bft) W-SW 240 ° 0 min 0,000 mm 0,0 UV-I 0 W/m² 14,3 °C 18,6 °C 1,6 km/h (1 Bft)
29.07.2018 00:11 18,6 °C 77 % 1013,3 hPa 0,0 mm 0,2 km/h (0 Bft) W-SW 240 ° 0 min 0,000 mm 0,0 UV-I 0 W/m² 14,5 °C 18,6 °C 1,6 km/h (1 Bft)
29.07.2018 00:12 18,6 °C 77 % 1013,3 hPa 0,0 mm 0,8 km/h (0 Bft) W-SW 240 ° 0 min 0,000 mm 0,0 UV-I 0 W/m² 14,5 °C 18,6 °C 3,2 km/h (1 Bft)
29.07.2018 00:13 18,6 °C 77 % 1013,3 hPa 0,0 mm 1,3 km/h (1 Bft) W-SW 240 ° 0 min 0,000 mm 0,0 UV-I 0 W/m² 14,5 °C 18,6 °C 4,8 km/h (1 Bft)
29.07.2018 00:14 18,6 °C 77 % 1013,3 hPa 0,0 mm 0,4 km/h (0 Bft) W-SW 240 ° 0 min 0,000 mm 0,0 UV-I 0 W/m² 14,5 °C 18,6 °C 3,2 km/h (1 Bft)
29.07.2018 00:15 18,6 °C 77 % 1013,2 hPa 0,0 mm 1,4 km/h (1 Bft) W-SW 240 ° 0 min 0,000 mm 0,0 UV-I 0 W/m² 14,5 °C 18,6 °C 3,2 km/h (1 Bft)
29.07.2018 00:16 18,6 °C 77 % 1013,3 hPa 0,0 mm 3,0 km/h (1 Bft) W-SW 239 ° 0 min 0,000 mm 0,0 UV-I 0 W/m² 14,5 °C 18,6 °C 4,8 km/h (1 Bft)
29.07.2018 00:17 18,5 °C 77 % 1013,2 hPa 0,0 mm 2,4 km/h (1 Bft) SW 225 ° 0 min 0,000 mm 0,0 UV-I 0 W/m² 14,4 °C 18,5 °C 4,8 km/h (1 Bft)
29.07.2018 00:18 18,6 °C 77 % 1013,2 hPa 0,0 mm 5,8 km/h (2 Bft) S-SW 196 ° 0 min 0,000 mm 0,0 UV-I 0 W/m² 14,5 °C 18,6 °C 9,7 km/h (2 Bft)
29.07.2018 00:19 18,6 °C 77 % 1013,2 hPa 0,0 mm 1,4 km/h (1 Bft) S-SW 199 ° 0 min 0,000 mm 0,0 UV-I 0 W/m² 14,5 °C 18,6 °C 3,2 km/h (1 Bft)
29.07.2018 00:20 18,6 °C 77 % 1013,2 hPa 0,0 mm 0,6 km/h (0 Bft) S-SW 199 ° 0 min 0,000 mm 0,0 UV-I 0 W/m² 14,5 °C 18,6 °C 1,6 km/h (1 Bft)
29.07.2018 00:21 18,6 °C 77 % 1013,2 hPa 0,0 mm 0,7 km/h (0 Bft) S-SW 199 ° 0 min 0,000 mm 0,0 UV-I 0 W/m² 14,5 °C 18,6 °C 3,2 km/h (1 Bft)
29.07.2018 00:22 18,6 °C 77 % 1013,2 hPa 0,0 mm 1,9 km/h (1 Bft) S-SW 199 ° 0 min 0,000 mm 0,0 UV-I 0 W/m² 14,5 °C 18,6 °C 3,2 km/h (1 Bft)
29.07.2018 00:23 18,6 °C 77 % 1013,2 hPa 0,0 mm 3,8 km/h (1 Bft) S-SW 199 ° 0 min 0,000 mm 0,0 UV-I 0 W/m² 14,5 °C 18,6 °C 6,4 km/h (2 Bft)
29.07.2018 00:24 18,6 °C 77 % 1013,2 hPa 0,0 mm 4,4 km/h (1 Bft) S-SW 197 ° 0 min 0,000 mm 0,0 UV-I 0 W/m² 14,5 °C 18,6 °C 8,0 km/h (2 Bft)
29.07.2018 00:25 18,5 °C 78 % 1013,2 hPa 0,0 mm 2,5 km/h (1 Bft) S-SW 198 ° 0 min 0,000 mm 0,0 UV-I 0 W/m² 14,6 °C 18,5 °C 3,2 km/h (1 Bft)
29.07.2018 00:26 18,4 °C 79 % 1013,2 hPa 0,0 mm 1,3 km/h (1 Bft) S-SW 198 ° 0 min 0,000 mm 0,0 UV-I 0 W/m² 14,7 °C 18,4 °C 3,2 km/h (1 Bft)
29.07.2018 00:27 18,3 °C 80 % 1013,2 hPa 0,0 mm 0,0 km/h (0 Bft) S-SW 198 ° 0 min 0,000 mm 0,0 UV-I 0 W/m² 14,8 °C 18,3 °C 0,0 km/h (0 Bft)
29.07.2018 00:28 18,2 °C 81 % 1013,2 hPa 0,0 mm 1,1 km/h (1 Bft) S-SW 196 ° 0 min 0,000 mm 0,0 UV-I 0 W/m² 14,9 °C 18,2 °C 4,8 km/h (1 Bft)
29.07.2018 00:29 18,1 °C 81 % 1013,2 hPa 0,0 mm 0,0 km/h (0 Bft) S-SW 196 ° 0 min 0,000 mm 0,0 UV-I 0 W/m² 14,8 °C 18,1 °C 0,0 km/h (0 Bft)
29.07.2018 00:30 17,9 °C 82 % 1013,2 hPa 0,2 mm 0,0 km/h (0 Bft) S-SW 196 ° 0 min 0,000 mm 0,0 UV-I 0 W/m² 14,8 °C 17,9 °C 0,0 km/h (0 Bft)
29.07.2018 00:31 17,8 °C 83 % 1013,2 hPa 0,0 mm 0,0 km/h (0 Bft) S-SW 196 ° 0 min 0,000 mm 0,0 UV-I 0 W/m² 14,9 °C 17,8 °C 0,0 km/h (0 Bft)
29.07.2018 00:32 17,7 °C 83 % 1013,2 hPa 0,0 mm 3,6 km/h (1 Bft) S 183 ° 0 min 0,000 mm 0,0 UV-I 0 W/m² 14,8 °C 17,7 °C 6,4 km/h (2 Bft)
29.07.2018 00:33 17,6 °C 85 % 1013,2 hPa 0,0 mm 2,6 km/h (1 Bft) S 178 ° 0 min 0,000 mm 0,0 UV-I 0 W/m² 15,0 °C 17,6 °C 4,8 km/h (1 Bft)
29.07.2018 00:34 17,5 °C 85 % 1013,2 hPa 0,0 mm 0,1 km/h (0 Bft) S 178 ° 0 min 0,000 mm 0,0 UV-I 0 W/m² 14,9 °C 17,5 °C 1,6 km/h (1 Bft)
29.07.2018 00:35 17,4 °C 85 % 1013,2 hPa 0,0 mm 0,0 km/h (0 Bft) S 178 ° 0 min 0,000 mm 0,0 UV-I 0 W/m² 14,8 °C 17,4 °C 0,0 km/h (0 Bft)
29.07.2018 00:36 17,3 °C 85 % 1013,2 hPa 0,0 mm 0,0 km/h (0 Bft) S 178 ° 0 min 0,000 mm 0,0 UV-I 0 W/m² 14,8 °C 17,3 °C 0,0 km/h (0 Bft)
29.07.2018 00:37 17,3 °C 86 % 1013,2 hPa 0,0 mm 0,3 km/h (0 Bft) S 178 ° 0 min 0,000 mm 0,0 UV-I 0 W/m² 14,9 °C 17,3 °C 1,6 km/h (1 Bft)
29.07.2018 00:38 17,2 °C 86 % 1013,2 hPa 0,0 mm 0,0 km/h (0 Bft) S 178 ° 0 min 0,000 mm 0,0 UV-I 0 W/m² 14,8 °C 17,2 °C 0,0 km/h (0 Bft)
29.07.2018 00:39 17,1 °C 87 % 1013,2 hPa 0,0 mm 0,0 km/h (0 Bft) S 178 ° 0 min 0,000 mm 0,0 UV-I 0 W/m² 14,9 °C 17,1 °C 0,0 km/h (0 Bft)
29.07.2018 00:40 17,0 °C 87 % 1013,2 hPa 0,2 mm 1,7 km/h (1 Bft) W-SW 249 ° 0 min 0,000 mm 0,0 UV-I 0 W/m² 14,8 °C 17,0 °C 3,2 km/h (1 Bft)
29.07.2018 00:41 16,9 °C 87 % 1013,2 hPa 0,0 mm 1,0 km/h (0 Bft) W-SW 248 ° 0 min 0,000 mm 0,0 UV-I 0 W/m² 14,7 °C 16,9 °C 4,8 km/h (1 Bft)
29.07.2018 00:42 16,9 °C 87 % 1013,2 hPa 0,0 mm 0,0 km/h (0 Bft) W-SW 248 ° 0 min 0,000 mm 0,0 UV-I 0 W/m² 14,7 °C 16,9 °C 0,0 km/h (0 Bft)
29.07.2018 00:43 16,9 °C 87 % 1013,3 hPa 0,0 mm 0,0 km/h (0 Bft) W-SW 248 ° 0 min 0,000 mm 0,0 UV-I 0 W/m² 14,7 °C 16,9 °C 0,0 km/h (0 Bft)
29.07.2018 00:44 16,8 °C 88 % 1013,2 hPa 0,0 mm 0,0 km/h (0 Bft) W-SW 248 ° 0 min 0,000 mm 0,0 UV-I 0 W/m² 14,8 °C 16,8 °C 0,0 km/h (0 Bft)
29.07.2018 00:45 16,8 °C 88 % 1013,2 hPa 0,0 mm 0,0 km/h (0 Bft) W-SW 248 ° 0 min 0,000 mm 0,0 UV-I 0 W/m² 14,8 °C 16,8 °C 0,0 km/h (0 Bft)
29.07.2018 00:46 16,7 °C 88 % 1013,3 hPa 0,0 mm 0,0 km/h (0 Bft) W-SW 248 ° 0 min 0,000 mm 0,0 UV-I 0 W/m² 14,7 °C 16,7 °C 0,0 km/h (0 Bft)
29.07.2018 00:47 16,7 °C 88 % 1013,3 hPa 0,0 mm 0,0 km/h (0 Bft) W-SW 248 ° 0 min 0,000 mm 0,0 UV-I 0 W/m² 14,7 °C 16,7 °C 0,0 km/h (0 Bft)
29.07.2018 00:48 16,7 °C 88 % 1013,3 hPa 0,0 mm 0,0 km/h (0 Bft) W-SW 248 ° 0 min 0,000 mm 0,0 UV-I 0 W/m² 14,7 °C 16,7 °C 0,0 km/h (0 Bft)
29.07.2018 00:49 16,6 °C 88 % 1013,2 hPa 0,0 mm 0,0 km/h (0 Bft) W-SW 248 ° 0 min 0,000 mm 0,0 UV-I 0 W/m² 14,6 °C 16,6 °C 0,0 km/h (0 Bft)
29.07.2018 00:50 16,6 °C 88 % 1013,2 hPa 0,0 mm 0,0 km/h (0 Bft) W-SW 248 ° 0 min 0,000 mm 0,0 UV-I 0 W/m² 14,6 °C 16,6 °C 0,0 km/h (0 Bft)
29.07.2018 00:51 16,6 °C 89 % 1013,3 hPa 0,0 mm 0,0 km/h (0 Bft) W-SW 248 ° 0 min 0,000 mm 0,0 UV-I 0 W/m² 14,8 °C 16,6 °C 0,0 km/h (0 Bft)
29.07.2018 00:52 16,6 °C 89 % 1013,3 hPa 0,0 mm 0,9 km/h (0 Bft) W-SW 248 ° 0 min 0,000 mm 0,0 UV-I 0 W/m² 14,8 °C 16,6 °C 3,2 km/h (1 Bft)
29.07.2018 00:53 16,6 °C 88 % 1013,2 hPa 0,0 mm 0,0 km/h (0 Bft) W-SW 248 ° 0 min 0,000 mm 0,0 UV-I 0 W/m² 14,6 °C 16,6 °C 0,0 km/h (0 Bft)
29.07.2018 00:54 16,7 °C 88 % 1013,2 hPa 0,0 mm 1,0 km/h (0 Bft) W-SW 248 ° 0 min 0,000 mm 0,0 UV-I 0 W/m² 14,7 °C 16,7 °C 3,2 km/h (1 Bft)
29.07.2018 00:55 16,7 °C 88 % 1013,2 hPa 0,0 mm 1,1 km/h (1 Bft) W-SW 248 ° 0 min 0,000 mm 0,0 UV-I 0 W/m² 14,7 °C 16,7 °C 3,2 km/h (1 Bft)
29.07.2018 00:56 16,7 °C 88 % 1013,2 hPa 0,0 mm 2,1 km/h (1 Bft) SO 146 ° 0 min 0,000 mm 0,0 UV-I 0 W/m² 14,7 °C 16,7 °C 4,8 km/h (1 Bft)
29.07.2018 00:57 16,7 °C 88 % 1013,2 hPa 0,0 mm 0,5 km/h (0 Bft) SO 146 ° 0 min 0,000 mm 0,0 UV-I 0 W/m² 14,7 °C 16,7 °C 3,2 km/h (1 Bft)
29.07.2018 00:58 16,6 °C 89 % 1013,1 hPa 0,0 mm 0,0 km/h (0 Bft) SO 146 ° 0 min 0,000 mm 0,0 UV-I 0 W/m² 14,8 °C 16,6 °C 0,0 km/h (0 Bft)
29.07.2018 00:59 16,6 °C 89 % 1013,1 hPa 0,0 mm 0,0 km/h (0 Bft) SO 146 ° 0 min 0,000 mm 0,0 UV-I 0 W/m² 14,8 °C 16,6 °C 0,0 km/h (0 Bft)
29.07.2018 01:00 16,6 °C 89 % 1013,2 hPa 0,0 mm 0,0 km/h (0 Bft) SO 146 ° 0 min 0,000 mm 0,0 UV-I 0 W/m² 14,8 °C 16,6 °C 0,0 km/h (0 Bft)
29.07.2018 01:01 16,6 °C 89 % 1013,2 hPa 0,0 mm 0,1 km/h (0 Bft) SO 146 ° 0 min 0,025 mm 0,0 UV-I 0 W/m² 14,8 °C 16,6 °C 1,6 km/h (1 Bft)
29.07.2018 01:02 16,6 °C 89 % 1013,2 hPa 0,0 mm 0,0 km/h (0 Bft) SO 146 ° 0 min 0,000 mm 0,0 UV-I 0 W/m² 14,8 °C 16,6 °C 0,0 km/h (0 Bft)
29.07.2018 01:03 16,6 °C 89 % 1013,2 hPa 0,0 mm 0,0 km/h (0 Bft) SO 146 ° 0 min 0,000 mm 0,0 UV-I 0 W/m² 14,8 °C 16,6 °C 0,0 km/h (0 Bft)
29.07.2018 01:04 16,4 °C 89 % 1013,1 hPa 0,0 mm 0,1 km/h (0 Bft) SO 146 ° 0 min 0,000 mm 0,0 UV-I 0 W/m² 14,6 °C 16,4 °C 1,6 km/h (1 Bft)
29.07.2018 01:05 16,4 °C 90 % 1013,1 hPa 0,0 mm 0,0 km/h (0 Bft) SO 146 ° 0 min 0,000 mm 0,0 UV-I 0 W/m² 14,8 °C 16,4 °C 0,0 km/h (0 Bft)
29.07.2018 01:06 16,4 °C 90 % 1013,2 hPa 0,0 mm 0,0 km/h (0 Bft) SO 146 ° 0 min 0,000 mm 0,0 UV-I 0 W/m² 14,8 °C 16,4 °C 0,0 km/h (0 Bft)
29.07.2018 01:07 16,4 °C 90 % 1013,2 hPa 0,0 mm 0,0 km/h (0 Bft) SO 146 ° 0 min 0,000 mm 0,0 UV-I 0 W/m² 14,8 °C 16,4 °C 0,0 km/h (0 Bft)
29.07.2018 01:08 16,4 °C 90 % 1013,1 hPa 0,2 mm 0,0 km/h (0 Bft) SO 146 ° 0 min 0,000 mm 0,0 UV-I 0 W/m² 14,8 °C 16,4 °C 0,0 km/h (0 Bft)
29.07.2018 01:09 16,4 °C 90 % 1013,2 hPa 0,0 mm 0,0 km/h (0 Bft) SO 146 ° 0 min 0,000 mm 0,0 UV-I 0 W/m² 14,8 °C 16,4 °C 0,0 km/h (0 Bft)
29.07.2018 01:10 16,4 °C 90 % 1013,2 hPa 0,0 mm 0,5 km/h (0 Bft) SO 146 ° 0 min 0,000 mm 0,0 UV-I 0 W/m² 14,8 °C 16,4 °C 1,6 km/h (1 Bft)
29.07.2018 01:11 16,4 °C 90 % 1013,1 hPa 0,0 mm 0,0 km/h (0 Bft) SO 146 ° 0 min 0,000 mm 0,0 UV-I 0 W/m² 14,8 °C 16,4 °C 0,0 km/h (0 Bft)
29.07.2018 01:12 16,4 °C 90 % 1013,1 hPa 0,0 mm 0,0 km/h (0 Bft) SO 146 ° 0 min 0,000 mm 0,0 UV-I 0 W/m² 14,8 °C 16,4 °C 0,0 km/h (0 Bft)
29.07.2018 01:13 16,3 °C 90 % 1013,1 hPa 0,0 mm 0,0 km/h (0 Bft) SO 146 ° 0 min 0,000 mm 0,0 UV-I 0 W/m² 14,7 °C 16,3 °C 0,0 km/h (0 Bft)
29.07.2018 01:14 16,3 °C 90 % 1013,1 hPa 0,0 mm 0,0 km/h (0 Bft) SO 146 ° 0 min 0,000 mm 0,0 UV-I 0 W/m² 14,7 °C 16,3 °C 0,0 km/h (0 Bft)
29.07.2018 01:15 16,3 °C 90 % 1013,2 hPa 0,0 mm 0,0 km/h (0 Bft) SO 146 ° 0 min 0,000 mm 0,0 UV-I 0 W/m² 14,7 °C 16,3 °C 0,0 km/h (0 Bft)
29.07.2018 01:16 16,3 °C 90 % 1013,2 hPa 0,0 mm 0,0 km/h (0 Bft) SO 146 ° 0 min 0,000 mm 0,0 UV-I 0 W/m² 14,7 °C 16,3 °C 0,0 km/h (0 Bft)
29.07.2018 01:17 16,3 °C 90 % 1013,2 hPa 0,0 mm 0,0 km/h (0 Bft) SO 146 ° 0 min 0,000 mm 0,0 UV-I 0 W/m² 14,7 °C 16,3 °C 0,0 km/h (0 Bft)
29.07.2018 01:18 16,3 °C 90 % 1013,1 hPa 0,0 mm 0,0 km/h (0 Bft) SO 146 ° 0 min 0,000 mm 0,0 UV-I 0 W/m² 14,7 °C 16,3 °C 0,0 km/h (0 Bft)
29.07.2018 01:19 16,2 °C 90 % 1013,1 hPa 0,0 mm 0,0 km/h (0 Bft) SO 146 ° 0 min 0,000 mm 0,0 UV-I 0 W/m² 14,6 °C 16,2 °C 0,0 km/h (0 Bft)
29.07.2018 01:20 16,2 °C 90 % 1013,1 hPa 0,0 mm 0,0 km/h (0 Bft) SO 146 ° 0 min 0,000 mm 0,0 UV-I 0 W/m² 14,6 °C 16,2 °C 0,0 km/h (0 Bft)
29.07.2018 01:21 16,2 °C 90 % 1013,1 hPa 0,0 mm 0,0 km/h (0 Bft) SO 146 ° 0 min 0,000 mm 0,0 UV-I 0 W/m² 14,6 °C 16,2 °C 0,0 km/h (0 Bft)
29.07.2018 01:22 16,2 °C 91 % 1013,1 hPa 0,0 mm 0,0 km/h (0 Bft) SO 146 ° 0 min 0,000 mm 0,0 UV-I 0 W/m² 14,7 °C 16,2 °C 0,0 km/h (0 Bft)
29.07.2018 01:23 16,1 °C 91 % 1013,1 hPa 0,0 mm 0,0 km/h (0 Bft) SO 146 ° 0 min 0,000 mm 0,0 UV-I 0 W/m² 14,6 °C 16,1 °C 0,0 km/h (0 Bft)
29.07.2018 01:24 16,1 °C 91 % 1013,1 hPa 0,0 mm 0,0 km/h (0 Bft) SO 146 ° 0 min 0,000 mm 0,0 UV-I 0 W/m² 14,6 °C 16,1 °C 0,0 km/h (0 Bft)
29.07.2018 01:25 16,1 °C 91 % 1013,1 hPa 0,0 mm 0,0 km/h (0 Bft) SO 146 ° 0 min 0,000 mm 0,0 UV-I 0 W/m² 14,6 °C 16,1 °C 0,0 km/h (0 Bft)
29.07.2018 01:26 16,1 °C 91 % 1013,1 hPa 0,0 mm 0,0 km/h (0 Bft) SO 146 ° 0 min 0,000 mm 0,0 UV-I 0 W/m² 14,6 °C 16,1 °C 0,0 km/h (0 Bft)
29.07.2018 01:27 16,1 °C 91 % 1013,1 hPa 0,0 mm 0,0 km/h (0 Bft) SO 146 ° 0 min 0,000 mm 0,0 UV-I 0 W/m² 14,6 °C 16,1 °C 0,0 km/h (0 Bft)
29.07.2018 01:28 16,1 °C 91 % 1013,1 hPa 0,0 mm 0,0 km/h (0 Bft) SO 146 ° 0 min 0,000 mm 0,0 UV-I 0 W/m² 14,6 °C 16,1 °C 0,0 km/h (0 Bft)
29.07.2018 01:29 16,1 °C 91 % 1013,1 hPa 0,0 mm 0,0 km/h (0 Bft) SO 146 ° 0 min 0,000 mm 0,0 UV-I 0 W/m² 14,6 °C 16,1 °C 0,0 km/h (0 Bft)
29.07.2018 01:30 16,1 °C 91 % 1013,1 hPa 0,0 mm 0,0 km/h (0 Bft) SO 146 ° 0 min 0,000 mm 0,0 UV-I 0 W/m² 14,6 °C 16,1 °C 0,0 km/h (0 Bft)
29.07.2018 01:31 16,1 °C 91 % 1013,1 hPa 0,0 mm 0,0 km/h (0 Bft) SO 146 ° 0 min 0,000 mm 0,0 UV-I 0 W/m² 14,6 °C 16,1 °C 0,0 km/h (0 Bft)
29.07.2018 01:32 16,0 °C 91 % 1013,1 hPa 0,0 mm 0,0 km/h (0 Bft) SO 146 ° 0 min 0,000 mm 0,0 UV-I 0 W/m² 14,5 °C 16,0 °C 0,0 km/h (0 Bft)
29.07.2018 01:33 16,0 °C 92 % 1013,1 hPa 0,0 mm 0,0 km/h (0 Bft) SO 146 ° 0 min 0,000 mm 0,0 UV-I 0 W/m² 14,7 °C 16,0 °C 0,0 km/h (0 Bft)
29.07.2018 01:34 16,0 °C 92 % 1013,1 hPa 0,0 mm 0,0 km/h (0 Bft) SO 146 ° 0 min 0,000 mm 0,0 UV-I 0 W/m² 14,7 °C 16,0 °C 0,0 km/h (0 Bft)
29.07.2018 01:35 16,0 °C 92 % 1013,2 hPa 0,0 mm 0,0 km/h (0 Bft) SO 146 ° 0 min 0,000 mm 0,0 UV-I 0 W/m² 14,7 °C 16,0 °C 0,0 km/h (0 Bft)
29.07.2018 01:36 16,0 °C 92 % 1013,2 hPa 0,0 mm 0,0 km/h (0 Bft) SO 146 ° 0 min 0,000 mm 0,0 UV-I 0 W/m² 14,7 °C 16,0 °C 0,0 km/h (0 Bft)
29.07.2018 01:37 16,0 °C 92 % 1013,2 hPa 0,0 mm 0,0 km/h (0 Bft) SO 146 ° 0 min 0,000 mm 0,0 UV-I 0 W/m² 14,7 °C 16,0 °C 0,0 km/h (0 Bft)
29.07.2018 01:38 15,9 °C 92 % 1013,2 hPa 0,0 mm 0,0 km/h (0 Bft) SO 146 ° 0 min 0,000 mm 0,0 UV-I 0 W/m² 14,6 °C 15,9 °C 0,0 km/h (0 Bft)
29.07.2018 01:39 15,9 °C 92 % 1013,2 hPa 0,0 mm 0,0 km/h (0 Bft) SO 146 ° 0 min 0,000 mm 0,0 UV-I 0 W/m² 14,6 °C 15,9 °C 0,0 km/h (0 Bft)
29.07.2018 01:40 15,9 °C 92 % 1013,2 hPa 0,0 mm 0,0 km/h (0 Bft) SO 146 ° 0 min 0,000 mm 0,0 UV-I 0 W/m² 14,6 °C 15,9 °C 0,0 km/h (0 Bft)
29.07.2018 01:41 15,9 °C 92 % 1013,2 hPa 0,0 mm 0,0 km/h (0 Bft) SO 146 ° 0 min 0,000 mm 0,0 UV-I 0 W/m² 14,6 °C 15,9 °C 0,0 km/h (0 Bft)
29.07.2018 01:42 15,9 °C 92 % 1013,2 hPa 0,0 mm 0,0 km/h (0 Bft) SO 146 ° 0 min 0,000 mm 0,0 UV-I 0 W/m² 14,6 °C 15,9 °C 0,0 km/h (0 Bft)
29.07.2018 01:43 15,9 °C 92 % 1013,2 hPa 0,0 mm 0,0 km/h (0 Bft) SO 146 ° 0 min 0,000 mm 0,0 UV-I 0 W/m² 14,6 °C 15,9 °C 0,0 km/h (0 Bft)
29.07.2018 01:44 15,9 °C 92 % 1013,2 hPa 0,0 mm 0,0 km/h (0 Bft) SO 146 ° 0 min 0,000 mm 0,0 UV-I 0 W/m² 14,6 °C 15,9 °C 0,0 km/h (0 Bft)
29.07.2018 01:45 15,9 °C 91 % 1013,2 hPa 0,0 mm 0,0 km/h (0 Bft) SO 146 ° 0 min 0,000 mm 0,0 UV-I 0 W/m² 14,4 °C 15,9 °C 0,0 km/h (0 Bft)
29.07.2018 01:46 15,9 °C 91 % 1013,3 hPa 0,0 mm 0,0 km/h (0 Bft) SO 146 ° 0 min 0,000 mm 0,0 UV-I 0 W/m² 14,4 °C 15,9 °C 0,0 km/h (0 Bft)
29.07.2018 01:47 15,9 °C 92 % 1013,3 hPa 0,0 mm 0,0 km/h (0 Bft) SO 146 ° 0 min 0,000 mm 0,0 UV-I 0 W/m² 14,6 °C 15,9 °C 0,0 km/h (0 Bft)
29.07.2018 01:48 15,9 °C 92 % 1013,3 hPa 0,0 mm 0,0 km/h (0 Bft) SO 146 ° 0 min 0,000 mm 0,0 UV-I 0 W/m² 14,6 °C 15,9 °C 0,0 km/h (0 Bft)
29.07.2018 01:49 15,9 °C 92 % 1013,2 hPa 0,0 mm 0,0 km/h (0 Bft) SO 146 ° 0 min 0,000 mm 0,0 UV-I 0 W/m² 14,6 °C 15,9 °C 0,0 km/h (0 Bft)
29.07.2018 01:50 15,8 °C 91 % 1013,2 hPa 0,0 mm 0,0 km/h (0 Bft) SO 146 ° 0 min 0,000 mm 0,0 UV-I 0 W/m² 14,3 °C 15,8 °C 0,0 km/h (0 Bft)
29.07.2018 01:51 15,9 °C 91 % 1013,2 hPa 0,0 mm 0,0 km/h (0 Bft) SO 146 ° 0 min 0,000 mm 0,0 UV-I 0 W/m² 14,4 °C 15,9 °C 0,0 km/h (0 Bft)
29.07.2018 01:52 15,9 °C 91 % 1013,2 hPa 0,0 mm 0,0 km/h (0 Bft) SO 146 ° 0 min 0,000 mm 0,0 UV-I 0 W/m² 14,4 °C 15,9 °C 0,0 km/h (0 Bft)
29.07.2018 01:53 15,9 °C 91 % 1013,2 hPa 0,0 mm 0,0 km/h (0 Bft) SO 146 ° 0 min 0,000 mm 0,0 UV-I 0 W/m² 14,4 °C 15,9 °C 0,0 km/h (0 Bft)
29.07.2018 01:54 15,9 °C 91 % 1013,2 hPa 0,0 mm 0,7 km/h (0 Bft) SO 146 ° 0 min 0,000 mm 0,0 UV-I 0 W/m² 14,4 °C 15,9 °C 3,2 km/h (1 Bft)
29.07.2018 01:55 15,8 °C 91 % 1013,2 hPa 0,0 mm 0,0 km/h (0 Bft) SO 146 ° 0 min 0,000 mm 0,0 UV-I 0 W/m² 14,3 °C 15,8 °C 0,0 km/h (0 Bft)
29.07.2018 01:56 15,8 °C 91 % 1013,2 hPa 0,0 mm 0,0 km/h (0 Bft) SO 146 ° 0 min 0,000 mm 0,0 UV-I 0 W/m² 14,3 °C 15,8 °C 0,0 km/h (0 Bft)
29.07.2018 01:57 15,8 °C 91 % 1013,2 hPa 0,0 mm 0,0 km/h (0 Bft) SO 146 ° 0 min 0,000 mm 0,0 UV-I 0 W/m² 14,3 °C 15,8 °C 0,0 km/h (0 Bft)
29.07.2018 01:58 15,8 °C 91 % 1013,2 hPa 0,0 mm 0,0 km/h (0 Bft) SO 146 ° 0 min 0,000 mm 0,0 UV-I 0 W/m² 14,3 °C 15,8 °C 0,0 km/h (0 Bft)
29.07.2018 01:59 15,8 °C 91 % 1013,2 hPa 0,2 mm 0,0 km/h (0 Bft) SO 146 ° 0 min 0,000 mm 0,0 UV-I 0 W/m² 14,3 °C 15,8 °C 0,0 km/h (0 Bft)
29.07.2018 02:00 15,8 °C 91 % 1013,2 hPa 0,0 mm 0,0 km/h (0 Bft) SO 146 ° 0 min 0,000 mm 0,0 UV-I 0 W/m² 14,3 °C 15,8 °C 0,0 km/h (0 Bft)
29.07.2018 02:01 15,8 °C 92 % 1013,2 hPa 0,0 mm 0,0 km/h (0 Bft) SO 146 ° 0 min 0,000 mm 0,0 UV-I 0 W/m² 14,5 °C 15,8 °C 0,0 km/h (0 Bft)
29.07.2018 02:02 15,8 °C 92 % 1013,2 hPa 0,0 mm 0,8 km/h (0 Bft) SO 140 ° 0 min 0,000 mm 0,0 UV-I 0 W/m² 14,5 °C 15,8 °C 3,2 km/h (1 Bft)
29.07.2018 02:03 15,8 °C 92 % 1013,2 hPa 0,0 mm 0,4 km/h (0 Bft) SO 138 ° 0 min 0,000 mm 0,0 UV-I 0 W/m² 14,5 °C 15,8 °C 3,2 km/h (1 Bft)
29.07.2018 02:04 15,8 °C 92 % 1013,2 hPa 0,0 mm 0,0 km/h (0 Bft) SO 138 ° 0 min 0,000 mm 0,0 UV-I 0 W/m² 14,5 °C 15,8 °C 0,0 km/h (0 Bft)
29.07.2018 02:05 15,8 °C 92 % 1013,2 hPa 0,0 mm 0,0 km/h (0 Bft) SO 138 ° 0 min 0,000 mm 0,0 UV-I 0 W/m² 14,5 °C 15,8 °C 0,0 km/h (0 Bft)
29.07.2018 02:06 15,8 °C 92 % 1013,3 hPa 0,0 mm 0,0 km/h (0 Bft) SO 138 ° 0 min 0,000 mm 0,0 UV-I 0 W/m² 14,5 °C 15,8 °C 0,0 km/h (0 Bft)
29.07.2018 02:07 15,8 °C 92 % 1013,3 hPa 0,0 mm 0,0 km/h (0 Bft) SO 138 ° 0 min 0,000 mm 0,0 UV-I 0 W/m² 14,5 °C 15,8 °C 0,0 km/h (0 Bft)
29.07.2018 02:08 15,8 °C 92 % 1013,2 hPa 0,0 mm 0,0 km/h (0 Bft) SO 138 ° 0 min 0,000 mm 0,0 UV-I 0 W/m² 14,5 °C 15,8 °C 0,0 km/h (0 Bft)
29.07.2018 02:09 15,8 °C 92 % 1013,2 hPa 0,0 mm 0,0 km/h (0 Bft) SO 138 ° 0 min 0,000 mm 0,0 UV-I 0 W/m² 14,5 °C 15,8 °C 0,0 km/h (0 Bft)
29.07.2018 02:10 15,8 °C 92 % 1013,3 hPa 0,0 mm 0,0 km/h (0 Bft) SO 138 ° 0 min 0,000 mm 0,0 UV-I 0 W/m² 14,5 °C 15,8 °C 0,0 km/h (0 Bft)
29.07.2018 02:11 15,8 °C 92 % 1013,3 hPa 0,0 mm 0,0 km/h (0 Bft) SO 138 ° 0 min 0,000 mm 0,0 UV-I 0 W/m² 14,5 °C 15,8 °C 0,0 km/h (0 Bft)
29.07.2018 02:12 15,8 °C 91 % 1013,3 hPa 0,0 mm 0,0 km/h (0 Bft) SO 140 ° 0 min 0,000 mm 0,0 UV-I 0 W/m² 14,3 °C 15,8 °C 0,0 km/h (0 Bft)
29.07.2018 02:13 15,9 °C 91 % 1013,3 hPa 0,0 mm 0,0 km/h (0 Bft) SO 140 ° 0 min 0,000 mm 0,0 UV-I 0 W/m² 14,4 °C 15,9 °C 0,0 km/h (0 Bft)
29.07.2018 02:14 15,9 °C 91 % 1013,2 hPa 0,0 mm 0,0 km/h (0 Bft) SO 140 ° 0 min 0,000 mm 0,0 UV-I 0 W/m² 14,4 °C 15,9 °C 0,0 km/h (0 Bft)
29.07.2018 02:15 15,9 °C 91 % 1013,3 hPa 0,0 mm 0,0 km/h (0 Bft) SO 140 ° 0 min 0,000 mm 0,0 UV-I 0 W/m² 14,4 °C 15,9 °C 0,0 km/h (0 Bft)
29.07.2018 02:16 15,9 °C 91 % 1013,3 hPa 0,0 mm 0,0 km/h (0 Bft) SO 140 ° 0 min 0,000 mm 0,0 UV-I 0 W/m² 14,4 °C 15,9 °C 0,0 km/h (0 Bft)
29.07.2018 02:17 15,9 °C 91 % 1013,3 hPa 0,0 mm 0,0 km/h (0 Bft) SO 140 ° 0 min 0,000 mm 0,0 UV-I 0 W/m² 14,4 °C 15,9 °C 0,0 km/h (0 Bft)
29.07.2018 02:18 16,0 °C 91 % 1013,3 hPa 0,0 mm 0,0 km/h (0 Bft) SO 140 ° 0 min 0,000 mm 0,0 UV-I 0 W/m² 14,5 °C 16,0 °C 0,0 km/h (0 Bft)
29.07.2018 02:19 16,0 °C 91 % 1013,3 hPa 0,0 mm 0,0 km/h (0 Bft) SO 140 ° 0 min 0,000 mm 0,0 UV-I 0 W/m² 14,5 °C 16,0 °C 0,0 km/h (0 Bft)
29.07.2018 02:20 15,9 °C 91 % 1013,3 hPa 0,0 mm 0,0 km/h (0 Bft) SO 140 ° 0 min 0,000 mm 0,0 UV-I 0 W/m² 14,4 °C 15,9 °C 0,0 km/h (0 Bft)
29.07.2018 02:21 15,9 °C 91 % 1013,3 hPa 0,0 mm 0,0 km/h (0 Bft) SO 140 ° 0 min 0,000 mm 0,0 UV-I 0 W/m² 14,4 °C 15,9 °C 0,0 km/h (0 Bft)
29.07.2018 02:22 16,0 °C 91 % 1013,3 hPa 0,0 mm 0,0 km/h (0 Bft) SO 140 ° 0 min 0,000 mm 0,0 UV-I 0 W/m² 14,5 °C 16,0 °C 0,0 km/h (0 Bft)
29.07.2018 02:23 15,9 °C 91 % 1013,3 hPa 0,0 mm 0,0 km/h (0 Bft) SO 140 ° 0 min 0,000 mm 0,0 UV-I 0 W/m² 14,4 °C 15,9 °C 0,0 km/h (0 Bft)
29.07.2018 02:24 16,0 °C 91 % 1013,3 hPa 0,0 mm 0,3 km/h (0 Bft) W-SW 256 ° 0 min 0,000 mm 0,0 UV-I 0 W/m² 14,5 °C 16,0 °C 3,2 km/h (1 Bft)
29.07.2018 02:25 16,1 °C 91 % 1013,3 hPa 0,0 mm 3,2 km/h (1 Bft) W-SW 255 ° 0 min 0,000 mm 0,0 UV-I 0 W/m² 14,6 °C 16,1 °C 4,8 km/h (1 Bft)
29.07.2018 02:26 16,1 °C 91 % 1013,3 hPa 0,0 mm 0,7 km/h (0 Bft) W-SW 255 ° 0 min 0,000 mm 0,0 UV-I 0 W/m² 14,6 °C 16,1 °C 1,6 km/h (1 Bft)
29.07.2018 02:27 16,1 °C 91 % 1013,3 hPa 0,0 mm 0,0 km/h (0 Bft) W-SW 255 ° 0 min 0,000 mm 0,0 UV-I 0 W/m² 14,6 °C 16,1 °C 0,0 km/h (0 Bft)
29.07.2018 02:28 16,2 °C 91 % 1013,4 hPa 0,0 mm 0,0 km/h (0 Bft) W-SW 255 ° 0 min 0,000 mm 0,0 UV-I 0 W/m² 14,7 °C 16,2 °C 0,0 km/h (0 Bft)
29.07.2018 02:29 16,2 °C 91 % 1013,3 hPa 0,0 mm 0,6 km/h (0 Bft) W-SW 256 ° 0 min 0,000 mm 0,0 UV-I 0 W/m² 14,7 °C 16,2 °C 3,2 km/h (1 Bft)
29.07.2018 02:30 16,2 °C 90 % 1013,4 hPa 0,0 mm 0,0 km/h (0 Bft) W-SW 256 ° 0 min 0,000 mm 0,0 UV-I 0 W/m² 14,6 °C 16,2 °C 0,0 km/h (0 Bft)
29.07.2018 02:31 16,2 °C 90 % 1013,4 hPa 0,0 mm 0,0 km/h (0 Bft) W-SW 256 ° 0 min 0,000 mm 0,0 UV-I 0 W/m² 14,6 °C 16,2 °C 0,0 km/h (0 Bft)
29.07.2018 02:32 16,1 °C 90 % 1013,3 hPa 0,0 mm 0,0 km/h (0 Bft) W-SW 256 ° 0 min 0,000 mm 0,0 UV-I 0 W/m² 14,5 °C 16,1 °C 0,0 km/h (0 Bft)
29.07.2018 02:33 16,1 °C 90 % 1013,3 hPa 0,0 mm 0,0 km/h (0 Bft) W-SW 256 ° 0 min 0,000 mm 0,0 UV-I 0 W/m² 14,5 °C 16,1 °C 0,0 km/h (0 Bft)
29.07.2018 02:34 16,2 °C 90 % 1013,3 hPa 0,0 mm 0,0 km/h (0 Bft) W-SW 256 ° 0 min 0,000 mm 0,0 UV-I 0 W/m² 14,6 °C 16,2 °C 0,0 km/h (0 Bft)
29.07.2018 02:35 16,2 °C 90 % 1013,3 hPa 0,0 mm 0,0 km/h (0 Bft) W-SW 255 ° 0 min 0,000 mm 0,0 UV-I 0 W/m² 14,6 °C 16,2 °C 0,0 km/h (0 Bft)
29.07.2018 02:36 16,2 °C 90 % 1013,3 hPa 0,0 mm 0,4 km/h (0 Bft) W-SW 256 ° 0 min 0,000 mm 0,0 UV-I 0 W/m² 14,6 °C 16,2 °C 1,6 km/h (1 Bft)
29.07.2018 02:37 16,2 °C 90 % 1013,3 hPa 0,0 mm 2,0 km/h (1 Bft) W-SW 256 ° 0 min 0,000 mm 0,0 UV-I 0 W/m² 14,6 °C 16,2 °C 3,2 km/h (1 Bft)
29.07.2018 02:38 16,2 °C 90 % 1013,3 hPa 0,0 mm 0,7 km/h (0 Bft) W-SW 256 ° 0 min 0,000 mm 0,0 UV-I 0 W/m² 14,6 °C 16,2 °C 1,6 km/h (1 Bft)
29.07.2018 02:39 16,2 °C 90 % 1013,3 hPa 0,0 mm 0,3 km/h (0 Bft) W-SW 256 ° 0 min 0,000 mm 0,0 UV-I 0 W/m² 14,6 °C 16,2 °C 1,6 km/h (1 Bft)
29.07.2018 02:40 16,3 °C 90 % 1013,3 hPa 0,0 mm 0,3 km/h (0 Bft) W-SW 256 ° 0 min 0,000 mm 0,0 UV-I 0 W/m² 14,7 °C 16,3 °C 1,6 km/h (1 Bft)
29.07.2018 02:41 16,3 °C 90 % 1013,3 hPa 0,0 mm 0,0 km/h (0 Bft) W-SW 256 ° 0 min 0,000 mm 0,0 UV-I 0 W/m² 14,7 °C 16,3 °C 0,0 km/h (0 Bft)
29.07.2018 02:42 16,3 °C 90 % 1013,3 hPa 0,0 mm 0,9 km/h (0 Bft) W-SW 256 ° 0 min 0,000 mm 0,0 UV-I 0 W/m² 14,7 °C 16,3 °C 3,2 km/h (1 Bft)
29.07.2018 02:43 16,3 °C 90 % 1013,3 hPa 0,0 mm 1,8 km/h (1 Bft) W-SW 255 ° 0 min 0,000 mm 0,0 UV-I 0 W/m² 14,7 °C 16,3 °C 4,8 km/h (1 Bft)
29.07.2018 02:44 16,3 °C 90 % 1013,3 hPa 0,0 mm 0,0 km/h (0 Bft) W-SW 255 ° 0 min 0,000 mm 0,0 UV-I 0 W/m² 14,7 °C 16,3 °C 0,0 km/h (0 Bft)
29.07.2018 02:45 16,3 °C 90 % 1013,3 hPa 0,0 mm 0,0 km/h (0 Bft) W-SW 255 ° 0 min 0,000 mm 0,0 UV-I 0 W/m² 14,7 °C 16,3 °C 0,0 km/h (0 Bft)
29.07.2018 02:46 16,3 °C 90 % 1013,3 hPa 0,0 mm 0,3 km/h (0 Bft) W-SW 255 ° 0 min 0,000 mm 0,0 UV-I 0 W/m² 14,7 °C 16,3 °C 1,6 km/h (1 Bft)
29.07.2018 02:47 16,3 °C 90 % 1013,3 hPa 0,0 mm 0,0 km/h (0 Bft) W-SW 255 ° 0 min 0,000 mm 0,0 UV-I 0 W/m² 14,7 °C 16,3 °C 0,0 km/h (0 Bft)
29.07.2018 02:48 16,3 °C 90 % 1013,3 hPa 0,0 mm 0,2 km/h (0 Bft) W-SW 255 ° 0 min 0,000 mm 0,0 UV-I 0 W/m² 14,7 °C 16,3 °C 1,6 km/h (1 Bft)
29.07.2018 02:49 16,2 °C 90 % 1013,3 hPa 0,0 mm 0,1 km/h (0 Bft) W-SW 255 ° 0 min 0,000 mm 0,0 UV-I 0 W/m² 14,6 °C 16,2 °C 1,6 km/h (1 Bft)
29.07.2018 02:50 16,2 °C 90 % 1013,2 hPa 0,0 mm 0,1 km/h (0 Bft) W-SW 255 ° 0 min 0,000 mm 0,0 UV-I 0 W/m² 14,6 °C 16,2 °C 1,6 km/h (1 Bft)
29.07.2018 02:51 16,2 °C 90 % 1013,2 hPa 0,0 mm 0,3 km/h (0 Bft) W-SW 255 ° 0 min 0,000 mm 0,0 UV-I 0 W/m² 14,6 °C 16,2 °C 1,6 km/h (1 Bft)
29.07.2018 02:52 16,2 °C 90 % 1013,2 hPa 0,0 mm 0,6 km/h (0 Bft) W-SW 255 ° 0 min 0,000 mm 0,0 UV-I 0 W/m² 14,6 °C 16,2 °C 1,6 km/h (1 Bft)
29.07.2018 02:53 16,2 °C 90 % 1013,3 hPa 0,0 mm 0,2 km/h (0 Bft) W-SW 255 ° 0 min 0,000 mm 0,0 UV-I 0 W/m² 14,6 °C 16,2 °C 1,6 km/h (1 Bft)
29.07.2018 02:54 16,1 °C 90 % 1013,3 hPa 0,0 mm 0,1 km/h (0 Bft) W-SW 255 ° 0 min 0,000 mm 0,0 UV-I 0 W/m² 14,5 °C 16,1 °C 1,6 km/h (1 Bft)
29.07.2018 02:55 16,2 °C 90 % 1013,3 hPa 0,0 mm 0,0 km/h (0 Bft) W-SW 255 ° 0 min 0,000 mm 0,0 UV-I 0 W/m² 14,6 °C 16,2 °C 0,0 km/h (0 Bft)
29.07.2018 02:56 16,2 °C 90 % 1013,3 hPa 0,0 mm 0,0 km/h (0 Bft) W-SW 255 ° 0 min 0,000 mm 0,0 UV-I 0 W/m² 14,6 °C 16,2 °C 0,0 km/h (0 Bft)
29.07.2018 02:57 16,2 °C 90 % 1013,2 hPa 0,0 mm 1,0 km/h (0 Bft) N-NO 27 ° 0 min 0,000 mm 0,0 UV-I 0 W/m² 14,6 °C 16,2 °C 3,2 km/h (1 Bft)
29.07.2018 02:58 16,2 °C 90 % 1013,3 hPa 0,0 mm 1,0 km/h (0 Bft) N 355 ° 0 min 0,000 mm 0,0 UV-I 0 W/m² 14,6 °C 16,2 °C 3,2 km/h (1 Bft)
29.07.2018 02:59 16,2 °C 90 % 1013,2 hPa 0,0 mm 0,2 km/h (0 Bft) N 355 ° 0 min 0,000 mm 0,0 UV-I 0 W/m² 14,6 °C 16,2 °C 1,6 km/h (1 Bft)
29.07.2018 03:00 16,1 °C 90 % 1013,2 hPa 0,0 mm 0,3 km/h (0 Bft) N 355 ° 0 min 0,000 mm 0,0 UV-I 0 W/m² 14,5 °C 16,1 °C 1,6 km/h (1 Bft)
29.07.2018 03:01 16,2 °C 90 % 1013,3 hPa 0,0 mm 0,3 km/h (0 Bft) N 355 ° 0 min 0,000 mm 0,0 UV-I 0 W/m² 14,6 °C 16,2 °C 1,6 km/h (1 Bft)
29.07.2018 03:02 16,1 °C 90 % 1013,2 hPa 0,0 mm 2,5 km/h (1 Bft) NW 307 ° 0 min 0,000 mm 0,0 UV-I 0 W/m² 14,5 °C 16,1 °C 4,8 km/h (1 Bft)
29.07.2018 03:03 16,1 °C 90 % 1013,2 hPa 0,0 mm 0,5 km/h (0 Bft) NW 307 ° 0 min 0,000 mm 0,0 UV-I 0 W/m² 14,5 °C 16,1 °C 1,6 km/h (1 Bft)
29.07.2018 03:04 16,1 °C 90 % 1013,2 hPa 0,0 mm 1,3 km/h (1 Bft) NW 314 ° 0 min 0,000 mm 0,0 UV-I 0 W/m² 14,5 °C 16,1 °C 3,2 km/h (1 Bft)
29.07.2018 03:05 16,1 °C 90 % 1013,2 hPa 0,0 mm 0,3 km/h (0 Bft) NW 314 ° 0 min 0,000 mm 0,0 UV-I 0 W/m² 14,5 °C 16,1 °C 1,6 km/h (1 Bft)
29.07.2018 03:06 16,2 °C 90 % 1013,2 hPa 0,0 mm 0,0 km/h (0 Bft) NW 314 ° 0 min 0,000 mm 0,0 UV-I 0 W/m² 14,6 °C 16,2 °C 0,0 km/h (0 Bft)
29.07.2018 03:07 16,2 °C 90 % 1013,2 hPa 0,0 mm 0,0 km/h (0 Bft) NW 314 ° 0 min 0,000 mm 0,0 UV-I 0 W/m² 14,6 °C 16,2 °C 0,0 km/h (0 Bft)
29.07.2018 03:08 16,2 °C 90 % 1013,3 hPa 0,0 mm 3,0 km/h (1 Bft) N-NO 22 ° 0 min 0,000 mm 0,0 UV-I 0 W/m² 14,6 °C 16,2 °C 6,4 km/h (2 Bft)
29.07.2018 03:09 16,2 °C 90 % 1013,2 hPa 0,0 mm 1,7 km/h (1 Bft) N-NO 15 ° 0 min 0,000 mm 0,0 UV-I 0 W/m² 14,6 °C 16,2 °C 3,2 km/h (1 Bft)
29.07.2018 03:10 16,3 °C 89 % 1013,3 hPa 0,0 mm 2,2 km/h (1 Bft) N-NO 15 ° 0 min 0,000 mm 0,0 UV-I 0 W/m² 14,5 °C 16,3 °C 3,2 km/h (1 Bft)
29.07.2018 03:11 16,3 °C 89 % 1013,3 hPa 0,0 mm 0,5 km/h (0 Bft) N-NO 15 ° 0 min 0,000 mm 0,0 UV-I 0 W/m² 14,5 °C 16,3 °C 1,6 km/h (1 Bft)
29.07.2018 03:12 16,4 °C 89 % 1013,3 hPa 0,0 mm 0,9 km/h (0 Bft) N-NO 15 ° 0 min 0,000 mm 0,0 UV-I 0 W/m² 14,6 °C 16,4 °C 3,2 km/h (1 Bft)
29.07.2018 03:13 16,4 °C 89 % 1013,3 hPa 0,0 mm 1,1 km/h (1 Bft) N-NO 15 ° 0 min 0,000 mm 0,0 UV-I 0 W/m² 14,6 °C 16,4 °C 3,2 km/h (1 Bft)
29.07.2018 03:14 16,3 °C 89 % 1013,3 hPa 0,0 mm 0,0 km/h (0 Bft) N-NO 15 ° 0 min 0,000 mm 0,0 UV-I 0 W/m² 14,5 °C 16,3 °C 0,0 km/h (0 Bft)
29.07.2018 03:15 16,4 °C 89 % 1013,3 hPa 0,0 mm 1,2 km/h (1 Bft) N-NO 15 ° 0 min 0,000 mm 0,0 UV-I 0 W/m² 14,6 °C 16,4 °C 3,2 km/h (1 Bft)
29.07.2018 03:16 16,4 °C 89 % 1013,3 hPa 0,0 mm 0,0 km/h (0 Bft) N-NO 15 ° 0 min 0,000 mm 0,0 UV-I 0 W/m² 14,6 °C 16,4 °C 0,0 km/h (0 Bft)
29.07.2018 03:17 16,4 °C 89 % 1013,3 hPa 0,0 mm 0,7 km/h (0 Bft) N-NO 15 ° 0 min 0,000 mm 0,0 UV-I 0 W/m² 14,6 °C 16,4 °C 3,2 km/h (1 Bft)
29.07.2018 03:18 16,4 °C 88 % 1013,3 hPa 0,0 mm 0,9 km/h (0 Bft) N-NO 15 ° 0 min 0,000 mm 0,0 UV-I 0 W/m² 14,4 °C 16,4 °C 3,2 km/h (1 Bft)
29.07.2018 03:19 16,3 °C 89 % 1013,3 hPa 0,0 mm 0,8 km/h (0 Bft) NO 43 ° 0 min 0,000 mm 0,0 UV-I 0 W/m² 14,5 °C 16,3 °C 3,2 km/h (1 Bft)
29.07.2018 03:20 16,3 °C 89 % 1013,3 hPa 0,0 mm 1,1 km/h (1 Bft) NO 43 ° 0 min 0,000 mm 0,0 UV-I 0 W/m² 14,5 °C 16,3 °C 3,2 km/h (1 Bft)
29.07.2018 03:21 16,3 °C 88 % 1013,3 hPa 0,0 mm 1,1 km/h (1 Bft) NO 43 ° 0 min 0,000 mm 0,0 UV-I 0 W/m² 14,3 °C 16,3 °C 3,2 km/h (1 Bft)
29.07.2018 03:22 16,3 °C 88 % 1013,3 hPa 0,0 mm 0,0 km/h (0 Bft) NO 43 ° 0 min 0,000 mm 0,0 UV-I 0 W/m² 14,3 °C 16,3 °C 0,0 km/h (0 Bft)
29.07.2018 03:23 16,3 °C 88 % 1013,3 hPa 0,0 mm 0,0 km/h (0 Bft) NO 43 ° 0 min 0,000 mm 0,0 UV-I 0 W/m² 14,3 °C 16,3 °C 0,0 km/h (0 Bft)
29.07.2018 03:24 16,3 °C 88 % 1013,3 hPa 0,0 mm 0,9 km/h (0 Bft) NO 42 ° 0 min 0,000 mm 0,0 UV-I 0 W/m² 14,3 °C 16,3 °C 3,2 km/h (1 Bft)
29.07.2018 03:25 16,3 °C 88 % 1013,3 hPa 0,0 mm 0,5 km/h (0 Bft) NO 42 ° 0 min 0,000 mm 0,0 UV-I 0 W/m² 14,3 °C 16,3 °C 1,6 km/h (1 Bft)
29.07.2018 03:26 16,3 °C 89 % 1013,3 hPa 0,0 mm 0,0 km/h (0 Bft) NO 42 ° 0 min 0,000 mm 0,0 UV-I 0 W/m² 14,5 °C 16,3 °C 0,0 km/h (0 Bft)
29.07.2018 03:27 16,3 °C 89 % 1013,4 hPa 0,0 mm 0,0 km/h (0 Bft) NO 42 ° 0 min 0,000 mm 0,0 UV-I 0 W/m² 14,5 °C 16,3 °C 0,0 km/h (0 Bft)
29.07.2018 03:28 16,3 °C 89 % 1013,3 hPa 0,0 mm 0,0 km/h (0 Bft) NO 42 ° 0 min 0,000 mm 0,0 UV-I 0 W/m² 14,5 °C 16,3 °C 0,0 km/h (0 Bft)
29.07.2018 03:29 16,3 °C 89 % 1013,3 hPa 0,0 mm 3,0 km/h (1 Bft) NO 42 ° 0 min 0,000 mm 0,0 UV-I 0 W/m² 14,5 °C 16,3 °C 4,8 km/h (1 Bft)
29.07.2018 03:30 16,3 °C 89 % 1013,3 hPa 0,0 mm 1,9 km/h (1 Bft) NO 42 ° 0 min 0,000 mm 0,0 UV-I 0 W/m² 14,5 °C 16,3 °C 4,8 km/h (1 Bft)
29.07.2018 03:31 16,3 °C 89 % 1013,3 hPa 0,0 mm 2,7 km/h (1 Bft) NO 42 ° 0 min 0,000 mm 0,0 UV-I 0 W/m² 14,5 °C 16,3 °C 4,8 km/h (1 Bft)
29.07.2018 03:32 16,3 °C 88 % 1013,3 hPa 0,0 mm 2,0 km/h (1 Bft) NO 42 ° 0 min 0,000 mm 0,0 UV-I 0 W/m² 14,3 °C 16,3 °C 3,2 km/h (1 Bft)
29.07.2018 03:33 16,3 °C 88 % 1013,3 hPa 0,0 mm 0,3 km/h (0 Bft) NO 42 ° 0 min 0,000 mm 0,0 UV-I 0 W/m² 14,3 °C 16,3 °C 1,6 km/h (1 Bft)
29.07.2018 03:34 16,3 °C 88 % 1013,3 hPa 0,0 mm 1,6 km/h (1 Bft) N 5 ° 0 min 0,000 mm 0,0 UV-I 0 W/m² 14,3 °C 16,3 °C 6,4 km/h (2 Bft)
29.07.2018 03:35 16,3 °C 88 % 1013,3 hPa 0,0 mm 0,0 km/h (0 Bft) N 5 ° 0 min 0,000 mm 0,0 UV-I 0 W/m² 14,3 °C 16,3 °C 0,0 km/h (0 Bft)
29.07.2018 03:36 16,3 °C 88 % 1013,3 hPa 0,0 mm 1,5 km/h (1 Bft) N 360 ° 0 min 0,000 mm 0,0 UV-I 0 W/m² 14,3 °C 16,3 °C 4,8 km/h (1 Bft)
29.07.2018 03:37 16,4 °C 88 % 1013,3 hPa 0,0 mm 1,1 km/h (1 Bft) N-NW 343 ° 0 min 0,000 mm 0,0 UV-I 0 W/m² 14,4 °C 16,4 °C 4,8 km/h (1 Bft)
29.07.2018 03:38 16,4 °C 88 % 1013,3 hPa 0,0 mm 0,0 km/h (0 Bft) N-NW 343 ° 0 min 0,000 mm 0,0 UV-I 0 W/m² 14,4 °C 16,4 °C 0,0 km/h (0 Bft)
29.07.2018 03:39 16,3 °C 88 % 1013,3 hPa 0,0 mm 1,3 km/h (1 Bft) N-NW 344 ° 0 min 0,000 mm 0,0 UV-I 0 W/m² 14,3 °C 16,3 °C 3,2 km/h (1 Bft)
29.07.2018 03:40 16,4 °C 88 % 1013,3 hPa 0,0 mm 0,1 km/h (0 Bft) N-NW 345 ° 0 min 0,000 mm 0,0 UV-I 0 W/m² 14,4 °C 16,4 °C 1,6 km/h (1 Bft)
29.07.2018 03:41 16,4 °C 88 % 1013,3 hPa 0,0 mm 0,0 km/h (0 Bft) N-NW 344 ° 0 min 0,000 mm 0,0 UV-I 0 W/m² 14,4 °C 16,4 °C 0,0 km/h (0 Bft)
29.07.2018 03:42 16,4 °C 88 % 1013,3 hPa 0,0 mm 0,0 km/h (0 Bft) N-NW 345 ° 0 min 0,000 mm 0,0 UV-I 0 W/m² 14,4 °C 16,4 °C 0,0 km/h (0 Bft)
29.07.2018 03:43 16,3 °C 88 % 1013,3 hPa 0,0 mm 1,5 km/h (1 Bft) N-NW 345 ° 0 min 0,000 mm 0,0 UV-I 0 W/m² 14,3 °C 16,3 °C 3,2 km/h (1 Bft)
29.07.2018 03:44 16,3 °C 88 % 1013,3 hPa 0,0 mm 0,7 km/h (0 Bft) N-NW 345 ° 0 min 0,000 mm 0,0 UV-I 0 W/m² 14,3 °C 16,3 °C 1,6 km/h (1 Bft)
29.07.2018 03:45 16,3 °C 88 % 1013,3 hPa 0,0 mm 0,0 km/h (0 Bft) N-NW 344 ° 0 min 0,000 mm 0,0 UV-I 0 W/m² 14,3 °C 16,3 °C 0,0 km/h (0 Bft)
29.07.2018 03:46 16,3 °C 88 % 1013,3 hPa 0,0 mm 0,0 km/h (0 Bft) N-NW 344 ° 0 min 0,000 mm 0,0 UV-I 0 W/m² 14,3 °C 16,3 °C 0,0 km/h (0 Bft)
29.07.2018 03:47 16,3 °C 88 % 1013,3 hPa 0,0 mm 0,0 km/h (0 Bft) N-NW 345 ° 0 min 0,000 mm 0,0 UV-I 0 W/m² 14,3 °C 16,3 °C 0,0 km/h (0 Bft)
29.07.2018 03:48 16,2 °C 88 % 1013,3 hPa 0,0 mm 0,0 km/h (0 Bft) N-NW 345 ° 0 min 0,000 mm 0,0 UV-I 0 W/m² 14,2 °C 16,2 °C 0,0 km/h (0 Bft)
29.07.2018 03:49 16,2 °C 88 % 1013,3 hPa 0,0 mm 0,0 km/h (0 Bft) N-NW 344 ° 0 min 0,000 mm 0,0 UV-I 0 W/m² 14,2 °C 16,2 °C 0,0 km/h (0 Bft)
29.07.2018 03:50 16,2 °C 88 % 1013,2 hPa 0,0 mm 0,8 km/h (0 Bft) N-NW 345 ° 0 min 0,000 mm 0,0 UV-I 0 W/m² 14,2 °C 16,2 °C 3,2 km/h (1 Bft)
29.07.2018 03:51 16,2 °C 88 % 1013,2 hPa 0,0 mm 0,4 km/h (0 Bft) N-NW 344 ° 0 min 0,000 mm 0,0 UV-I 0 W/m² 14,2 °C 16,2 °C 1,6 km/h (1 Bft)
29.07.2018 03:52 16,2 °C 89 % 1013,2 hPa 0,0 mm 0,0 km/h (0 Bft) N-NW 345 ° 0 min 0,000 mm 0,0 UV-I 0 W/m² 14,4 °C 16,2 °C 0,0 km/h (0 Bft)
29.07.2018 03:53 16,2 °C 89 % 1013,2 hPa 0,0 mm 0,0 km/h (0 Bft) N-NW 344 ° 0 min 0,000 mm 0,0 UV-I 0 W/m² 14,4 °C 16,2 °C 0,0 km/h (0 Bft)
29.07.2018 03:54 16,2 °C 89 % 1013,2 hPa 0,0 mm 0,3 km/h (0 Bft) N-NW 345 ° 0 min 0,000 mm 0,0 UV-I 0 W/m² 14,4 °C 16,2 °C 1,6 km/h (1 Bft)
29.07.2018 03:55 16,1 °C 89 % 1013,2 hPa 0,0 mm 0,0 km/h (0 Bft) N-NW 344 ° 0 min 0,000 mm 0,0 UV-I 0 W/m² 14,3 °C 16,1 °C 0,0 km/h (0 Bft)
29.07.2018 03:56 16,1 °C 89 % 1013,2 hPa 0,0 mm 0,0 km/h (0 Bft) N-NW 345 ° 0 min 0,000 mm 0,0 UV-I 0 W/m² 14,3 °C 16,1 °C 0,0 km/h (0 Bft)
29.07.2018 03:57 16,1 °C 89 % 1013,2 hPa 0,0 mm 0,2 km/h (0 Bft) N-NW 344 ° 0 min 0,000 mm 0,0 UV-I 0 W/m² 14,3 °C 16,1 °C 1,6 km/h (1 Bft)
29.07.2018 03:58 16,1 °C 89 % 1013,2 hPa 0,0 mm 0,0 km/h (0 Bft) N-NW 345 ° 0 min 0,000 mm 0,0 UV-I 0 W/m² 14,3 °C 16,1 °C 0,0 km/h (0 Bft)
29.07.2018 03:59 16,1 °C 89 % 1013,2 hPa 0,0 mm 0,0 km/h (0 Bft) N-NW 345 ° 0 min 0,000 mm 0,0 UV-I 0 W/m² 14,3 °C 16,1 °C 0,0 km/h (0 Bft)
29.07.2018 04:00 16,1 °C 89 % 1013,3 hPa 0,0 mm 0,2 km/h (0 Bft) N-NW 345 ° 0 min 0,000 mm 0,0 UV-I 0 W/m² 14,3 °C 16,1 °C 1,6 km/h (1 Bft)
29.07.2018 04:01 16,1 °C 88 % 1013,3 hPa 0,0 mm 0,1 km/h (0 Bft) N-NW 345 ° 0 min 0,000 mm 0,0 UV-I 0 W/m² 14,1 °C 16,1 °C 1,6 km/h (1 Bft)
29.07.2018 04:02 16,1 °C 88 % 1013,2 hPa 0,0 mm 0,0 km/h (0 Bft) N-NW 344 ° 0 min 0,000 mm 0,0 UV-I 0 W/m² 14,1 °C 16,1 °C 0,0 km/h (0 Bft)
29.07.2018 04:03 16,2 °C 88 % 1013,2 hPa 0,0 mm 0,0 km/h (0 Bft) N-NW 344 ° 0 min 0,000 mm 0,0 UV-I 0 W/m² 14,2 °C 16,2 °C 0,0 km/h (0 Bft)
29.07.2018 04:04 16,1 °C 88 % 1013,1 hPa 0,0 mm 0,0 km/h (0 Bft) N-NW 345 ° 0 min 0,000 mm 0,0 UV-I 0 W/m² 14,1 °C 16,1 °C 0,0 km/h (0 Bft)
29.07.2018 04:05 16,2 °C 89 % 1013,2 hPa 0,0 mm 0,0 km/h (0 Bft) N-NW 344 ° 0 min 0,000 mm 0,0 UV-I 0 W/m² 14,4 °C 16,2 °C 0,0 km/h (0 Bft)
29.07.2018 04:06 16,1 °C 89 % 1013,2 hPa 0,0 mm 0,0 km/h (0 Bft) N-NW 345 ° 0 min 0,000 mm 0,0 UV-I 0 W/m² 14,3 °C 16,1 °C 0,0 km/h (0 Bft)
29.07.2018 04:07 16,1 °C 88 % 1013,1 hPa 0,0 mm 0,0 km/h (0 Bft) N-NW 344 ° 0 min 0,000 mm 0,0 UV-I 0 W/m² 14,1 °C 16,1 °C 0,0 km/h (0 Bft)
29.07.2018 04:08 16,1 °C 88 % 1013,1 hPa 0,0 mm 0,0 km/h (0 Bft) N-NW 345 ° 0 min 0,000 mm 0,0 UV-I 0 W/m² 14,1 °C 16,1 °C 0,0 km/h (0 Bft)
29.07.2018 04:09 16,1 °C 88 % 1013,1 hPa 0,0 mm 0,0 km/h (0 Bft) N-NW 345 ° 0 min 0,000 mm 0,0 UV-I 0 W/m² 14,1 °C 16,1 °C 0,0 km/h (0 Bft)
29.07.2018 04:10 16,2 °C 88 % 1013,1 hPa 0,0 mm 0,0 km/h (0 Bft) N-NW 345 ° 0 min 0,000 mm 0,0 UV-I 0 W/m² 14,2 °C 16,2 °C 0,0 km/h (0 Bft)
29.07.2018 04:11 16,1 °C 88 % 1013,1 hPa 0,0 mm 0,0 km/h (0 Bft) N-NW 345 ° 0 min 0,000 mm 0,0 UV-I 0 W/m² 14,1 °C 16,1 °C 0,0 km/h (0 Bft)
29.07.2018 04:12 16,1 °C 88 % 1013,1 hPa 0,0 mm 0,0 km/h (0 Bft) N-NW 345 ° 0 min 0,000 mm 0,0 UV-I 0 W/m² 14,1 °C 16,1 °C 0,0 km/h (0 Bft)
29.07.2018 04:13 16,1 °C 88 % 1013,1 hPa 0,0 mm 0,0 km/h (0 Bft) N-NW 345 ° 0 min 0,000 mm 0,0 UV-I 0 W/m² 14,1 °C 16,1 °C 0,0 km/h (0 Bft)
29.07.2018 04:14 16,1 °C 88 % 1013,1 hPa 0,0 mm 0,2 km/h (0 Bft) N-NW 345 ° 0 min 0,000 mm 0,0 UV-I 0 W/m² 14,1 °C 16,1 °C 1,6 km/h (1 Bft)
29.07.2018 04:15 16,1 °C 88 % 1013,1 hPa 0,0 mm 0,0 km/h (0 Bft) N-NW 345 ° 0 min 0,000 mm 0,0 UV-I 0 W/m² 14,1 °C 16,1 °C 0,0 km/h (0 Bft)
29.07.2018 04:16 16,1 °C 88 % 1013,1 hPa 0,0 mm 0,0 km/h (0 Bft) N-NW 345 ° 0 min 0,000 mm 0,0 UV-I 0 W/m² 14,1 °C 16,1 °C 0,0 km/h (0 Bft)
29.07.2018 04:17 16,1 °C 88 % 1013,1 hPa 0,0 mm 0,0 km/h (0 Bft) N-NW 345 ° 0 min 0,000 mm 0,0 UV-I 0 W/m² 14,1 °C 16,1 °C 0,0 km/h (0 Bft)
29.07.2018 04:18 16,1 °C 88 % 1013,1 hPa 0,0 mm 0,0 km/h (0 Bft) N-NW 345 ° 0 min 0,000 mm 0,0 UV-I 0 W/m² 14,1 °C 16,1 °C 0,0 km/h (0 Bft)
29.07.2018 04:19 16,1 °C 88 % 1013,1 hPa 0,0 mm 0,0 km/h (0 Bft) N-NW 344 ° 0 min 0,000 mm 0,0 UV-I 0 W/m² 14,1 °C 16,1 °C 0,0 km/h (0 Bft)
29.07.2018 04:20 16,1 °C 88 % 1013,1 hPa 0,0 mm 0,3 km/h (0 Bft) N-NW 345 ° 0 min 0,000 mm 0,0 UV-I 0 W/m² 14,1 °C 16,1 °C 1,6 km/h (1 Bft)
29.07.2018 04:21 16,2 °C 88 % 1013,1 hPa 0,0 mm 0,3 km/h (0 Bft) N-NW 344 ° 0 min 0,000 mm 0,0 UV-I 0 W/m² 14,2 °C 16,2 °C 1,6 km/h (1 Bft)
29.07.2018 04:22 16,2 °C 88 % 1013,1 hPa 0,0 mm 0,3 km/h (0 Bft) N-NW 345 ° 0 min 0,000 mm 0,0 UV-I 0 W/m² 14,2 °C 16,2 °C 1,6 km/h (1 Bft)
29.07.2018 04:23 16,2 °C 88 % 1013,1 hPa 0,0 mm 0,0 km/h (0 Bft) N-NW 345 ° 0 min 0,000 mm 0,0 UV-I 0 W/m² 14,2 °C 16,2 °C 0,0 km/h (0 Bft)
29.07.2018 04:24 16,1 °C 88 % 1013,1 hPa 0,0 mm 0,0 km/h (0 Bft) N-NW 345 ° 0 min 0,000 mm 0,0 UV-I 0 W/m² 14,1 °C 16,1 °C 0,0 km/h (0 Bft)
29.07.2018 04:25 16,1 °C 88 % 1013,1 hPa 0,0 mm 1,0 km/h (0 Bft) N-NW 345 ° 0 min 0,000 mm 0,0 UV-I 0 W/m² 14,1 °C 16,1 °C 3,2 km/h (1 Bft)
29.07.2018 04:26 16,1 °C 89 % 1013,1 hPa 0,0 mm 0,0 km/h (0 Bft) N-NW 345 ° 0 min 0,000 mm 0,0 UV-I 0 W/m² 14,3 °C 16,1 °C 0,0 km/h (0 Bft)
29.07.2018 04:27 16,1 °C 89 % 1013,1 hPa 0,0 mm 0,0 km/h (0 Bft) N-NW 345 ° 0 min 0,000 mm 0,0 UV-I 0 W/m² 14,3 °C 16,1 °C 0,0 km/h (0 Bft)
29.07.2018 04:28 16,1 °C 89 % 1013,1 hPa 0,0 mm 0,0 km/h (0 Bft) N-NW 345 ° 0 min 0,000 mm 0,0 UV-I 0 W/m² 14,3 °C 16,1 °C 0,0 km/h (0 Bft)
29.07.2018 04:29 16,1 °C 89 % 1013,1 hPa 0,0 mm 0,0 km/h (0 Bft) N-NW 345 ° 0 min 0,000 mm 0,0 UV-I 0 W/m² 14,3 °C 16,1 °C 0,0 km/h (0 Bft)
29.07.2018 04:30 16,1 °C 89 % 1013,1 hPa 0,0 mm 0,0 km/h (0 Bft) N-NW 345 ° 0 min 0,000 mm 0,0 UV-I 0 W/m² 14,3 °C 16,1 °C 0,0 km/h (0 Bft)
29.07.2018 04:31 16,1 °C 89 % 1013,0 hPa 0,0 mm 0,0 km/h (0 Bft) N-NW 345 ° 0 min 0,000 mm 0,0 UV-I 0 W/m² 14,3 °C 16,1 °C 0,0 km/h (0 Bft)
29.07.2018 04:32 16,1 °C 89 % 1013,0 hPa 0,0 mm 0,0 km/h (0 Bft) N-NW 344 ° 0 min 0,000 mm 0,0 UV-I 0 W/m² 14,3 °C 16,1 °C 0,0 km/h (0 Bft)
29.07.2018 04:33 16,1 °C 89 % 1013,0 hPa 0,0 mm 0,0 km/h (0 Bft) N-NW 345 ° 0 min 0,000 mm 0,0 UV-I 0 W/m² 14,3 °C 16,1 °C 0,0 km/h (0 Bft)
29.07.2018 04:34 16,1 °C 88 % 1013,0 hPa 0,0 mm 0,0 km/h (0 Bft) N-NW 345 ° 0 min 0,000 mm 0,0 UV-I 0 W/m² 14,1 °C 16,1 °C 0,0 km/h (0 Bft)
29.07.2018 04:35 16,1 °C 88 % 1013,0 hPa 0,0 mm 0,0 km/h (0 Bft) N-NW 345 ° 0 min 0,000 mm 0,0 UV-I 0 W/m² 14,1 °C 16,1 °C 0,0 km/h (0 Bft)
29.07.2018 04:36 16,1 °C 88 % 1013,0 hPa 0,0 mm 0,6 km/h (0 Bft) N-NW 345 ° 0 min 0,000 mm 0,0 UV-I 0 W/m² 14,1 °C 16,1 °C 3,2 km/h (1 Bft)
29.07.2018 04:37 16,1 °C 88 % 1013,0 hPa 0,0 mm 0,7 km/h (0 Bft) N-NW 345 ° 0 min 0,000 mm 0,0 UV-I 0 W/m² 14,1 °C 16,1 °C 3,2 km/h (1 Bft)
29.07.2018 04:38 16,2 °C 88 % 1013,0 hPa 0,0 mm 0,0 km/h (0 Bft) N-NW 345 ° 0 min 0,000 mm 0,0 UV-I 0 W/m² 14,2 °C 16,2 °C 0,0 km/h (0 Bft)
29.07.2018 04:39 16,2 °C 88 % 1012,9 hPa 0,0 mm 0,0 km/h (0 Bft) N-NW 345 ° 0 min 0,000 mm 0,0 UV-I 0 W/m² 14,2 °C 16,2 °C 0,0 km/h (0 Bft)
29.07.2018 04:40 16,2 °C 88 % 1012,9 hPa 0,0 mm 0,4 km/h (0 Bft) N-NW 344 ° 0 min 0,000 mm 0,0 UV-I 0 W/m² 14,2 °C 16,2 °C 1,6 km/h (1 Bft)
29.07.2018 04:41 16,2 °C 88 % 1013,0 hPa 0,0 mm 0,1 km/h (0 Bft) N-NW 345 ° 0 min 0,000 mm 0,0 UV-I 0 W/m² 14,2 °C 16,2 °C 1,6 km/h (1 Bft)
29.07.2018 04:42 16,2 °C 88 % 1013,0 hPa 0,0 mm 0,0 km/h (0 Bft) N-NW 345 ° 0 min 0,000 mm 0,0 UV-I 0 W/m² 14,2 °C 16,2 °C 0,0 km/h (0 Bft)
29.07.2018 04:43 16,2 °C 88 % 1013,0 hPa 0,0 mm 0,0 km/h (0 Bft) N-NW 345 ° 0 min 0,000 mm 0,0 UV-I 0 W/m² 14,2 °C 16,2 °C 0,0 km/h (0 Bft)
29.07.2018 04:44 16,2 °C 88 % 1013,0 hPa 0,0 mm 0,0 km/h (0 Bft) N-NW 345 ° 0 min 0,000 mm 0,0 UV-I 0 W/m² 14,2 °C 16,2 °C 0,0 km/h (0 Bft)
29.07.2018 04:45 16,2 °C 88 % 1013,0 hPa 0,0 mm 0,0 km/h (0 Bft) N-NW 345 ° 0 min 0,000 mm 0,0 UV-I 0 W/m² 14,2 °C 16,2 °C 0,0 km/h (0 Bft)
29.07.2018 04:46 16,2 °C 88 % 1013,0 hPa 0,0 mm 0,1 km/h (0 Bft) N-NW 345 ° 0 min 0,000 mm 0,0 UV-I 0 W/m² 14,2 °C 16,2 °C 1,6 km/h (1 Bft)
29.07.2018 04:47 16,2 °C 88 % 1013,0 hPa 0,0 mm 0,7 km/h (0 Bft) N-NW 344 ° 0 min 0,000 mm 0,0 UV-I 0 W/m² 14,2 °C 16,2 °C 1,6 km/h (1 Bft)
29.07.2018 04:48 16,2 °C 88 % 1013,0 hPa 0,0 mm 0,0 km/h (0 Bft) N-NW 344 ° 0 min 0,000 mm 0,0 UV-I 0 W/m² 14,2 °C 16,2 °C 0,0 km/h (0 Bft)
29.07.2018 04:49 16,2 °C 88 % 1013,0 hPa 0,0 mm 0,0 km/h (0 Bft) N-NW 345 ° 0 min 0,000 mm 0,0 UV-I 0 W/m² 14,2 °C 16,2 °C 0,0 km/h (0 Bft)
29.07.2018 04:50 16,2 °C 87 % 1013,0 hPa 0,0 mm 0,0 km/h (0 Bft) N-NW 345 ° 0 min 0,000 mm 0,0 UV-I 0 W/m² 14,0 °C 16,2 °C 0,0 km/h (0 Bft)
29.07.2018 04:51 16,2 °C 88 % 1013,0 hPa 0,0 mm 0,0 km/h (0 Bft) N-NW 345 ° 0 min 0,000 mm 0,0 UV-I 0 W/m² 14,2 °C 16,2 °C 0,0 km/h (0 Bft)
29.07.2018 04:52 16,2 °C 88 % 1013,0 hPa 0,0 mm 0,0 km/h (0 Bft) N-NW 344 ° 0 min 0,000 mm 0,0 UV-I 0 W/m² 14,2 °C 16,2 °C 0,0 km/h (0 Bft)
29.07.2018 04:53 16,2 °C 88 % 1013,0 hPa 0,0 mm 0,5 km/h (0 Bft) N-NW 345 ° 0 min 0,000 mm 0,0 UV-I 0 W/m² 14,2 °C 16,2 °C 3,2 km/h (1 Bft)
29.07.2018 04:54 16,2 °C 88 % 1013,0 hPa 0,0 mm 1,0 km/h (0 Bft) N-NW 345 ° 0 min 0,000 mm 0,0 UV-I 0 W/m² 14,2 °C 16,2 °C 1,6 km/h (1 Bft)
29.07.2018 04:55 16,2 °C 88 % 1013,0 hPa 0,0 mm 0,0 km/h (0 Bft) N-NW 345 ° 0 min 0,000 mm 0,0 UV-I 0 W/m² 14,2 °C 16,2 °C 0,0 km/h (0 Bft)
29.07.2018 04:56 16,1 °C 88 % 1013,0 hPa 0,0 mm 1,2 km/h (1 Bft) N-NW 345 ° 0 min 0,000 mm 0,0 UV-I 0 W/m² 14,1 °C 16,1 °C 4,8 km/h (1 Bft)
29.07.2018 04:57 16,2 °C 88 % 1013,0 hPa 0,0 mm 0,1 km/h (0 Bft) N-NW 345 ° 0 min 0,000 mm 0,0 UV-I 0 W/m² 14,2 °C 16,2 °C 1,6 km/h (1 Bft)
29.07.2018 04:58 16,2 °C 88 % 1013,0 hPa 0,0 mm 0,1 km/h (0 Bft) N-NW 345 ° 0 min 0,000 mm 0,0 UV-I 0 W/m² 14,2 °C 16,2 °C 1,6 km/h (1 Bft)
29.07.2018 04:59 16,2 °C 88 % 1013,0 hPa 0,0 mm 0,0 km/h (0 Bft) N-NW 345 ° 0 min 0,000 mm 0,0 UV-I 0 W/m² 14,2 °C 16,2 °C 0,0 km/h (0 Bft)
29.07.2018 05:00 16,1 °C 88 % 1013,1 hPa 0,0 mm 0,6 km/h (0 Bft) N-NW 345 ° 0 min 0,000 mm 0,0 UV-I 0 W/m² 14,1 °C 16,1 °C 1,6 km/h (1 Bft)
29.07.2018 05:01 16,1 °C 88 % 1013,2 hPa 0,0 mm 0,0 km/h (0 Bft) N-NW 345 ° 0 min 0,000 mm 0,0 UV-I 0 W/m² 14,1 °C 16,1 °C 0,0 km/h (0 Bft)
29.07.2018 05:02 16,1 °C 88 % 1013,2 hPa 0,0 mm 0,0 km/h (0 Bft) N-NW 344 ° 0 min 0,000 mm 0,0 UV-I 0 W/m² 14,1 °C 16,1 °C 0,0 km/h (0 Bft)
29.07.2018 05:03 16,2 °C 88 % 1013,1 hPa 0,0 mm 0,8 km/h (0 Bft) N-NW 345 ° 0 min 0,000 mm 0,0 UV-I 0 W/m² 14,2 °C 16,2 °C 3,2 km/h (1 Bft)
29.07.2018 05:04 16,1 °C 88 % 1013,1 hPa 0,0 mm 0,2 km/h (0 Bft) N-NW 345 ° 0 min 0,000 mm 0,0 UV-I 0 W/m² 14,1 °C 16,1 °C 1,6 km/h (1 Bft)
29.07.2018 05:05 16,2 °C 88 % 1013,1 hPa 0,0 mm 0,7 km/h (0 Bft) N-NW 345 ° 0 min 0,000 mm 0,0 UV-I 0 W/m² 14,2 °C 16,2 °C 3,2 km/h (1 Bft)
29.07.2018 05:06 16,1 °C 88 % 1013,1 hPa 0,0 mm 0,2 km/h (0 Bft) N-NW 345 ° 0 min 0,000 mm 0,0 UV-I 0 W/m² 14,1 °C 16,1 °C 1,6 km/h (1 Bft)
29.07.2018 05:07 16,1 °C 88 % 1013,1 hPa 0,0 mm 1,6 km/h (1 Bft) N-NW 345 ° 0 min 0,000 mm 0,0 UV-I 0 W/m² 14,1 °C 16,1 °C 3,2 km/h (1 Bft)
29.07.2018 05:08 16,2 °C 88 % 1013,1 hPa 0,0 mm 0,1 km/h (0 Bft) N-NW 345 ° 0 min 0,000 mm 0,0 UV-I 0 W/m² 14,2 °C 16,2 °C 1,6 km/h (1 Bft)
29.07.2018 05:09 16,2 °C 88 % 1013,1 hPa 0,0 mm 0,1 km/h (0 Bft) N-NW 345 ° 0 min 0,000 mm 0,0 UV-I 0 W/m² 14,2 °C 16,2 °C 1,6 km/h (1 Bft)
29.07.2018 05:10 16,2 °C 87 % 1013,1 hPa 0,0 mm 0,0 km/h (0 Bft) N-NW 345 ° 0 min 0,000 mm 0,0 UV-I 0 W/m² 14,0 °C 16,2 °C 0,0 km/h (0 Bft)
29.07.2018 05:11 16,1 °C 88 % 1013,1 hPa 0,0 mm 0,4 km/h (0 Bft) N-NW 345 ° 0 min 0,000 mm 0,0 UV-I 0 W/m² 14,1 °C 16,1 °C 1,6 km/h (1 Bft)
29.07.2018 05:12 16,1 °C 88 % 1013,2 hPa 0,0 mm 0,2 km/h (0 Bft) N-NW 345 ° 0 min 0,000 mm 0,0 UV-I 0 W/m² 14,1 °C 16,1 °C 1,6 km/h (1 Bft)
29.07.2018 05:13 16,1 °C 88 % 1013,2 hPa 0,0 mm 0,0 km/h (0 Bft) N-NW 345 ° 0 min 0,000 mm 0,0 UV-I 0 W/m² 14,1 °C 16,1 °C 0,0 km/h (0 Bft)
29.07.2018 05:14 16,1 °C 88 % 1013,2 hPa 0,0 mm 0,0 km/h (0 Bft) N-NW 345 ° 0 min 0,000 mm 0,0 UV-I 0 W/m² 14,1 °C 16,1 °C 0,0 km/h (0 Bft)
29.07.2018 05:15 16,1 °C 88 % 1013,2 hPa 0,0 mm 0,0 km/h (0 Bft) N-NW 345 ° 0 min 0,000 mm 0,0 UV-I 0 W/m² 14,1 °C 16,1 °C 0,0 km/h (0 Bft)
29.07.2018 05:16 16,1 °C 88 % 1013,2 hPa 0,0 mm 0,0 km/h (0 Bft) N-NW 345 ° 0 min 0,000 mm 0,0 UV-I 0 W/m² 14,1 °C 16,1 °C 0,0 km/h (0 Bft)
29.07.2018 05:17 16,1 °C 88 % 1013,2 hPa 0,0 mm 0,0 km/h (0 Bft) N-NW 345 ° 0 min 0,000 mm 0,0 UV-I 0 W/m² 14,1 °C 16,1 °C 0,0 km/h (0 Bft)
29.07.2018 05:18 16,1 °C 88 % 1013,2 hPa 0,0 mm 0,0 km/h (0 Bft) N-NW 345 ° 0 min 0,000 mm 0,0 UV-I 0 W/m² 14,1 °C 16,1 °C 0,0 km/h (0 Bft)
29.07.2018 05:19 16,1 °C 88 % 1013,2 hPa 0,0 mm 0,0 km/h (0 Bft) N-NW 345 ° 0 min 0,000 mm 0,0 UV-I 0 W/m² 14,1 °C 16,1 °C 0,0 km/h (0 Bft)
29.07.2018 05:20 16,2 °C 87 % 1013,2 hPa 0,0 mm 0,0 km/h (0 Bft) N-NW 345 ° 0 min 0,000 mm 0,0 UV-I 0 W/m² 14,0 °C 16,2 °C 0,0 km/h (0 Bft)
29.07.2018 05:21 16,2 °C 87 % 1013,2 hPa 0,0 mm 0,0 km/h (0 Bft) N-NW 345 ° 0 min 0,000 mm 0,0 UV-I 0 W/m² 14,0 °C 16,2 °C 0,0 km/h (0 Bft)
29.07.2018 05:22 16,2 °C 87 % 1013,2 hPa 0,0 mm 1,1 km/h (1 Bft) N-NW 345 ° 0 min 0,000 mm 0,0 UV-I 0 W/m² 14,0 °C 16,2 °C 1,6 km/h (1 Bft)
29.07.2018 05:23 16,2 °C 87 % 1013,2 hPa 0,0 mm 0,1 km/h (0 Bft) N-NW 345 ° 0 min 0,000 mm 0,0 UV-I 0 W/m² 14,0 °C 16,2 °C 1,6 km/h (1 Bft)
29.07.2018 05:24 16,2 °C 87 % 1013,2 hPa 0,0 mm 0,0 km/h (0 Bft) N-NW 345 ° 0 min 0,000 mm 0,0 UV-I 0 W/m² 14,0 °C 16,2 °C 0,0 km/h (0 Bft)
29.07.2018 05:25 16,2 °C 88 % 1013,2 hPa 0,0 mm 0,0 km/h (0 Bft) N-NW 345 ° 0 min 0,000 mm 0,0 UV-I 0 W/m² 14,2 °C 16,2 °C 0,0 km/h (0 Bft)
29.07.2018 05:26 16,2 °C 88 % 1013,2 hPa 0,0 mm 0,0 km/h (0 Bft) N-NW 345 ° 0 min 0,000 mm 0,0 UV-I 0 W/m² 14,2 °C 16,2 °C 0,0 km/h (0 Bft)
29.07.2018 05:27 16,2 °C 87 % 1013,3 hPa 0,0 mm 0,0 km/h (0 Bft) N-NW 345 ° 0 min 0,000 mm 0,0 UV-I 0 W/m² 14,0 °C 16,2 °C 0,0 km/h (0 Bft)
29.07.2018 05:28 16,1 °C 88 % 1013,2 hPa 0,0 mm 0,0 km/h (0 Bft) N-NW 345 ° 0 min 0,000 mm 0,0 UV-I 0 W/m² 14,1 °C 16,1 °C 0,0 km/h (0 Bft)
29.07.2018 05:29 16,1 °C 88 % 1013,2 hPa 0,0 mm 0,0 km/h (0 Bft) N-NW 345 ° 0 min 0,000 mm 0,0 UV-I 0 W/m² 14,1 °C 16,1 °C 0,0 km/h (0 Bft)
29.07.2018 05:30 16,2 °C 87 % 1013,2 hPa 0,0 mm 0,0 km/h (0 Bft) N-NW 345 ° 0 min 0,000 mm 0,0 UV-I 0 W/m² 14,0 °C 16,2 °C 0,0 km/h (0 Bft)
29.07.2018 05:31 16,2 °C 87 % 1013,3 hPa 0,0 mm 0,0 km/h (0 Bft) N-NW 345 ° 0 min 0,000 mm 0,0 UV-I 0 W/m² 14,0 °C 16,2 °C 0,0 km/h (0 Bft)
29.07.2018 05:32 16,2 °C 87 % 1013,3 hPa 0,0 mm 1,3 km/h (1 Bft) N-NW 345 ° 0 min 0,000 mm 0,0 UV-I 0 W/m² 14,0 °C 16,2 °C 4,8 km/h (1 Bft)
29.07.2018 05:33 16,3 °C 87 % 1013,3 hPa 0,0 mm 0,8 km/h (0 Bft) N-NW 345 ° 0 min 0,000 mm 0,0 UV-I 0 W/m² 14,1 °C 16,3 °C 3,2 km/h (1 Bft)
29.07.2018 05:34 16,3 °C 87 % 1013,3 hPa 0,0 mm 0,1 km/h (0 Bft) N-NW 345 ° 0 min 0,000 mm 0,0 UV-I 0 W/m² 14,1 °C 16,3 °C 1,6 km/h (1 Bft)
29.07.2018 05:35 16,3 °C 87 % 1013,2 hPa 0,0 mm 0,0 km/h (0 Bft) N-NW 345 ° 0 min 0,000 mm 0,0 UV-I 0 W/m² 14,1 °C 16,3 °C 0,0 km/h (0 Bft)
29.07.2018 05:36 16,3 °C 87 % 1013,2 hPa 0,0 mm 0,0 km/h (0 Bft) N-NW 345 ° 0 min 0,000 mm 0,0 UV-I 0 W/m² 14,1 °C 16,3 °C 0,0 km/h (0 Bft)
29.07.2018 05:37 16,3 °C 87 % 1013,2 hPa 0,0 mm 0,0 km/h (0 Bft) N-NW 345 ° 0 min 0,000 mm 0,0 UV-I 0 W/m² 14,1 °C 16,3 °C 0,0 km/h (0 Bft)
29.07.2018 05:38 16,3 °C 87 % 1013,2 hPa 0,0 mm 0,3 km/h (0 Bft) N-NW 345 ° 0 min 0,000 mm 0,0 UV-I 0 W/m² 14,1 °C 16,3 °C 1,6 km/h (1 Bft)
29.07.2018 05:39 16,3 °C 87 % 1013,3 hPa 0,0 mm 3,5 km/h (1 Bft) W-NW 291 ° 0 min 0,000 mm 0,0 UV-I 0 W/m² 14,1 °C 16,3 °C 6,4 km/h (2 Bft)
29.07.2018 05:40 16,3 °C 87 % 1013,3 hPa 0,0 mm 0,1 km/h (0 Bft) W-NW 291 ° 0 min 0,000 mm 0,0 UV-I 0 W/m² 14,1 °C 16,3 °C 1,6 km/h (1 Bft)
29.07.2018 05:41 16,3 °C 86 % 1013,2 hPa 0,0 mm 0,0 km/h (0 Bft) W-NW 291 ° 0 min 0,000 mm 0,0 UV-I 0 W/m² 14,0 °C 16,3 °C 0,0 km/h (0 Bft)
29.07.2018 05:42 16,3 °C 87 % 1013,2 hPa 0,0 mm 0,0 km/h (0 Bft) W-NW 291 ° 0 min 0,000 mm 0,0 UV-I 0 W/m² 14,1 °C 16,3 °C 0,0 km/h (0 Bft)
29.07.2018 05:43 16,3 °C 86 % 1013,2 hPa 0,0 mm 0,0 km/h (0 Bft) W-NW 291 ° 0 min 0,000 mm 0,0 UV-I 0 W/m² 14,0 °C 16,3 °C 0,0 km/h (0 Bft)
29.07.2018 05:44 16,3 °C 86 % 1013,2 hPa 0,0 mm 0,0 km/h (0 Bft) W-NW 291 ° 0 min 0,000 mm 0,0 UV-I 0 W/m² 14,0 °C 16,3 °C 0,0 km/h (0 Bft)
29.07.2018 05:45 16,3 °C 86 % 1013,3 hPa 0,0 mm 0,0 km/h (0 Bft) W-NW 291 ° 0 min 0,000 mm 0,0 UV-I 0 W/m² 14,0 °C 16,3 °C 0,0 km/h (0 Bft)
29.07.2018 05:46 16,4 °C 86 % 1013,3 hPa 0,0 mm 0,0 km/h (0 Bft) W-NW 291 ° 0 min 0,000 mm 0,0 UV-I 0 W/m² 14,1 °C 16,4 °C 0,0 km/h (0 Bft)
29.07.2018 05:47 16,3 °C 86 % 1013,2 hPa 0,0 mm 0,0 km/h (0 Bft) W-NW 291 ° 0 min 0,000 mm 0,0 UV-I 0 W/m² 14,0 °C 16,3 °C 0,0 km/h (0 Bft)
29.07.2018 05:48 16,3 °C 86 % 1013,3 hPa 0,0 mm 0,0 km/h (0 Bft) W-NW 291 ° 0 min 0,000 mm 0,0 UV-I 0 W/m² 14,0 °C 16,3 °C 0,0 km/h (0 Bft)
29.07.2018 05:49 16,3 °C 86 % 1013,3 hPa 0,0 mm 0,0 km/h (0 Bft) W-NW 291 ° 0 min 0,000 mm 0,0 UV-I 0 W/m² 14,0 °C 16,3 °C 0,0 km/h (0 Bft)
29.07.2018 05:50 16,3 °C 86 % 1013,3 hPa 0,0 mm 0,0 km/h (0 Bft) W-NW 291 ° 0 min 0,000 mm 0,0 UV-I 0 W/m² 14,0 °C 16,3 °C 0,0 km/h (0 Bft)
29.07.2018 05:51 16,3 °C 86 % 1013,3 hPa 0,0 mm 0,3 km/h (0 Bft) W-NW 291 ° 0 min 0,000 mm 0,0 UV-I 0 W/m² 14,0 °C 16,3 °C 1,6 km/h (1 Bft)
29.07.2018 05:52 16,2 °C 87 % 1013,3 hPa 0,0 mm 0,0 km/h (0 Bft) W-NW 291 ° 0 min 0,000 mm 0,0 UV-I 0 W/m² 14,0 °C 16,2 °C 0,0 km/h (0 Bft)
29.07.2018 05:53 16,2 °C 87 % 1013,3 hPa 0,0 mm 0,0 km/h (0 Bft) W-NW 291 ° 0 min 0,000 mm 0,0 UV-I 0 W/m² 14,0 °C 16,2 °C 0,0 km/h (0 Bft)
29.07.2018 05:54 16,2 °C 87 % 1013,3 hPa 0,0 mm 0,0 km/h (0 Bft) W-NW 291 ° 0 min 0,000 mm 0,0 UV-I 0 W/m² 14,0 °C 16,2 °C 0,0 km/h (0 Bft)
29.07.2018 05:55 16,2 °C 87 % 1013,2 hPa 0,0 mm 0,2 km/h (0 Bft) W-NW 291 ° 0 min 0,000 mm 0,0 UV-I 0 W/m² 14,0 °C 16,2 °C 1,6 km/h (1 Bft)
29.07.2018 05:56 16,2 °C 87 % 1013,3 hPa 0,0 mm 0,0 km/h (0 Bft) W-NW 296 ° 0 min 0,000 mm 0,0 UV-I 0 W/m² 14,0 °C 16,2 °C 0,0 km/h (0 Bft)
29.07.2018 05:57 16,2 °C 87 % 1013,3 hPa 0,0 mm 0,0 km/h (0 Bft) W-NW 296 ° 0 min 0,000 mm 0,0 UV-I 0 W/m² 14,0 °C 16,2 °C 0,0 km/h (0 Bft)
29.07.2018 05:58 16,2 °C 87 % 1013,2 hPa 0,0 mm 0,4 km/h (0 Bft) N-NO 21 ° 0 min 0,000 mm 0,0 UV-I 0 W/m² 14,0 °C 16,2 °C 3,2 km/h (1 Bft)
29.07.2018 05:59 16,1 °C 87 % 1013,2 hPa 0,0 mm 0,5 km/h (0 Bft) N-NO 21 ° 0 min 0,000 mm 0,0 UV-I 0 W/m² 13,9 °C 16,1 °C 1,6 km/h (1 Bft)
29.07.2018 06:00 16,1 °C 87 % 1013,2 hPa 0,0 mm 0,1 km/h (0 Bft) N-NO 21 ° 0 min 0,000 mm 0,0 UV-I 0 W/m² 13,9 °C 16,1 °C 1,6 km/h (1 Bft)
29.07.2018 06:01 16,1 °C 87 % 1013,3 hPa 0,0 mm 0,0 km/h (0 Bft) N-NO 21 ° 0 min 0,000 mm 0,0 UV-I 0 W/m² 13,9 °C 16,1 °C 0,0 km/h (0 Bft)
29.07.2018 06:02 16,1 °C 87 % 1013,4 hPa 0,0 mm 0,0 km/h (0 Bft) N-NO 21 ° 0 min 0,000 mm 0,0 UV-I 5 W/m² 13,9 °C 16,1 °C 0,0 km/h (0 Bft)
29.07.2018 06:03 16,1 °C 87 % 1013,4 hPa 0,0 mm 0,0 km/h (0 Bft) N-NO 21 ° 0 min 0,000 mm 0,0 UV-I 5 W/m² 13,9 °C 16,1 °C 0,0 km/h (0 Bft)
29.07.2018 06:04 16,1 °C 87 % 1013,3 hPa 0,0 mm 0,0 km/h (0 Bft) N-NO 21 ° 0 min 0,000 mm 0,0 UV-I 5 W/m² 13,9 °C 16,1 °C 0,0 km/h (0 Bft)
29.07.2018 06:05 16,1 °C 87 % 1013,3 hPa 0,0 mm 2,4 km/h (1 Bft) N-NO 20 ° 0 min 0,000 mm 0,0 UV-I 5 W/m² 13,9 °C 16,1 °C 3,2 km/h (1 Bft)
29.07.2018 06:06 16,1 °C 87 % 1013,3 hPa 0,0 mm 0,6 km/h (0 Bft) N-NO 20 ° 0 min 0,000 mm 0,0 UV-I 7 W/m² 13,9 °C 16,1 °C 1,6 km/h (1 Bft)
29.07.2018 06:07 16,2 °C 86 % 1013,4 hPa 0,0 mm 0,0 km/h (0 Bft) N-NO 20 ° 0 min 0,000 mm 0,0 UV-I 7 W/m² 13,9 °C 16,2 °C 0,0 km/h (0 Bft)
29.07.2018 06:08 16,2 °C 86 % 1013,3 hPa 0,0 mm 0,0 km/h (0 Bft) N-NO 20 ° 0 min 0,000 mm 0,0 UV-I 7 W/m² 13,9 °C 16,2 °C 0,0 km/h (0 Bft)
29.07.2018 06:09 16,2 °C 86 % 1013,3 hPa 0,0 mm 0,0 km/h (0 Bft) N-NO 20 ° 0 min 0,000 mm 0,0 UV-I 9 W/m² 13,9 °C 16,2 °C 0,0 km/h (0 Bft)
29.07.2018 06:10 16,2 °C 86 % 1013,4 hPa 0,0 mm 0,0 km/h (0 Bft) N-NO 20 ° 0 min 0,000 mm 0,0 UV-I 9 W/m² 13,9 °C 16,2 °C 0,0 km/h (0 Bft)
29.07.2018 06:11 16,2 °C 86 % 1013,4 hPa 0,0 mm 0,0 km/h (0 Bft) N-NO 20 ° 0 min 0,000 mm 0,0 UV-I 9 W/m² 13,9 °C 16,2 °C 0,0 km/h (0 Bft)
29.07.2018 06:12 16,1 °C 86 % 1013,4 hPa 0,0 mm 0,0 km/h (0 Bft) N-NO 20 ° 0 min 0,000 mm 0,0 UV-I 9 W/m² 13,8 °C 16,1 °C 0,0 km/h (0 Bft)
29.07.2018 06:13 16,0 °C 86 % 1013,3 hPa 0,0 mm 0,0 km/h (0 Bft) N-NO 20 ° 0 min 0,000 mm 0,0 UV-I 11 W/m² 13,7 °C 16,0 °C 0,0 km/h (0 Bft)
29.07.2018 06:14 16,0 °C 86 % 1013,4 hPa 0,0 mm 0,0 km/h (0 Bft) N-NO 20 ° 0 min 0,000 mm 0,0 UV-I 11 W/m² 13,7 °C 16,0 °C 0,0 km/h (0 Bft)
29.07.2018 06:15 15,9 °C 87 % 1013,4 hPa 0,0 mm 0,0 km/h (0 Bft) N-NO 20 ° 0 min 0,000 mm 0,0 UV-I 12 W/m² 13,7 °C 15,9 °C 0,0 km/h (0 Bft)
29.07.2018 06:16 15,9 °C 87 % 1013,3 hPa 0,0 mm 0,0 km/h (0 Bft) N-NO 20 ° 0 min 0,000 mm 0,0 UV-I 12 W/m² 13,7 °C 15,9 °C 0,0 km/h (0 Bft)
29.07.2018 06:17 15,9 °C 87 % 1013,4 hPa 0,0 mm 0,0 km/h (0 Bft) N-NO 20 ° 0 min 0,000 mm 0,0 UV-I 12 W/m² 13,7 °C 15,9 °C 0,0 km/h (0 Bft)
29.07.2018 06:18 15,8 °C 87 % 1013,4 hPa 0,0 mm 0,0 km/h (0 Bft) N-NO 20 ° 0 min 0,000 mm 0,0 UV-I 12 W/m² 13,6 °C 15,8 °C 0,0 km/h (0 Bft)
29.07.2018 06:19 15,8 °C 87 % 1013,4 hPa 0,0 mm 0,0 km/h (0 Bft) N-NO 20 ° 0 min 0,000 mm 0,0 UV-I 12 W/m² 13,6 °C 15,8 °C 0,0 km/h (0 Bft)
29.07.2018 06:20 15,7 °C 87 % 1013,4 hPa 0,0 mm 0,0 km/h (0 Bft) N-NO 20 ° 0 min 0,000 mm 0,0 UV-I 14 W/m² 13,5 °C 15,7 °C 0,0 km/h (0 Bft)
29.07.2018 06:21 15,7 °C 87 % 1013,4 hPa 0,0 mm 0,0 km/h (0 Bft) N-NO 20 ° 0 min 0,000 mm 0,0 UV-I 14 W/m² 13,5 °C 15,7 °C 0,0 km/h (0 Bft)
29.07.2018 06:22 15,7 °C 88 % 1013,4 hPa 0,0 mm 0,0 km/h (0 Bft) N-NO 20 ° 0 min 0,000 mm 0,0 UV-I 14 W/m² 13,7 °C 15,7 °C 0,0 km/h (0 Bft)
29.07.2018 06:23 15,7 °C 88 % 1013,4 hPa 0,0 mm 0,0 km/h (0 Bft) N-NO 20 ° 0 min 0,000 mm 0,0 UV-I 14 W/m² 13,7 °C 15,7 °C 0,0 km/h (0 Bft)
29.07.2018 06:24 15,7 °C 88 % 1013,3 hPa 0,0 mm 0,0 km/h (0 Bft) N-NO 20 ° 0 min 0,000 mm 0,0 UV-I 14 W/m² 13,7 °C 15,7 °C 0,0 km/h (0 Bft)
29.07.2018 06:25 15,7 °C 88 % 1013,3 hPa 0,0 mm 0,0 km/h (0 Bft) N-NO 20 ° 0 min 0,000 mm 0,0 UV-I 14 W/m² 13,7 °C 15,7 °C 0,0 km/h (0 Bft)
29.07.2018 06:26 15,7 °C 88 % 1013,3 hPa 0,0 mm 0,0 km/h (0 Bft) N-NO 20 ° 0 min 0,000 mm 0,0 UV-I 16 W/m² 13,7 °C 15,7 °C 0,0 km/h (0 Bft)
29.07.2018 06:27 15,7 °C 88 % 1013,3 hPa 0,0 mm 0,0 km/h (0 Bft) N-NO 20 ° 0 min 0,000 mm 0,0 UV-I 16 W/m² 13,7 °C 15,7 °C 0,0 km/h (0 Bft)
29.07.2018 06:28 15,6 °C 88 % 1013,3 hPa 0,0 mm 0,0 km/h (0 Bft) N-NO 20 ° 0 min 0,000 mm 0,0 UV-I 18 W/m² 13,6 °C 15,6 °C 0,0 km/h (0 Bft)
29.07.2018 06:29 15,6 °C 88 % 1013,3 hPa 0,0 mm 0,0 km/h (0 Bft) N-NO 20 ° 0 min 0,000 mm 0,0 UV-I 18 W/m² 13,6 °C 15,6 °C 0,0 km/h (0 Bft)
29.07.2018 06:30 15,6 °C 88 % 1013,3 hPa 0,0 mm 0,0 km/h (0 Bft) N-NO 20 ° 0 min 0,000 mm 0,0 UV-I 19 W/m² 13,6 °C 15,6 °C 0,0 km/h (0 Bft)
29.07.2018 06:31 15,5 °C 88 % 1013,3 hPa 0,0 mm 0,0 km/h (0 Bft) N-NO 20 ° 0 min 0,000 mm 0,0 UV-I 19 W/m² 13,5 °C 15,5 °C 0,0 km/h (0 Bft)
29.07.2018 06:32 15,4 °C 88 % 1013,3 hPa 0,0 mm 0,0 km/h (0 Bft) N-NO 20 ° 0 min 0,000 mm 0,0 UV-I 19 W/m² 13,4 °C 15,4 °C 0,0 km/h (0 Bft)
29.07.2018 06:33 15,4 °C 88 % 1013,3 hPa 0,0 mm 0,0 km/h (0 Bft) N-NO 20 ° 0 min 0,000 mm 0,0 UV-I 21 W/m² 13,4 °C 15,4 °C 0,0 km/h (0 Bft)
29.07.2018 06:34 15,4 °C 88 % 1013,3 hPa 0,0 mm 0,0 km/h (0 Bft) N-NO 20 ° 0 min 0,000 mm 0,0 UV-I 23 W/m² 13,4 °C 15,4 °C 0,0 km/h (0 Bft)
29.07.2018 06:35 15,3 °C 88 % 1013,3 hPa 0,0 mm 0,0 km/h (0 Bft) N-NO 20 ° 0 min 0,000 mm 0,0 UV-I 23 W/m² 13,3 °C 15,3 °C 0,0 km/h (0 Bft)
29.07.2018 06:36 15,3 °C 89 % 1013,3 hPa 0,0 mm 0,0 km/h (0 Bft) N-NO 20 ° 0 min 0,000 mm 0,0 UV-I 25 W/m² 13,5 °C 15,3 °C 0,0 km/h (0 Bft)
29.07.2018 06:37 15,3 °C 89 % 1013,3 hPa 0,0 mm 0,0 km/h (0 Bft) N-NO 20 ° 0 min 0,000 mm 0,0 UV-I 25 W/m² 13,5 °C 15,3 °C 0,0 km/h (0 Bft)
29.07.2018 06:38 15,3 °C 89 % 1013,3 hPa 0,0 mm 0,0 km/h (0 Bft) N-NO 20 ° 0 min 0,000 mm 0,0 UV-I 26 W/m² 13,5 °C 15,3 °C 0,0 km/h (0 Bft)
29.07.2018 06:39 15,3 °C 89 % 1013,3 hPa 0,0 mm 0,0 km/h (0 Bft) N-NO 20 ° 0 min 0,000 mm 0,0 UV-I 26 W/m² 13,5 °C 15,3 °C 0,0 km/h (0 Bft)
29.07.2018 06:40 15,3 °C 89 % 1013,3 hPa 0,0 mm 0,0 km/h (0 Bft) N-NO 20 ° 0 min 0,000 mm 0,0 UV-I 25 W/m² 13,5 °C 15,3 °C 0,0 km/h (0 Bft)
29.07.2018 06:41 15,3 °C 89 % 1013,3 hPa 0,0 mm 0,0 km/h (0 Bft) N-NO 20 ° 0 min 0,000 mm 0,0 UV-I 25 W/m² 13,5 °C 15,3 °C 0,0 km/h (0 Bft)
29.07.2018 06:42 15,3 °C 89 % 1013,3 hPa 0,0 mm 0,0 km/h (0 Bft) N-NO 20 ° 0 min 0,000 mm 0,0 UV-I 25 W/m² 13,5 °C 15,3 °C 0,0 km/h (0 Bft)
29.07.2018 06:43 15,3 °C 89 % 1013,4 hPa 0,0 mm 0,0 km/h (0 Bft) N-NO 20 ° 0 min 0,000 mm 0,0 UV-I 25 W/m² 13,5 °C 15,3 °C 0,0 km/h (0 Bft)
29.07.2018 06:44 15,3 °C 89 % 1013,4 hPa 0,0 mm 0,0 km/h (0 Bft) N-NO 20 ° 0 min 0,000 mm 0,0 UV-I 26 W/m² 13,5 °C 15,3 °C 0,0 km/h (0 Bft)
29.07.2018 06:45 15,3 °C 89 % 1013,4 hPa 0,0 mm 0,0 km/h (0 Bft) N-NO 20 ° 0 min 0,000 mm 0,0 UV-I 30 W/m² 13,5 °C 15,3 °C 0,0 km/h (0 Bft)
29.07.2018 06:46 15,3 °C 89 % 1013,4 hPa 0,0 mm 0,0 km/h (0 Bft) N-NO 20 ° 0 min 0,000 mm 0,0 UV-I 30 W/m² 13,5 °C 15,3 °C 0,0 km/h (0 Bft)
29.07.2018 06:47 15,3 °C 89 % 1013,4 hPa 0,0 mm 0,0 km/h (0 Bft) N-NO 20 ° 0 min 0,000 mm 0,0 UV-I 32 W/m² 13,5 °C 15,3 °C 0,0 km/h (0 Bft)
29.07.2018 06:48 15,3 °C 89 % 1013,3 hPa 0,0 mm 0,0 km/h (0 Bft) N-NO 20 ° 0 min 0,000 mm 0,0 UV-I 33 W/m² 13,5 °C 15,3 °C 0,0 km/h (0 Bft)
29.07.2018 06:49 15,3 °C 89 % 1013,3 hPa 0,0 mm 0,0 km/h (0 Bft) N-NO 20 ° 0 min 0,000 mm 0,0 UV-I 35 W/m² 13,5 °C 15,3 °C 0,0 km/h (0 Bft)
29.07.2018 06:50 15,3 °C 89 % 1013,3 hPa 0,0 mm 0,0 km/h (0 Bft) N-NO 20 ° 0 min 0,000 mm 0,0 UV-I 35 W/m² 13,5 °C 15,3 °C 0,0 km/h (0 Bft)
29.07.2018 06:51 15,3 °C 89 % 1013,3 hPa 0,0 mm 0,0 km/h (0 Bft) N-NO 20 ° 0 min 0,000 mm 0,0 UV-I 35 W/m² 13,5 °C 15,3 °C 0,0 km/h (0 Bft)
29.07.2018 06:52 15,3 °C 89 % 1013,3 hPa 0,0 mm 0,0 km/h (0 Bft) N-NO 20 ° 0 min 0,000 mm 0,0 UV-I 37 W/m² 13,5 °C 15,3 °C 0,0 km/h (0 Bft)
29.07.2018 06:53 15,4 °C 89 % 1013,3 hPa 0,0 mm 0,0 km/h (0 Bft) N-NO 20 ° 0 min 0,000 mm 0,0 UV-I 35 W/m² 13,6 °C 15,4 °C 0,0 km/h (0 Bft)
29.07.2018 06:54 15,4 °C 89 % 1013,3 hPa 0,0 mm 0,0 km/h (0 Bft) N-NO 20 ° 0 min 0,000 mm 0,0 UV-I 35 W/m² 13,6 °C 15,4 °C 0,0 km/h (0 Bft)
29.07.2018 06:55 15,4 °C 89 % 1013,3 hPa 0,0 mm 0,0 km/h (0 Bft) N-NO 20 ° 0 min 0,000 mm 0,0 UV-I 35 W/m² 13,6 °C 15,4 °C 0,0 km/h (0 Bft)
29.07.2018 06:56 15,3 °C 89 % 1013,3 hPa 0,0 mm 0,0 km/h (0 Bft) N-NO 20 ° 0 min 0,000 mm 0,0 UV-I 35 W/m² 13,5 °C 15,3 °C 0,0 km/h (0 Bft)
29.07.2018 06:57 15,4 °C 89 % 1013,3 hPa 0,0 mm 0,0 km/h (0 Bft) N-NO 20 ° 0 min 0,000 mm 0,0 UV-I 33 W/m² 13,6 °C 15,4 °C 0,0 km/h (0 Bft)
29.07.2018 06:58 15,4 °C 89 % 1013,3 hPa 0,0 mm 0,0 km/h (0 Bft) N-NO 20 ° 0 min 0,000 mm 0,0 UV-I 33 W/m² 13,6 °C 15,4 °C 0,0 km/h (0 Bft)
29.07.2018 06:59 15,3 °C 89 % 1013,3 hPa 0,0 mm 0,0 km/h (0 Bft) N-NO 20 ° 0 min 0,000 mm 0,0 UV-I 32 W/m² 13,5 °C 15,3 °C 0,0 km/h (0 Bft)
29.07.2018 07:00 15,3 °C 89 % 1013,3 hPa 0,0 mm 0,0 km/h (0 Bft) N-NO 20 ° 0 min 0,026 mm 0,0 UV-I 30 W/m² 13,5 °C 15,3 °C 0,0 km/h (0 Bft)
29.07.2018 07:01 15,4 °C 89 % 1013,3 hPa 0,0 mm 0,0 km/h (0 Bft) N-NO 20 ° 0 min 0,000 mm 0,0 UV-I 28 W/m² 13,6 °C 15,4 °C 0,0 km/h (0 Bft)
29.07.2018 07:02 15,4 °C 89 % 1013,3 hPa 0,0 mm 0,0 km/h (0 Bft) N-NO 20 ° 0 min 0,000 mm 0,0 UV-I 28 W/m² 13,6 °C 15,4 °C 0,0 km/h (0 Bft)
29.07.2018 07:03 15,4 °C 89 % 1013,3 hPa 0,0 mm 0,0 km/h (0 Bft) N-NO 20 ° 0 min 0,000 mm 0,0 UV-I 30 W/m² 13,6 °C 15,4 °C 0,0 km/h (0 Bft)
29.07.2018 07:04 15,4 °C 89 % 1013,3 hPa 0,0 mm 0,0 km/h (0 Bft) N-NO 20 ° 0 min 0,000 mm 0,0 UV-I 32 W/m² 13,6 °C 15,4 °C 0,0 km/h (0 Bft)
29.07.2018 07:05 15,4 °C 89 % 1013,3 hPa 0,0 mm 0,0 km/h (0 Bft) N-NO 20 ° 0 min 0,000 mm 0,0 UV-I 32 W/m² 13,6 °C 15,4 °C 0,0 km/h (0 Bft)
29.07.2018 07:06 15,4 °C 89 % 1013,3 hPa 0,0 mm 0,0 km/h (0 Bft) N-NO 20 ° 0 min 0,000 mm 0,0 UV-I 32 W/m² 13,6 °C 15,4 °C 0,0 km/h (0 Bft)
29.07.2018 07:07 15,4 °C 89 % 1013,3 hPa 0,0 mm 0,0 km/h (0 Bft) N-NO 20 ° 0 min 0,000 mm 0,0 UV-I 33 W/m² 13,6 °C 15,4 °C 0,0 km/h (0 Bft)
29.07.2018 07:08 15,4 °C 89 % 1013,3 hPa 0,0 mm 0,0 km/h (0 Bft) N-NO 20 ° 0 min 0,000 mm 0,0 UV-I 33 W/m² 13,6 °C 15,4 °C 0,0 km/h (0 Bft)
29.07.2018 07:09 15,4 °C 89 % 1013,3 hPa 0,0 mm 0,0 km/h (0 Bft) N-NO 20 ° 0 min 0,000 mm 0,0 UV-I 33 W/m² 13,6 °C 15,4 °C 0,0 km/h (0 Bft)
29.07.2018 07:10 15,4 °C 89 % 1013,3 hPa 0,0 mm 0,0 km/h (0 Bft) N-NO 20 ° 0 min 0,000 mm 0,0 UV-I 33 W/m² 13,6 °C 15,4 °C 0,0 km/h (0 Bft)
29.07.2018 07:11 15,4 °C 89 % 1013,3 hPa 0,0 mm 0,0 km/h (0 Bft) N-NO 20 ° 0 min 0,000 mm 0,0 UV-I 33 W/m² 13,6 °C 15,4 °C 0,0 km/h (0 Bft)
29.07.2018 07:12 15,4 °C 89 % 1013,3 hPa 0,0 mm 0,0 km/h (0 Bft) N-NO 20 ° 0 min 0,000 mm 0,0 UV-I 35 W/m² 13,6 °C 15,4 °C 0,0 km/h (0 Bft)
29.07.2018 07:13 15,4 °C 89 % 1013,3 hPa 0,0 mm 0,0 km/h (0 Bft) N-NO 20 ° 0 min 0,000 mm 0,0 UV-I 35 W/m² 13,6 °C 15,4 °C 0,0 km/h (0 Bft)
29.07.2018 07:14 15,4 °C 89 % 1013,3 hPa 0,0 mm 0,0 km/h (0 Bft) N-NO 20 ° 0 min 0,000 mm 0,0 UV-I 37 W/m² 13,6 °C 15,4 °C 0,0 km/h (0 Bft)
29.07.2018 07:15 15,4 °C 89 % 1013,3 hPa 0,0 mm 0,0 km/h (0 Bft) N-NO 20 ° 0 min 0,000 mm 0,0 UV-I 37 W/m² 13,6 °C 15,4 °C 0,0 km/h (0 Bft)
29.07.2018 07:16 15,4 °C 89 % 1013,3 hPa 0,0 mm 0,0 km/h (0 Bft) N-NO 20 ° 0 min 0,000 mm 0,0 UV-I 37 W/m² 13,6 °C 15,4 °C 0,0 km/h (0 Bft)
29.07.2018 07:17 15,4 °C 89 % 1013,3 hPa 0,0 mm 0,0 km/h (0 Bft) N-NO 20 ° 0 min 0,000 mm 0,0 UV-I 37 W/m² 13,6 °C 15,4 °C 0,0 km/h (0 Bft)
29.07.2018 07:18 15,4 °C 89 % 1013,3 hPa 0,0 mm 0,0 km/h (0 Bft) N-NO 20 ° 0 min 0,000 mm 0,0 UV-I 37 W/m² 13,6 °C 15,4 °C 0,0 km/h (0 Bft)
29.07.2018 07:19 15,3 °C 89 % 1013,3 hPa 0,0 mm 0,0 km/h (0 Bft) N-NO 20 ° 0 min 0,000 mm 0,0 UV-I 35 W/m² 13,5 °C 15,3 °C 0,0 km/h (0 Bft)
29.07.2018 07:20 15,4 °C 89 % 1013,2 hPa 0,0 mm 0,0 km/h (0 Bft) N-NO 20 ° 0 min 0,000 mm 0,0 UV-I 33 W/m² 13,6 °C 15,4 °C 0,0 km/h (0 Bft)
29.07.2018 07:21 15,3 °C 89 % 1013,3 hPa 0,0 mm 0,0 km/h (0 Bft) N-NO 20 ° 0 min 0,000 mm 0,0 UV-I 32 W/m² 13,5 °C 15,3 °C 0,0 km/h (0 Bft)
29.07.2018 07:22 15,4 °C 89 % 1013,3 hPa 0,0 mm 0,0 km/h (0 Bft) N-NO 20 ° 0 min 0,000 mm 0,0 UV-I 32 W/m² 13,6 °C 15,4 °C 0,0 km/h (0 Bft)
29.07.2018 07:23 15,3 °C 89 % 1013,3 hPa 0,0 mm 0,0 km/h (0 Bft) N-NO 20 ° 0 min 0,000 mm 0,0 UV-I 32 W/m² 13,5 °C 15,3 °C 0,0 km/h (0 Bft)
29.07.2018 07:24 15,4 °C 89 % 1013,3 hPa 0,0 mm 0,0 km/h (0 Bft) N-NO 20 ° 0 min 0,000 mm 0,0 UV-I 44 W/m² 13,6 °C 15,4 °C 0,0 km/h (0 Bft)
29.07.2018 07:25 15,4 °C 89 % 1013,3 hPa 0,0 mm 0,0 km/h (0 Bft) N-NO 20 ° 0 min 0,000 mm 0,0 UV-I 51 W/m² 13,6 °C 15,4 °C 0,0 km/h (0 Bft)
29.07.2018 07:26 15,4 °C 89 % 1013,4 hPa 0,0 mm 0,0 km/h (0 Bft) N-NO 20 ° 0 min 0,000 mm 0,0 UV-I 47 W/m² 13,6 °C 15,4 °C 0,0 km/h (0 Bft)
29.07.2018 07:27 15,4 °C 89 % 1013,4 hPa 0,0 mm 0,0 km/h (0 Bft) N-NO 20 ° 0 min 0,000 mm 0,0 UV-I 54 W/m² 13,6 °C 15,4 °C 0,0 km/h (0 Bft)
29.07.2018 07:28 15,4 °C 89 % 1013,4 hPa 0,0 mm 0,0 km/h (0 Bft) N-NO 20 ° 0 min 0,000 mm 0,0 UV-I 53 W/m² 13,6 °C 15,4 °C 0,0 km/h (0 Bft)
29.07.2018 07:29 15,4 °C 89 % 1013,4 hPa 0,0 mm 0,0 km/h (0 Bft) N-NO 20 ° 0 min 0,000 mm 0,7 UV-I 127 W/m² 13,6 °C 15,4 °C 0,0 km/h (0 Bft)
29.07.2018 07:30 15,4 °C 89 % 1013,4 hPa 0,0 mm 0,0 km/h (0 Bft) N-NO 20 ° 0 min 0,000 mm 0,0 UV-I 53 W/m² 13,6 °C 15,4 °C 0,0 km/h (0 Bft)
29.07.2018 07:31 15,4 °C 89 % 1013,3 hPa 0,0 mm 0,0 km/h (0 Bft) N-NO 20 ° 0 min 0,000 mm 0,7 UV-I 109 W/m² 13,6 °C 15,4 °C 0,0 km/h (0 Bft)
29.07.2018 07:32 15,5 °C 89 % 1013,3 hPa 0,0 mm 0,0 km/h (0 Bft) N-NO 20 ° 0 min 0,000 mm 0,7 UV-I 142 W/m² 13,7 °C 15,5 °C 0,0 km/h (0 Bft)
29.07.2018 07:33 15,6 °C 89 % 1013,3 hPa 0,0 mm 0,0 km/h (0 Bft) N-NO 20 ° 0 min 0,000 mm 0,7 UV-I 134 W/m² 13,8 °C 15,6 °C 0,0 km/h (0 Bft)
29.07.2018 07:34 15,7 °C 89 % 1013,3 hPa 0,0 mm 0,0 km/h (0 Bft) N-NO 20 ° 0 min 0,000 mm 0,7 UV-I 123 W/m² 13,9 °C 15,7 °C 0,0 km/h (0 Bft)
29.07.2018 07:35 15,7 °C 89 % 1013,3 hPa 0,0 mm 0,0 km/h (0 Bft) N-NO 20 ° 0 min 0,000 mm 0,7 UV-I 105 W/m² 13,9 °C 15,7 °C 0,0 km/h (0 Bft)
29.07.2018 07:36 15,8 °C 89 % 1013,3 hPa 0,0 mm 0,0 km/h (0 Bft) N-NO 20 ° 0 min 0,000 mm 0,7 UV-I 104 W/m² 14,0 °C 15,8 °C 0,0 km/h (0 Bft)
29.07.2018 07:37 15,9 °C 89 % 1013,4 hPa 0,0 mm 0,0 km/h (0 Bft) N-NO 20 ° 0 min 0,000 mm 0,8 UV-I 178 W/m² 14,1 °C 15,9 °C 0,0 km/h (0 Bft)
29.07.2018 07:38 16,1 °C 89 % 1013,4 hPa 0,0 mm 0,0 km/h (0 Bft) N-NO 20 ° 0 min 0,000 mm 0,8 UV-I 199 W/m² 14,3 °C 16,1 °C 0,0 km/h (0 Bft)
29.07.2018 07:39 16,2 °C 89 % 1013,4 hPa 0,0 mm 0,0 km/h (0 Bft) N-NO 20 ° 0 min 0,000 mm 0,9 UV-I 202 W/m² 14,4 °C 16,2 °C 0,0 km/h (0 Bft)
29.07.2018 07:40 16,3 °C 88 % 1013,4 hPa 0,0 mm 0,0 km/h (0 Bft) N-NO 20 ° 0 min 0,000 mm 0,9 UV-I 202 W/m² 14,3 °C 16,3 °C 0,0 km/h (0 Bft)
29.07.2018 07:41 16,4 °C 88 % 1013,4 hPa 0,0 mm 0,0 km/h (0 Bft) N-NO 20 ° 0 min 0,000 mm 0,9 UV-I 202 W/m² 14,4 °C 16,4 °C 0,0 km/h (0 Bft)
29.07.2018 07:42 16,4 °C 88 % 1013,4 hPa 0,0 mm 0,0 km/h (0 Bft) N-NO 20 ° 0 min 0,000 mm 0,9 UV-I 202 W/m² 14,4 °C 16,4 °C 0,0 km/h (0 Bft)
29.07.2018 07:43 16,5 °C 87 % 1013,3 hPa 0,0 mm 0,0 km/h (0 Bft) N-NO 21 ° 0 min 0,000 mm 0,9 UV-I 204 W/m² 14,3 °C 16,5 °C 0,0 km/h (0 Bft)
29.07.2018 07:44 16,6 °C 88 % 1013,3 hPa 0,0 mm 0,0 km/h (0 Bft) N-NO 20 ° 0 min 0,000 mm 0,9 UV-I 207 W/m² 14,6 °C 16,6 °C 0,0 km/h (0 Bft)
29.07.2018 07:45 16,6 °C 87 % 1013,3 hPa 0,0 mm 0,0 km/h (0 Bft) N-NO 20 ° 0 min 0,000 mm 0,9 UV-I 209 W/m² 14,4 °C 16,6 °C 0,0 km/h (0 Bft)
29.07.2018 07:46 16,7 °C 88 % 1013,3 hPa 0,0 mm 0,0 km/h (0 Bft) N-NO 20 ° 0 min 0,000 mm 0,9 UV-I 211 W/m² 14,7 °C 16,7 °C 0,0 km/h (0 Bft)
29.07.2018 07:47 16,7 °C 87 % 1013,3 hPa 0,0 mm 0,0 km/h (0 Bft) N-NO 21 ° 0 min 0,000 mm 1,0 UV-I 211 W/m² 14,5 °C 16,7 °C 0,0 km/h (0 Bft)
29.07.2018 07:48 16,8 °C 88 % 1013,3 hPa 0,0 mm 0,0 km/h (0 Bft) N-NO 21 ° 0 min 0,000 mm 1,0 UV-I 223 W/m² 14,8 °C 16,8 °C 0,0 km/h (0 Bft)
29.07.2018 07:49 16,8 °C 88 % 1013,3 hPa 0,0 mm 0,0 km/h (0 Bft) N-NO 20 ° 0 min 0,000 mm 1,0 UV-I 227 W/m² 14,8 °C 16,8 °C 0,0 km/h (0 Bft)
29.07.2018 07:50 16,9 °C 88 % 1013,4 hPa 0,0 mm 0,0 km/h (0 Bft) N-NO 20 ° 0 min 0,000 mm 1,0 UV-I 227 W/m² 14,9 °C 16,9 °C 0,0 km/h (0 Bft)
29.07.2018 07:51 16,9 °C 86 % 1013,3 hPa 0,0 mm 0,0 km/h (0 Bft) N-NO 21 ° 0 min 0,000 mm 1,0 UV-I 234 W/m² 14,5 °C 16,9 °C 0,0 km/h (0 Bft)
29.07.2018 07:52 17,0 °C 85 % 1013,3 hPa 0,0 mm 0,0 km/h (0 Bft) N-NO 21 ° 0 min 0,000 mm 1,1 UV-I 234 W/m² 14,5 °C 17,0 °C 0,0 km/h (0 Bft)
29.07.2018 07:53 17,1 °C 85 % 1013,3 hPa 0,0 mm 0,0 km/h (0 Bft) N-NO 20 ° 0 min 0,000 mm 1,1 UV-I 239 W/m² 14,6 °C 17,1 °C 0,0 km/h (0 Bft)
29.07.2018 07:54 17,2 °C 85 % 1013,3 hPa 0,0 mm 0,0 km/h (0 Bft) N-NO 21 ° 0 min 0,000 mm 1,1 UV-I 237 W/m² 14,7 °C 17,2 °C 0,0 km/h (0 Bft)
29.07.2018 07:55 17,3 °C 87 % 1013,3 hPa 0,0 mm 0,0 km/h (0 Bft) N-NO 21 ° 0 min 0,000 mm 1,1 UV-I 253 W/m² 15,1 °C 17,3 °C 0,0 km/h (0 Bft)
29.07.2018 07:56 17,5 °C 87 % 1013,3 hPa 0,0 mm 0,0 km/h (0 Bft) N-NO 21 ° 0 min 0,000 mm 1,2 UV-I 251 W/m² 15,3 °C 17,5 °C 0,0 km/h (0 Bft)
29.07.2018 07:57 17,6 °C 85 % 1013,3 hPa 0,0 mm 0,0 km/h (0 Bft) N-NO 20 ° 0 min 0,000 mm 1,2 UV-I 262 W/m² 15,0 °C 17,6 °C 0,0 km/h (0 Bft)
29.07.2018 07:58 17,7 °C 85 % 1013,3 hPa 0,0 mm 0,0 km/h (0 Bft) N-NO 20 ° 0 min 0,000 mm 1,2 UV-I 265 W/m² 15,1 °C 17,7 °C 0,0 km/h (0 Bft)
29.07.2018 07:59 17,7 °C 83 % 1013,3 hPa 0,0 mm 0,0 km/h (0 Bft) N-NO 21 ° 0 min 0,000 mm 1,2 UV-I 269 W/m² 14,8 °C 17,7 °C 0,0 km/h (0 Bft)
29.07.2018 08:00 17,7 °C 83 % 1013,3 hPa 0,0 mm 0,0 km/h (0 Bft) N-NO 21 ° 0 min 0,076 mm 1,2 UV-I 271 W/m² 14,8 °C 17,7 °C 0,0 km/h (0 Bft)
29.07.2018 08:01 17,7 °C 84 % 1013,3 hPa 0,0 mm 0,0 km/h (0 Bft) N-NO 21 ° 0 min 0,000 mm 1,3 UV-I 265 W/m² 15,0 °C 17,7 °C 0,0 km/h (0 Bft)
29.07.2018 08:02 17,7 °C 83 % 1013,3 hPa 0,0 mm 0,0 km/h (0 Bft) N-NO 21 ° 0 min 0,000 mm 1,3 UV-I 267 W/m² 14,8 °C 17,7 °C 0,0 km/h (0 Bft)
29.07.2018 08:03 17,7 °C 83 % 1013,3 hPa 0,0 mm 0,0 km/h (0 Bft) N-NO 21 ° 0 min 0,000 mm 1,3 UV-I 279 W/m² 14,8 °C 17,7 °C 0,0 km/h (0 Bft)
29.07.2018 08:04 17,8 °C 82 % 1013,3 hPa 0,0 mm 0,0 km/h (0 Bft) N-NO 21 ° 0 min 0,000 mm 1,3 UV-I 287 W/m² 14,7 °C 17,8 °C 0,0 km/h (0 Bft)
29.07.2018 08:05 17,8 °C 83 % 1013,3 hPa 0,0 mm 0,0 km/h (0 Bft) N-NO 21 ° 0 min 0,000 mm 1,4 UV-I 288 W/m² 14,9 °C 17,8 °C 0,0 km/h (0 Bft)
29.07.2018 08:06 17,9 °C 83 % 1013,2 hPa 0,0 mm 0,0 km/h (0 Bft) N-NO 21 ° 0 min 0,000 mm 1,3 UV-I 276 W/m² 15,0 °C 17,9 °C 0,0 km/h (0 Bft)
29.07.2018 08:07 18,1 °C 83 % 1013,2 hPa 0,0 mm 0,0 km/h (0 Bft) N-NO 20 ° 0 min 0,000 mm 1,4 UV-I 276 W/m² 15,2 °C 18,1 °C 0,0 km/h (0 Bft)
29.07.2018 08:08 18,1 °C 83 % 1013,2 hPa 0,0 mm 0,0 km/h (0 Bft) N-NO 20 ° 0 min 0,000 mm 1,4 UV-I 290 W/m² 15,2 °C 18,1 °C 0,0 km/h (0 Bft)
29.07.2018 08:09 18,2 °C 83 % 1013,2 hPa 0,0 mm 0,0 km/h (0 Bft) N-NO 20 ° 0 min 0,000 mm 1,3 UV-I 220 W/m² 15,3 °C 18,2 °C 0,0 km/h (0 Bft)
29.07.2018 08:10 18,3 °C 84 % 1013,2 hPa 0,0 mm 0,0 km/h (0 Bft) N-NO 20 ° 0 min 0,000 mm 1,4 UV-I 265 W/m² 15,5 °C 18,3 °C 0,0 km/h (0 Bft)
29.07.2018 08:11 18,3 °C 83 % 1013,2 hPa 0,0 mm 0,0 km/h (0 Bft) N-NO 21 ° 0 min 0,000 mm 1,5 UV-I 279 W/m² 15,4 °C 18,3 °C 0,0 km/h (0 Bft)
29.07.2018 08:12 18,2 °C 82 % 1013,2 hPa 0,0 mm 0,0 km/h (0 Bft) N-NO 21 ° 0 min 0,000 mm 1,5 UV-I 315 W/m² 15,1 °C 18,2 °C 0,0 km/h (0 Bft)
29.07.2018 08:13 18,2 °C 82 % 1013,2 hPa 0,0 mm 0,0 km/h (0 Bft) N-NO 21 ° 0 min 0,000 mm 1,6 UV-I 318 W/m² 15,1 °C 18,2 °C 0,0 km/h (0 Bft)
29.07.2018 08:14 18,3 °C 82 % 1013,2 hPa 0,0 mm 0,0 km/h (0 Bft) N-NO 21 ° 0 min 0,000 mm 1,6 UV-I 320 W/m² 15,2 °C 18,3 °C 0,0 km/h (0 Bft)
29.07.2018 08:15 18,3 °C 82 % 1013,2 hPa 0,0 mm 0,0 km/h (0 Bft) N-NO 21 ° 0 min 0,000 mm 1,6 UV-I 323 W/m² 15,2 °C 18,3 °C 0,0 km/h (0 Bft)
29.07.2018 08:16 18,4 °C 83 % 1013,2 hPa 0,0 mm 0,0 km/h (0 Bft) N-NO 21 ° 0 min 0,000 mm 1,7 UV-I 325 W/m² 15,5 °C 18,4 °C 0,0 km/h (0 Bft)
29.07.2018 08:17 18,4 °C 81 % 1013,2 hPa 0,0 mm 0,0 km/h (0 Bft) N-NO 21 ° 0 min 0,000 mm 1,7 UV-I 330 W/m² 15,1 °C 18,4 °C 0,0 km/h (0 Bft)
29.07.2018 08:18 18,5 °C 83 % 1013,2 hPa 0,0 mm 0,0 km/h (0 Bft) N-NO 21 ° 0 min 0,000 mm 1,7 UV-I 336 W/m² 15,6 °C 18,5 °C 0,0 km/h (0 Bft)
29.07.2018 08:19 18,6 °C 83 % 1013,2 hPa 0,0 mm 0,0 km/h (0 Bft) N-NO 21 ° 0 min 0,000 mm 1,7 UV-I 338 W/m² 15,7 °C 18,6 °C 0,0 km/h (0 Bft)
29.07.2018 08:20 18,7 °C 81 % 1013,2 hPa 0,0 mm 0,0 km/h (0 Bft) N-NO 21 ° 0 min 0,000 mm 1,8 UV-I 341 W/m² 15,4 °C 18,7 °C 0,0 km/h (0 Bft)
29.07.2018 08:21 18,7 °C 80 % 1013,2 hPa 0,0 mm 0,0 km/h (0 Bft) N-NO 21 ° 0 min 0,000 mm 1,8 UV-I 345 W/m² 15,2 °C 18,7 °C 0,0 km/h (0 Bft)
29.07.2018 08:22 18,7 °C 80 % 1013,2 hPa 0,0 mm 0,0 km/h (0 Bft) N-NO 21 ° 0 min 0,000 mm 1,8 UV-I 345 W/m² 15,2 °C 18,7 °C 0,0 km/h (0 Bft)
29.07.2018 08:23 18,8 °C 81 % 1013,2 hPa 0,0 mm 0,0 km/h (0 Bft) N-NO 21 ° 0 min 0,000 mm 1,8 UV-I 352 W/m² 15,5 °C 18,8 °C 0,0 km/h (0 Bft)
29.07.2018 08:24 18,8 °C 81 % 1013,2 hPa 0,0 mm 0,0 km/h (0 Bft) N-NO 21 ° 0 min 0,000 mm 1,9 UV-I 359 W/m² 15,5 °C 18,8 °C 0,0 km/h (0 Bft)
29.07.2018 08:25 18,9 °C 79 % 1013,2 hPa 0,0 mm 0,0 km/h (0 Bft) N-NO 21 ° 0 min 0,000 mm 1,9 UV-I 362 W/m² 15,2 °C 18,9 °C 0,0 km/h (0 Bft)
29.07.2018 08:26 18,9 °C 79 % 1013,2 hPa 0,0 mm 0,0 km/h (0 Bft) N-NO 21 ° 0 min 0,000 mm 1,9 UV-I 367 W/m² 15,2 °C 18,9 °C 0,0 km/h (0 Bft)
29.07.2018 08:27 18,9 °C 78 % 1013,2 hPa 0,0 mm 0,0 km/h (0 Bft) N-NO 20 ° 0 min 0,000 mm 2,0 UV-I 371 W/m² 15,0 °C 18,9 °C 0,0 km/h (0 Bft)
29.07.2018 08:28 18,9 °C 78 % 1013,2 hPa 0,0 mm 0,0 km/h (0 Bft) N-NO 21 ° 0 min 0,000 mm 2,0 UV-I 374 W/m² 15,0 °C 18,9 °C 0,0 km/h (0 Bft)
29.07.2018 08:29 18,9 °C 80 % 1013,2 hPa 0,0 mm 0,0 km/h (0 Bft) N-NO 21 ° 0 min 0,000 mm 2,0 UV-I 378 W/m² 15,4 °C 18,9 °C 0,0 km/h (0 Bft)
29.07.2018 08:30 19,0 °C 80 % 1013,1 hPa 0,0 mm 0,0 km/h (0 Bft) N-NO 21 ° 0 min 0,000 mm 2,0 UV-I 385 W/m² 15,5 °C 19,0 °C 0,0 km/h (0 Bft)
29.07.2018 08:31 19,1 °C 81 % 1013,2 hPa 0,0 mm 0,0 km/h (0 Bft) N-NO 21 ° 0 min 0,000 mm 2,0 UV-I 387 W/m² 15,8 °C 19,1 °C 0,0 km/h (0 Bft)
29.07.2018 08:32 19,1 °C 81 % 1013,2 hPa 0,0 mm 0,0 km/h (0 Bft) N-NO 21 ° 0 min 0,000 mm 2,0 UV-I 383 W/m² 15,8 °C 19,1 °C 0,0 km/h (0 Bft)
29.07.2018 08:33 19,1 °C 77 % 1013,2 hPa 0,0 mm 0,0 km/h (0 Bft) N-NO 21 ° 0 min 0,000 mm 2,1 UV-I 383 W/m² 15,0 °C 19,1 °C 0,0 km/h (0 Bft)
29.07.2018 08:34 19,2 °C 79 % 1013,2 hPa 0,0 mm 0,0 km/h (0 Bft) N-NO 21 ° 0 min 0,000 mm 2,1 UV-I 385 W/m² 15,5 °C 19,2 °C 0,0 km/h (0 Bft)
29.07.2018 08:35 19,3 °C 80 % 1013,1 hPa 0,0 mm 0,0 km/h (0 Bft) N-NO 21 ° 0 min 0,000 mm 2,1 UV-I 366 W/m² 15,8 °C 19,3 °C 0,0 km/h (0 Bft)
29.07.2018 08:36 19,5 °C 77 % 1013,2 hPa 0,0 mm 0,0 km/h (0 Bft) N-NO 21 ° 0 min 0,000 mm 2,1 UV-I 374 W/m² 15,4 °C 19,5 °C 0,0 km/h (0 Bft)
29.07.2018 08:37 19,5 °C 77 % 1013,2 hPa 0,0 mm 0,0 km/h (0 Bft) N-NO 20 ° 0 min 0,000 mm 2,1 UV-I 346 W/m² 15,4 °C 19,5 °C 0,0 km/h (0 Bft)
29.07.2018 08:38 19,5 °C 76 % 1013,2 hPa 0,0 mm 1,1 km/h (1 Bft) N-NO 21 ° 0 min 0,000 mm 2,0 UV-I 348 W/m² 15,2 °C 19,5 °C 3,2 km/h (1 Bft)
29.07.2018 08:39 19,4 °C 79 % 1013,2 hPa 0,0 mm 1,1 km/h (1 Bft) N-NO 21 ° 0 min 0,000 mm 2,0 UV-I 339 W/m² 15,7 °C 19,4 °C 1,6 km/h (1 Bft)
29.07.2018 08:40 19,3 °C 76 % 1013,2 hPa 0,0 mm 0,7 km/h (0 Bft) N-NO 21 ° 0 min 0,000 mm 2,0 UV-I 316 W/m² 15,0 °C 19,3 °C 1,6 km/h (1 Bft)
29.07.2018 08:41 19,4 °C 76 % 1013,2 hPa 0,0 mm 1,3 km/h (1 Bft) N-NO 22 ° 0 min 0,000 mm 2,0 UV-I 338 W/m² 15,1 °C 19,4 °C 4,8 km/h (1 Bft)
29.07.2018 08:42 19,5 °C 75 % 1013,2 hPa 0,0 mm 0,5 km/h (0 Bft) N-NO 22 ° 0 min 0,000 mm 2,1 UV-I 367 W/m² 14,9 °C 19,5 °C 1,6 km/h (1 Bft)
29.07.2018 08:43 19,7 °C 77 % 1013,0 hPa 0,0 mm 0,0 km/h (0 Bft) N-NO 22 ° 0 min 0,000 mm 2,2 UV-I 378 W/m² 15,5 °C 19,7 °C 0,0 km/h (0 Bft)
29.07.2018 08:44 19,8 °C 75 % 1013,1 hPa 0,0 mm 0,2 km/h (0 Bft) N-NO 22 ° 0 min 0,000 mm 2,2 UV-I 376 W/m² 15,2 °C 19,8 °C 1,6 km/h (1 Bft)
29.07.2018 08:45 19,9 °C 74 % 1013,1 hPa 0,0 mm 0,2 km/h (0 Bft) N-NO 22 ° 0 min 0,000 mm 2,2 UV-I 383 W/m² 15,1 °C 19,9 °C 1,6 km/h (1 Bft)
29.07.2018 08:46 20,1 °C 75 % 1013,1 hPa 0,0 mm 0,0 km/h (0 Bft) N-NO 22 ° 0 min 0,000 mm 2,3 UV-I 411 W/m² 15,5 °C 20,1 °C 0,0 km/h (0 Bft)
29.07.2018 08:47 20,1 °C 73 % 1013,1 hPa 0,0 mm 0,0 km/h (0 Bft) N-NO 22 ° 0 min 0,000 mm 2,3 UV-I 415 W/m² 15,1 °C 20,1 °C 0,0 km/h (0 Bft)
29.07.2018 08:48 20,2 °C 75 % 1013,1 hPa 0,0 mm 0,0 km/h (0 Bft) N-NO 22 ° 0 min 0,000 mm 2,4 UV-I 420 W/m² 15,6 °C 20,2 °C 0,0 km/h (0 Bft)
29.07.2018 08:49 20,2 °C 75 % 1013,1 hPa 0,0 mm 2,3 km/h (1 Bft) N-NO 22 ° 0 min 0,000 mm 2,4 UV-I 408 W/m² 15,6 °C 20,2 °C 4,8 km/h (1 Bft)
29.07.2018 08:50 20,1 °C 75 % 1013,0 hPa 0,0 mm 2,0 km/h (1 Bft) N-NO 22 ° 0 min 0,000 mm 2,5 UV-I 452 W/m² 15,5 °C 20,1 °C 3,2 km/h (1 Bft)
29.07.2018 08:51 20,2 °C 74 % 1013,1 hPa 0,0 mm 1,3 km/h (1 Bft) N-NO 22 ° 0 min 0,000 mm 2,6 UV-I 461 W/m² 15,4 °C 20,2 °C 3,2 km/h (1 Bft)
29.07.2018 08:52 20,3 °C 72 % 1013,0 hPa 0,0 mm 1,2 km/h (1 Bft) N-NO 22 ° 0 min 0,000 mm 2,6 UV-I 455 W/m² 15,1 °C 20,3 °C 3,2 km/h (1 Bft)
29.07.2018 08:53 20,4 °C 74 % 1013,0 hPa 0,0 mm 0,6 km/h (0 Bft) N-NO 22 ° 0 min 0,000 mm 2,6 UV-I 425 W/m² 15,6 °C 20,4 °C 1,6 km/h (1 Bft)
29.07.2018 08:54 20,4 °C 72 % 1013,0 hPa 0,0 mm 0,3 km/h (0 Bft) N-NO 22 ° 0 min 0,000 mm 2,5 UV-I 425 W/m² 15,2 °C 20,4 °C 1,6 km/h (1 Bft)
29.07.2018 08:55 20,5 °C 75 % 1013,1 hPa 0,0 mm 0,3 km/h (0 Bft) N-NO 22 ° 0 min 0,000 mm 2,5 UV-I 394 W/m² 15,9 °C 20,5 °C 1,6 km/h (1 Bft)
29.07.2018 08:56 20,6 °C 75 % 1013,0 hPa 0,0 mm 1,7 km/h (1 Bft) N-NO 22 ° 0 min 0,000 mm 2,5 UV-I 396 W/m² 16,0 °C 20,6 °C 3,2 km/h (1 Bft)
29.07.2018 08:57 20,6 °C 73 % 1013,1 hPa 0,0 mm 2,6 km/h (1 Bft) N-NO 22 ° 0 min 0,000 mm 2,5 UV-I 392 W/m² 15,6 °C 20,6 °C 4,8 km/h (1 Bft)
29.07.2018 08:58 20,7 °C 73 % 1013,1 hPa 0,0 mm 4,9 km/h (1 Bft) NO 36 ° 0 min 0,000 mm 2,5 UV-I 413 W/m² 15,7 °C 20,7 °C 6,4 km/h (2 Bft)
29.07.2018 08:59 20,6 °C 73 % 1013,1 hPa 0,0 mm 3,8 km/h (1 Bft) N-NO 31 ° 0 min 0,000 mm 2,5 UV-I 401 W/m² 15,6 °C 20,6 °C 4,8 km/h (1 Bft)
29.07.2018 09:00 20,7 °C 74 % 1013,1 hPa 0,0 mm 4,8 km/h (1 Bft) N-NO 30 ° 0 min 0,203 mm 1,2 UV-I 418 W/m² 15,9 °C 20,7 °C 9,7 km/h (2 Bft)
29.07.2018 09:01 20,7 °C 71 % 1013,0 hPa 0,0 mm 5,4 km/h (1 Bft) N 355 ° 0 min 0,000 mm 1,2 UV-I 425 W/m² 15,2 °C 20,7 °C 9,7 km/h (2 Bft)
29.07.2018 09:02 20,7 °C 72 % 1013,0 hPa 0,0 mm 4,5 km/h (1 Bft) N-NO 26 ° 0 min 0,000 mm 1,6 UV-I 401 W/m² 15,5 °C 20,7 °C 9,7 km/h (2 Bft)
29.07.2018 09:03 20,8 °C 72 % 1013,1 hPa 0,0 mm 4,3 km/h (1 Bft) O-NO 69 ° 0 min 0,000 mm 1,3 UV-I 362 W/m² 15,6 °C 20,8 °C 8,0 km/h (2 Bft)
29.07.2018 09:04 20,8 °C 73 % 1013,0 hPa 0,0 mm 5,2 km/h (1 Bft) O-NO 65 ° 0 min 0,000 mm 2,5 UV-I 429 W/m² 15,8 °C 20,8 °C 8,0 km/h (2 Bft)
29.07.2018 09:05 20,8 °C 71 % 1013,0 hPa 0,0 mm 3,1 km/h (1 Bft) O 82 ° 0 min 0,000 mm 1,3 UV-I 374 W/m² 15,3 °C 20,8 °C 6,4 km/h (2 Bft)
29.07.2018 09:06 20,7 °C 70 % 1013,0 hPa 0,0 mm 7,2 km/h (2 Bft) NO 55 ° 0 min 0,000 mm 2,3 UV-I 343 W/m² 15,0 °C 20,7 °C 9,7 km/h (2 Bft)
29.07.2018 09:07 20,7 °C 70 % 1013,0 hPa 0,0 mm 5,6 km/h (1 Bft) NO 51 ° 0 min 0,000 mm 2,2 UV-I 329 W/m² 15,0 °C 20,7 °C 9,7 km/h (2 Bft)
29.07.2018 09:08 20,6 °C 72 % 1013,0 hPa 0,0 mm 4,0 km/h (1 Bft) O-NO 67 ° 0 min 0,000 mm 2,3 UV-I 329 W/m² 15,4 °C 20,6 °C 6,4 km/h (2 Bft)
29.07.2018 09:09 20,6 °C 70 % 1013,0 hPa 0,0 mm 0,3 km/h (0 Bft) O-NO 67 ° 0 min 0,000 mm 2,2 UV-I 287 W/m² 14,9 °C 20,6 °C 1,6 km/h (1 Bft)
29.07.2018 09:10 20,5 °C 72 % 1013,0 hPa 0,0 mm 3,7 km/h (1 Bft) O-NO 71 ° 0 min 0,000 mm 2,2 UV-I 295 W/m² 15,3 °C 20,5 °C 6,4 km/h (2 Bft)
29.07.2018 09:11 20,5 °C 71 % 1013,0 hPa 0,0 mm 4,3 km/h (1 Bft) NO 55 ° 0 min 0,000 mm 2,4 UV-I 315 W/m² 15,1 °C 20,5 °C 8,0 km/h (2 Bft)
29.07.2018 09:12 20,5 °C 70 % 1013,0 hPa 0,0 mm 3,9 km/h (1 Bft) N-NO 20 ° 0 min 0,000 mm 2,6 UV-I 390 W/m² 14,8 °C 20,5 °C 8,0 km/h (2 Bft)
29.07.2018 09:13 20,6 °C 72 % 1012,9 hPa 0,0 mm 3,7 km/h (1 Bft) N-NO 18 ° 0 min 0,000 mm 2,5 UV-I 376 W/m² 15,4 °C 20,6 °C 8,0 km/h (2 Bft)
29.07.2018 09:14 20,6 °C 72 % 1012,9 hPa 0,0 mm 3,2 km/h (1 Bft) O-NO 59 ° 0 min 0,000 mm 2,6 UV-I 394 W/m² 15,4 °C 20,6 °C 4,8 km/h (1 Bft)
29.07.2018 09:15 20,6 °C 72 % 1013,0 hPa 0,0 mm 4,1 km/h (1 Bft) NO 38 ° 0 min 0,000 mm 2,6 UV-I 408 W/m² 15,4 °C 20,6 °C 6,4 km/h (2 Bft)
29.07.2018 09:16 20,7 °C 71 % 1013,0 hPa 0,0 mm 5,0 km/h (1 Bft) NO 52 ° 0 min 0,000 mm 2,4 UV-I 329 W/m² 15,2 °C 20,7 °C 8,0 km/h (2 Bft)
29.07.2018 09:17 20,8 °C 71 % 1013,0 hPa 0,0 mm 4,4 km/h (1 Bft) O-NO 69 ° 0 min 0,000 mm 2,7 UV-I 455 W/m² 15,3 °C 20,8 °C 8,0 km/h (2 Bft)
29.07.2018 09:18 20,8 °C 70 % 1013,0 hPa 0,0 mm 8,8 km/h (2 Bft) NO 53 ° 0 min 0,000 mm 2,1 UV-I 457 W/m² 15,1 °C 20,8 °C 14,5 km/h (3 Bft)
29.07.2018 09:19 20,8 °C 72 % 1013,0 hPa 0,0 mm 4,5 km/h (1 Bft) NO 37 ° 0 min 0,000 mm 3,0 UV-I 480 W/m² 15,6 °C 20,8 °C 6,4 km/h (2 Bft)
29.07.2018 09:20 20,8 °C 69 % 1013,0 hPa 0,0 mm 5,5 km/h (1 Bft) O-NO 77 ° 0 min 0,000 mm 3,0 UV-I 492 W/m² 14,9 °C 20,8 °C 8,0 km/h (2 Bft)
29.07.2018 09:21 20,9 °C 70 % 1013,0 hPa 0,0 mm 2,9 km/h (1 Bft) O-NO 64 ° 0 min 0,000 mm 3,0 UV-I 497 W/m² 15,2 °C 20,9 °C 6,4 km/h (2 Bft)
29.07.2018 09:22 20,8 °C 71 % 1012,9 hPa 0,0 mm 2,2 km/h (1 Bft) O-NO 78 ° 0 min 0,000 mm 3,0 UV-I 489 W/m² 15,3 °C 20,8 °C 4,8 km/h (1 Bft)
29.07.2018 09:23 20,8 °C 71 % 1012,9 hPa 0,0 mm 3,9 km/h (1 Bft) O-NO 73 ° 0 min 0,000 mm 3,1 UV-I 496 W/m² 15,3 °C 20,8 °C 6,4 km/h (2 Bft)
29.07.2018 09:24 20,9 °C 68 % 1012,9 hPa 0,0 mm 5,6 km/h (1 Bft) O-NO 76 ° 0 min 0,000 mm 3,3 UV-I 557 W/m² 14,8 °C 20,9 °C 6,4 km/h (2 Bft)
29.07.2018 09:25 20,9 °C 69 % 1012,9 hPa 0,0 mm 6,2 km/h (2 Bft) NO 52 ° 0 min 0,000 mm 3,3 UV-I 566 W/m² 15,0 °C 20,9 °C 8,0 km/h (2 Bft)
29.07.2018 09:26 20,9 °C 68 % 1012,9 hPa 0,0 mm 3,4 km/h (1 Bft) O-NO 61 ° 0 min 0,000 mm 3,2 UV-I 552 W/m² 14,8 °C 20,9 °C 4,8 km/h (1 Bft)
29.07.2018 09:27 20,9 °C 68 % 1012,9 hPa 0,0 mm 3,4 km/h (1 Bft) O-NO 59 ° 0 min 0,000 mm 2,9 UV-I 510 W/m² 14,8 °C 20,9 °C 4,8 km/h (1 Bft)
29.07.2018 09:28 20,9 °C 68 % 1012,9 hPa 0,0 mm 4,6 km/h (1 Bft) O-NO 76 ° 0 min 0,000 mm 1,9 UV-I 345 W/m² 14,8 °C 20,9 °C 9,7 km/h (2 Bft)
29.07.2018 09:29 20,8 °C 66 % 1012,9 hPa 0,0 mm 3,2 km/h (1 Bft) O-NO 72 ° 0 min 0,000 mm 2,7 UV-I 424 W/m² 14,2 °C 20,8 °C 6,4 km/h (2 Bft)
29.07.2018 09:30 20,8 °C 67 % 1012,9 hPa 0,0 mm 0,5 km/h (0 Bft) O-NO 74 ° 0 min 0,000 mm 3,1 UV-I 485 W/m² 14,4 °C 20,8 °C 1,6 km/h (1 Bft)
29.07.2018 09:31 20,8 °C 67 % 1012,9 hPa 0,0 mm 2,6 km/h (1 Bft) O-NO 57 ° 0 min 0,000 mm 3,1 UV-I 469 W/m² 14,4 °C 20,8 °C 6,4 km/h (2 Bft)
29.07.2018 09:32 20,8 °C 70 % 1012,9 hPa 0,0 mm 5,7 km/h (1 Bft) O-SO 119 ° 0 min 0,000 mm 2,8 UV-I 401 W/m² 15,1 °C 20,8 °C 9,7 km/h (2 Bft)
29.07.2018 09:33 20,8 °C 69 % 1012,9 hPa 0,0 mm 4,2 km/h (1 Bft) O-NO 73 ° 0 min 0,000 mm 2,8 UV-I 387 W/m² 14,9 °C 20,8 °C 6,4 km/h (2 Bft)
29.07.2018 09:34 20,8 °C 69 % 1012,9 hPa 0,0 mm 5,5 km/h (1 Bft) O 88 ° 0 min 0,000 mm 3,0 UV-I 383 W/m² 14,9 °C 20,8 °C 8,0 km/h (2 Bft)
29.07.2018 09:35 20,8 °C 68 % 1012,9 hPa 0,0 mm 3,7 km/h (1 Bft) NO 41 ° 0 min 0,000 mm 3,1 UV-I 443 W/m² 14,7 °C 20,8 °C 6,4 km/h (2 Bft)
29.07.2018 09:36 20,8 °C 70 % 1012,9 hPa 0,0 mm 7,3 km/h (2 Bft) NO 44 ° 0 min 0,000 mm 3,3 UV-I 438 W/m² 15,1 °C 20,8 °C 12,9 km/h (3 Bft)
29.07.2018 09:37 20,9 °C 69 % 1012,9 hPa 0,0 mm 3,5 km/h (1 Bft) NO 44 ° 0 min 0,000 mm 1,9 UV-I 533 W/m² 15,0 °C 20,9 °C 6,4 km/h (2 Bft)
29.07.2018 09:38 20,9 °C 67 % 1012,8 hPa 0,0 mm 3,3 km/h (1 Bft) N-NO 31 ° 0 min 0,000 mm 3,5 UV-I 557 W/m² 14,5 °C 20,9 °C 6,4 km/h (2 Bft)
29.07.2018 09:39 21,0 °C 67 % 1012,9 hPa 0,0 mm 6,6 km/h (2 Bft) NO 44 ° 0 min 0,000 mm 3,7 UV-I 582 W/m² 14,6 °C 21,0 °C 8,0 km/h (2 Bft)
29.07.2018 09:40 21,1 °C 68 % 1012,8 hPa 0,0 mm 3,9 km/h (1 Bft) O-NO 57 ° 0 min 0,000 mm 3,6 UV-I 559 W/m² 15,0 °C 21,1 °C 6,4 km/h (2 Bft)
29.07.2018 09:41 21,1 °C 68 % 1012,8 hPa 0,0 mm 7,4 km/h (2 Bft) NO 49 ° 0 min 0,000 mm 3,5 UV-I 515 W/m² 15,0 °C 21,1 °C 9,7 km/h (2 Bft)
29.07.2018 09:42 21,1 °C 68 % 1012,9 hPa 0,0 mm 4,2 km/h (1 Bft) O-NO 65 ° 0 min 0,000 mm 3,7 UV-I 587 W/m² 15,0 °C 21,1 °C 6,4 km/h (2 Bft)
29.07.2018 09:43 21,2 °C 69 % 1012,9 hPa 0,0 mm 4,1 km/h (1 Bft) O 85 ° 0 min 0,000 mm 3,8 UV-I 594 W/m² 15,3 °C 21,2 °C 6,4 km/h (2 Bft)
29.07.2018 09:44 21,2 °C 69 % 1012,9 hPa 0,0 mm 0,9 km/h (0 Bft) O 84 ° 1 min 0,000 mm 3,8 UV-I 603 W/m² 15,3 °C 21,2 °C 4,8 km/h (1 Bft)
29.07.2018 09:45 21,2 °C 68 % 1012,9 hPa 0,0 mm 7,1 km/h (2 Bft) O-NO 74 ° 1 min 0,000 mm 3,8 UV-I 615 W/m² 15,1 °C 21,2 °C 14,5 km/h (3 Bft)
29.07.2018 09:46 21,2 °C 67 % 1012,9 hPa 0,0 mm 4,8 km/h (1 Bft) O 79 ° 0 min 0,000 mm 3,7 UV-I 577 W/m² 14,8 °C 21,2 °C 11,3 km/h (2 Bft)
29.07.2018 09:47 21,3 °C 67 % 1012,9 hPa 0,0 mm 7,1 km/h (2 Bft) O-NO 73 ° 0 min 0,000 mm 3,6 UV-I 571 W/m² 14,9 °C 21,3 °C 11,3 km/h (2 Bft)
29.07.2018 09:48 21,2 °C 66 % 1012,9 hPa 0,0 mm 3,7 km/h (1 Bft) O-NO 74 ° 0 min 0,000 mm 3,6 UV-I 536 W/m² 14,6 °C 21,2 °C 6,4 km/h (2 Bft)
29.07.2018 09:49 21,2 °C 68 % 1012,9 hPa 0,0 mm 4,8 km/h (1 Bft) SO 142 ° 0 min 0,000 mm 3,6 UV-I 529 W/m² 15,1 °C 21,2 °C 8,0 km/h (2 Bft)
29.07.2018 09:50 21,2 °C 68 % 1012,9 hPa 0,0 mm 6,1 km/h (2 Bft) NO 44 ° 0 min 0,000 mm 3,7 UV-I 552 W/m² 15,1 °C 21,2 °C 12,9 km/h (3 Bft)
29.07.2018 09:51 21,2 °C 70 % 1012,9 hPa 0,0 mm 4,9 km/h (1 Bft) O-NO 67 ° 0 min 0,000 mm 3,8 UV-I 591 W/m² 15,5 °C 21,2 °C 11,3 km/h (2 Bft)
29.07.2018 09:52 21,2 °C 68 % 1012,9 hPa 0,0 mm 3,9 km/h (1 Bft) NO 49 ° 0 min 0,000 mm 3,6 UV-I 464 W/m² 15,1 °C 21,2 °C 4,8 km/h (1 Bft)
29.07.2018 09:53 21,3 °C 67 % 1012,9 hPa 0,0 mm 4,1 km/h (1 Bft) O-NO 60 ° 0 min 0,000 mm 3,7 UV-I 464 W/m² 14,9 °C 21,3 °C 8,0 km/h (2 Bft)
29.07.2018 09:54 21,3 °C 67 % 1012,9 hPa 0,0 mm 4,9 km/h (1 Bft) NO 53 ° 0 min 0,000 mm 3,6 UV-I 510 W/m² 14,9 °C 21,3 °C 6,4 km/h (2 Bft)
29.07.2018 09:55 21,3 °C 68 % 1012,9 hPa 0,0 mm 6,0 km/h (2 Bft) O-NO 76 ° 0 min 0,000 mm 3,4 UV-I 466 W/m² 15,1 °C 21,3 °C 11,3 km/h (2 Bft)
29.07.2018 09:56 21,3 °C 67 % 1012,9 hPa 0,0 mm 4,4 km/h (1 Bft) NW 325 ° 0 min 0,000 mm 3,6 UV-I 490 W/m² 14,9 °C 21,3 °C 8,0 km/h (2 Bft)
29.07.2018 09:57 21,3 °C 70 % 1012,9 hPa 0,0 mm 6,5 km/h (2 Bft) NO 55 ° 0 min 0,000 mm 3,6 UV-I 515 W/m² 15,6 °C 21,3 °C 14,5 km/h (3 Bft)
29.07.2018 09:58 21,3 °C 67 % 1013,0 hPa 0,0 mm 7,2 km/h (2 Bft) O-NO 65 ° 0 min 0,000 mm 3,6 UV-I 503 W/m² 14,9 °C 21,3 °C 9,7 km/h (2 Bft)
29.07.2018 09:59 21,2 °C 66 % 1013,0 hPa 0,0 mm 3,9 km/h (1 Bft) O-NO 69 ° 0 min 0,000 mm 3,9 UV-I 545 W/m² 14,6 °C 21,2 °C 8,0 km/h (2 Bft)
29.07.2018 10:00 21,2 °C 67 % 1013,0 hPa 0,0 mm 5,2 km/h (1 Bft) NO 54 ° 1 min 0,000 mm 3,9 UV-I 605 W/m² 14,8 °C 21,2 °C 8,0 km/h (2 Bft)
29.07.2018 10:01 21,3 °C 68 % 1013,0 hPa 0,0 mm 6,3 km/h (2 Bft) O 86 ° 1 min 0,305 mm 4,0 UV-I 606 W/m² 15,1 °C 21,3 °C 14,5 km/h (3 Bft)
29.07.2018 10:02 21,3 °C 67 % 1013,0 hPa 0,0 mm 5,3 km/h (1 Bft) O 86 ° 1 min 0,000 mm 4,2 UV-I 647 W/m² 14,9 °C 21,3 °C 6,4 km/h (2 Bft)
29.07.2018 10:03 21,3 °C 68 % 1013,0 hPa 0,0 mm 4,2 km/h (1 Bft) O 97 ° 1 min 0,000 mm 4,1 UV-I 640 W/m² 15,1 °C 21,3 °C 11,3 km/h (2 Bft)
29.07.2018 10:04 21,3 °C 68 % 1013,0 hPa 0,0 mm 5,8 km/h (2 Bft) O 98 ° 0 min 0,000 mm 3,9 UV-I 517 W/m² 15,1 °C 21,3 °C 8,0 km/h (2 Bft)
29.07.2018 10:05 21,3 °C 69 % 1012,9 hPa 0,0 mm 4,8 km/h (1 Bft) NO 56 ° 0 min 0,000 mm 3,7 UV-I 524 W/m² 15,4 °C 21,3 °C 6,4 km/h (2 Bft)
29.07.2018 10:06 21,3 °C 68 % 1013,0 hPa 0,0 mm 3,4 km/h (1 Bft) NO 42 ° 0 min 0,000 mm 3,6 UV-I 512 W/m² 15,1 °C 21,3 °C 8,0 km/h (2 Bft)
29.07.2018 10:07 21,4 °C 67 % 1013,0 hPa 0,0 mm 2,3 km/h (1 Bft) O-NO 61 ° 0 min 0,000 mm 3,7 UV-I 519 W/m² 15,0 °C 21,4 °C 6,4 km/h (2 Bft)
29.07.2018 10:08 21,3 °C 66 % 1013,0 hPa 0,0 mm 3,3 km/h (1 Bft) O-NO 59 ° 0 min 0,000 mm 3,7 UV-I 517 W/m² 14,7 °C 21,3 °C 8,0 km/h (2 Bft)
29.07.2018 10:09 21,3 °C 67 % 1012,9 hPa 0,0 mm 7,2 km/h (2 Bft) O-NO 57 ° 0 min 0,000 mm 3,9 UV-I 533 W/m² 14,9 °C 21,3 °C 11,3 km/h (2 Bft)
29.07.2018 10:10 21,4 °C 65 % 1012,9 hPa 0,0 mm 2,4 km/h (1 Bft) O 86 ° 0 min 0,000 mm 3,9 UV-I 548 W/m² 14,5 °C 21,4 °C 6,4 km/h (2 Bft)
29.07.2018 10:11 21,4 °C 65 % 1013,0 hPa 0,0 mm 7,0 km/h (2 Bft) O-NO 78 ° 0 min 0,000 mm 4,0 UV-I 555 W/m² 14,5 °C 21,4 °C 11,3 km/h (2 Bft)
29.07.2018 10:12 21,4 °C 65 % 1013,0 hPa 0,0 mm 5,0 km/h (1 Bft) O-NO 72 ° 0 min 0,000 mm 3,9 UV-I 529 W/m² 14,5 °C 21,4 °C 8,0 km/h (2 Bft)
29.07.2018 10:13 21,4 °C 64 % 1013,0 hPa 0,0 mm 6,0 km/h (2 Bft) O-NO 68 ° 0 min 0,000 mm 4,1 UV-I 570 W/m² 14,3 °C 21,4 °C 11,3 km/h (2 Bft)
29.07.2018 10:14 21,5 °C 67 % 1013,0 hPa 0,0 mm 6,8 km/h (2 Bft) O 79 ° 1 min 0,000 mm 4,0 UV-I 626 W/m² 15,1 °C 21,5 °C 9,7 km/h (2 Bft)
29.07.2018 10:15 21,6 °C 64 % 1013,0 hPa 0,0 mm 5,9 km/h (2 Bft) O-NO 69 ° 0 min 0,000 mm 3,8 UV-I 522 W/m² 14,5 °C 21,6 °C 8,0 km/h (2 Bft)
29.07.2018 10:16 21,5 °C 65 % 1013,0 hPa 0,0 mm 2,6 km/h (1 Bft) O-NO 78 ° 0 min 0,000 mm 4,0 UV-I 466 W/m² 14,6 °C 21,5 °C 6,4 km/h (2 Bft)
29.07.2018 10:17 21,4 °C 66 % 1012,9 hPa 0,0 mm 3,1 km/h (1 Bft) NO 44 ° 0 min 0,000 mm 4,1 UV-I 564 W/m² 14,8 °C 21,4 °C 6,4 km/h (2 Bft)
29.07.2018 10:18 21,6 °C 66 % 1012,9 hPa 0,0 mm 6,2 km/h (2 Bft) NO 42 ° 1 min 0,000 mm 4,3 UV-I 643 W/m² 15,0 °C 21,6 °C 11,3 km/h (2 Bft)
29.07.2018 10:19 21,6 °C 65 % 1012,9 hPa 0,0 mm 4,8 km/h (1 Bft) N-NO 32 ° 1 min 0,000 mm 4,3 UV-I 608 W/m² 14,7 °C 21,6 °C 6,4 km/h (2 Bft)
29.07.2018 10:20 21,7 °C 65 % 1012,9 hPa 0,0 mm 5,0 km/h (1 Bft) NO 37 ° 1 min 0,000 mm 4,3 UV-I 635 W/m² 14,8 °C 21,7 °C 8,0 km/h (2 Bft)
29.07.2018 10:21 21,7 °C 64 % 1012,9 hPa 0,0 mm 7,1 km/h (2 Bft) NO 56 ° 1 min 0,000 mm 4,0 UV-I 615 W/m² 14,6 °C 21,7 °C 11,3 km/h (2 Bft)
29.07.2018 10:22 21,7 °C 65 % 1012,9 hPa 0,0 mm 6,6 km/h (2 Bft) O-NO 70 ° 0 min 0,000 mm 3,7 UV-I 441 W/m² 14,8 °C 21,7 °C 9,7 km/h (2 Bft)
29.07.2018 10:23 21,8 °C 66 % 1012,9 hPa 0,0 mm 6,7 km/h (2 Bft) O-NO 67 ° 0 min 0,000 mm 4,4 UV-I 441 W/m² 15,2 °C 21,8 °C 11,3 km/h (2 Bft)
29.07.2018 10:24 21,8 °C 64 % 1012,9 hPa 0,0 mm 4,6 km/h (1 Bft) NO 49 ° 1 min 0,000 mm 4,3 UV-I 605 W/m² 14,7 °C 21,8 °C 14,5 km/h (3 Bft)
29.07.2018 10:25 21,8 °C 64 % 1012,8 hPa 0,0 mm 8,1 km/h (2 Bft) O-NO 71 ° 0 min 0,000 mm 3,3 UV-I 591 W/m² 14,7 °C 21,8 °C 14,5 km/h (3 Bft)
29.07.2018 10:26 21,7 °C 63 % 1012,9 hPa 0,0 mm 5,9 km/h (2 Bft) O-SO 112 ° 0 min 0,000 mm 4,3 UV-I 573 W/m² 14,3 °C 21,7 °C 8,0 km/h (2 Bft)
29.07.2018 10:27 21,7 °C 64 % 1012,9 hPa 0,0 mm 5,5 km/h (1 Bft) O-NO 77 ° 1 min 0,000 mm 4,4 UV-I 654 W/m² 14,6 °C 21,7 °C 8,0 km/h (2 Bft)
29.07.2018 10:28 21,8 °C 66 % 1012,8 hPa 0,0 mm 4,7 km/h (1 Bft) NO 37 ° 1 min 0,000 mm 4,6 UV-I 666 W/m² 15,2 °C 21,8 °C 6,4 km/h (2 Bft)
29.07.2018 10:29 21,8 °C 64 % 1012,9 hPa 0,0 mm 7,7 km/h (2 Bft) NO 52 ° 1 min 0,000 mm 4,6 UV-I 650 W/m² 14,7 °C 21,8 °C 12,9 km/h (3 Bft)
29.07.2018 10:30 21,8 °C 64 % 1012,8 hPa 0,0 mm 7,7 km/h (2 Bft) NO 50 ° 1 min 0,000 mm 4,6 UV-I 679 W/m² 14,7 °C 21,8 °C 11,3 km/h (2 Bft)
29.07.2018 10:31 21,9 °C 62 % 1012,8 hPa 0,0 mm 10,6 km/h (2 Bft) O-NO 59 ° 1 min 0,000 mm 4,5 UV-I 679 W/m² 14,3 °C 21,9 °C 14,5 km/h (3 Bft)
29.07.2018 10:32 21,9 °C 62 % 1012,8 hPa 0,0 mm 10,6 km/h (2 Bft) O-NO 60 ° 1 min 0,000 mm 4,6 UV-I 643 W/m² 14,3 °C 21,9 °C 16,1 km/h (3 Bft)
29.07.2018 10:33 21,8 °C 62 % 1012,8 hPa 0,0 mm 8,4 km/h (2 Bft) NO 36 ° 1 min 0,000 mm 4,6 UV-I 626 W/m² 14,2 °C 21,8 °C 14,5 km/h (3 Bft)
29.07.2018 10:34 21,8 °C 64 % 1012,8 hPa 0,0 mm 4,0 km/h (1 Bft) O-NO 58 ° 1 min 0,000 mm 3,4 UV-I 626 W/m² 14,7 °C 21,8 °C 6,4 km/h (2 Bft)
29.07.2018 10:35 21,8 °C 64 % 1012,8 hPa 0,0 mm 3,8 km/h (1 Bft) NO 50 ° 0 min 0,000 mm 3,4 UV-I 399 W/m² 14,7 °C 21,8 °C 6,4 km/h (2 Bft)
29.07.2018 10:36 21,8 °C 63 % 1012,8 hPa 0,0 mm 9,7 km/h (2 Bft) O-NO 65 ° 0 min 0,000 mm 3,3 UV-I 343 W/m² 14,4 °C 21,8 °C 14,5 km/h (3 Bft)
29.07.2018 10:37 21,8 °C 64 % 1012,8 hPa 0,0 mm 7,0 km/h (2 Bft) N-NO 27 ° 0 min 0,000 mm 3,9 UV-I 422 W/m² 14,7 °C 21,8 °C 12,9 km/h (3 Bft)
29.07.2018 10:38 21,8 °C 66 % 1012,8 hPa 0,0 mm 5,4 km/h (1 Bft) O-NO 61 ° 0 min 0,000 mm 4,5 UV-I 422 W/m² 15,2 °C 21,8 °C 8,0 km/h (2 Bft)
29.07.2018 10:39 21,8 °C 64 % 1012,8 hPa 0,0 mm 7,2 km/h (2 Bft) O-NO 67 ° 0 min 0,000 mm 4,3 UV-I 598 W/m² 14,7 °C 21,8 °C 9,7 km/h (2 Bft)
29.07.2018 10:40 21,8 °C 65 % 1012,8 hPa 0,0 mm 7,8 km/h (2 Bft) NO 45 ° 1 min 0,000 mm 4,8 UV-I 642 W/m² 14,9 °C 21,8 °C 11,3 km/h (2 Bft)
29.07.2018 10:41 21,8 °C 63 % 1012,8 hPa 0,0 mm 4,7 km/h (1 Bft) NO 34 ° 1 min 0,000 mm 4,8 UV-I 638 W/m² 14,4 °C 21,8 °C 9,7 km/h (2 Bft)
29.07.2018 10:42 21,8 °C 64 % 1012,8 hPa 0,0 mm 6,9 km/h (2 Bft) NO 40 ° 1 min 0,000 mm 5,0 UV-I 710 W/m² 14,7 °C 21,8 °C 14,5 km/h (3 Bft)
29.07.2018 10:43 21,8 °C 64 % 1012,8 hPa 0,0 mm 10,4 km/h (2 Bft) NO 41 ° 1 min 0,000 mm 5,2 UV-I 728 W/m² 14,7 °C 21,8 °C 17,7 km/h (3 Bft)
29.07.2018 10:44 21,8 °C 64 % 1012,8 hPa 0,0 mm 6,6 km/h (2 Bft) O-NO 76 ° 1 min 0,000 mm 5,2 UV-I 740 W/m² 14,7 °C 21,8 °C 9,7 km/h (2 Bft)
29.07.2018 10:45 21,7 °C 65 % 1012,8 hPa 0,0 mm 6,2 km/h (2 Bft) N-NO 22 ° 1 min 0,000 mm 5,3 UV-I 747 W/m² 14,8 °C 21,7 °C 12,9 km/h (3 Bft)
29.07.2018 10:46 21,8 °C 68 % 1012,8 hPa 0,0 mm 8,0 km/h (2 Bft) O-NO 67 ° 1 min 0,000 mm 5,2 UV-I 729 W/m² 15,6 °C 21,8 °C 12,9 km/h (3 Bft)
29.07.2018 10:47 21,9 °C 64 % 1012,8 hPa 0,0 mm 4,3 km/h (1 Bft) N-NO 28 ° 1 min 0,000 mm 5,3 UV-I 731 W/m² 14,8 °C 21,9 °C 8,0 km/h (2 Bft)
29.07.2018 10:48 22,0 °C 68 % 1012,7 hPa 0,0 mm 4,1 km/h (1 Bft) N-NW 345 ° 1 min 0,000 mm 5,4 UV-I 749 W/m² 15,8 °C 22,0 °C 6,4 km/h (2 Bft)
29.07.2018 10:49 22,2 °C 68 % 1012,7 hPa 0,0 mm 5,8 km/h (2 Bft) N-NO 30 ° 1 min 0,000 mm 5,4 UV-I 756 W/m² 16,0 °C 22,2 °C 12,9 km/h (3 Bft)
29.07.2018 10:50 22,3 °C 63 % 1012,8 hPa 0,0 mm 8,5 km/h (2 Bft) N-NO 21 ° 1 min 0,000 mm 5,4 UV-I 700 W/m² 14,9 °C 22,3 °C 16,1 km/h (3 Bft)
29.07.2018 10:51 22,3 °C 63 % 1012,7 hPa 0,0 mm 6,8 km/h (2 Bft) NO 49 ° 1 min 0,000 mm 5,1 UV-I 619 W/m² 14,9 °C 22,3 °C 8,0 km/h (2 Bft)
29.07.2018 10:52 22,2 °C 63 % 1012,7 hPa 0,0 mm 6,9 km/h (2 Bft) O-NO 68 ° 1 min 0,000 mm 5,1 UV-I 650 W/m² 14,8 °C 22,2 °C 11,3 km/h (2 Bft)
29.07.2018 10:53 22,1 °C 63 % 1012,7 hPa 0,0 mm 7,4 km/h (2 Bft) O-NO 66 ° 1 min 0,000 mm 5,3 UV-I 728 W/m² 14,7 °C 22,1 °C 11,3 km/h (2 Bft)
29.07.2018 10:54 22,1 °C 63 % 1012,7 hPa 0,0 mm 6,1 km/h (2 Bft) N 355 ° 1 min 0,000 mm 5,3 UV-I 714 W/m² 14,7 °C 22,1 °C 14,5 km/h (3 Bft)
29.07.2018 10:55 22,1 °C 64 % 1012,7 hPa 0,0 mm 7,1 km/h (2 Bft) O-NO 71 ° 1 min 0,000 mm 5,5 UV-I 763 W/m² 15,0 °C 22,1 °C 11,3 km/h (2 Bft)
29.07.2018 10:56 22,1 °C 63 % 1012,7 hPa 0,0 mm 6,4 km/h (2 Bft) NO 34 ° 1 min 0,000 mm 5,6 UV-I 795 W/m² 14,7 °C 22,1 °C 11,3 km/h (2 Bft)
29.07.2018 10:57 22,1 °C 65 % 1012,6 hPa 0,0 mm 5,6 km/h (1 Bft) O-NO 65 ° 1 min 0,000 mm 5,2 UV-I 729 W/m² 15,2 °C 22,1 °C 9,7 km/h (2 Bft)
29.07.2018 10:58 22,1 °C 65 % 1012,7 hPa 0,0 mm 6,2 km/h (2 Bft) N-NO 18 ° 1 min 0,000 mm 5,1 UV-I 729 W/m² 15,2 °C 22,1 °C 12,9 km/h (3 Bft)
29.07.2018 10:59 22,2 °C 64 % 1012,8 hPa 0,0 mm 9,5 km/h (2 Bft) O-NO 62 ° 1 min 0,000 mm 5,1 UV-I 729 W/m² 15,1 °C 22,2 °C 12,9 km/h (3 Bft)
29.07.2018 11:00 22,2 °C 63 % 1012,8 hPa 0,0 mm 8,8 km/h (2 Bft) O 96 ° 0 min 0,406 mm 4,7 UV-I 596 W/m² 14,8 °C 22,2 °C 11,3 km/h (2 Bft)
29.07.2018 11:01 22,1 °C 64 % 1012,8 hPa 0,0 mm 5,6 km/h (1 Bft) O-NO 63 ° 1 min 0,000 mm 4,5 UV-I 652 W/m² 15,0 °C 22,1 °C 8,0 km/h (2 Bft)
29.07.2018 11:02 22,1 °C 64 % 1012,7 hPa 0,0 mm 3,8 km/h (1 Bft) NO 42 ° 0 min 0,000 mm 3,5 UV-I 406 W/m² 15,0 °C 22,1 °C 6,4 km/h (2 Bft)
29.07.2018 11:03 22,0 °C 63 % 1012,7 hPa 0,0 mm 5,9 km/h (2 Bft) O-NO 69 ° 0 min 0,000 mm 3,4 UV-I 406 W/m² 14,6 °C 22,0 °C 9,7 km/h (2 Bft)
29.07.2018 11:04 21,9 °C 63 % 1012,7 hPa 0,0 mm 2,8 km/h (1 Bft) NO 52 ° 0 min 0,000 mm 4,0 UV-I 406 W/m² 14,5 °C 21,9 °C 6,4 km/h (2 Bft)
29.07.2018 11:05 21,8 °C 66 % 1012,7 hPa 0,0 mm 3,4 km/h (1 Bft) N-NO 26 ° 0 min 0,000 mm 3,8 UV-I 392 W/m² 15,2 °C 21,8 °C 6,4 km/h (2 Bft)
29.07.2018 11:06 21,9 °C 66 % 1012,7 hPa 0,0 mm 6,3 km/h (2 Bft) NO 54 ° 0 min 0,000 mm 3,7 UV-I 434 W/m² 15,3 °C 21,9 °C 9,7 km/h (2 Bft)
29.07.2018 11:07 22,0 °C 65 % 1012,7 hPa 0,0 mm 5,0 km/h (1 Bft) O-NO 64 ° 0 min 0,000 mm 4,3 UV-I 454 W/m² 15,1 °C 22,0 °C 9,7 km/h (2 Bft)
29.07.2018 11:08 22,1 °C 65 % 1012,7 hPa 0,0 mm 3,1 km/h (1 Bft) O-NO 76 ° 0 min 0,000 mm 4,2 UV-I 469 W/m² 15,2 °C 22,1 °C 6,4 km/h (2 Bft)
29.07.2018 11:09 22,1 °C 65 % 1012,7 hPa 0,0 mm 4,6 km/h (1 Bft) O-NO 68 ° 0 min 0,000 mm 4,6 UV-I 543 W/m² 15,2 °C 22,1 °C 6,4 km/h (2 Bft)
29.07.2018 11:10 22,0 °C 65 % 1012,7 hPa 0,0 mm 3,9 km/h (1 Bft) NO 54 ° 0 min 0,000 mm 5,1 UV-I 543 W/m² 15,1 °C 22,0 °C 4,8 km/h (1 Bft)
29.07.2018 11:11 21,9 °C 64 % 1012,6 hPa 0,0 mm 2,0 km/h (1 Bft) NO 47 ° 1 min 0,000 mm 5,1 UV-I 677 W/m² 14,8 °C 21,9 °C 4,8 km/h (1 Bft)
29.07.2018 11:12 21,9 °C 66 % 1012,6 hPa 0,0 mm 4,1 km/h (1 Bft) O-NO 67 ° 1 min 0,000 mm 4,9 UV-I 649 W/m² 15,3 °C 21,9 °C 11,3 km/h (2 Bft)
29.07.2018 11:13 22,0 °C 65 % 1012,6 hPa 0,0 mm 7,9 km/h (2 Bft) O 80 ° 1 min 0,000 mm 4,9 UV-I 610 W/m² 15,1 °C 22,0 °C 11,3 km/h (2 Bft)
29.07.2018 11:14 22,0 °C 65 % 1012,6 hPa 0,0 mm 4,7 km/h (1 Bft) NO 36 ° 1 min 0,000 mm 5,3 UV-I 628 W/m² 15,1 °C 22,0 °C 6,4 km/h (2 Bft)
29.07.2018 11:15 22,1 °C 65 % 1012,6 hPa 0,0 mm 1,5 km/h (1 Bft) O-NO 72 ° 1 min 0,000 mm 3,6 UV-I 628 W/m² 15,2 °C 22,1 °C 4,8 km/h (1 Bft)
29.07.2018 11:16 22,1 °C 65 % 1012,7 hPa 0,0 mm 1,5 km/h (1 Bft) O-NO 74 ° 1 min 0,000 mm 3,1 UV-I 628 W/m² 15,2 °C 22,1 °C 4,8 km/h (1 Bft)
29.07.2018 11:17 22,1 °C 67 % 1012,7 hPa 0,0 mm 3,4 km/h (1 Bft) O-NO 74 ° 0 min 0,000 mm 2,8 UV-I 190 W/m² 15,7 °C 22,1 °C 4,8 km/h (1 Bft)
29.07.2018 11:18 22,0 °C 67 % 1012,7 hPa 0,0 mm 1,8 km/h (1 Bft) O-NO 65 ° 0 min 0,000 mm 2,9 UV-I 195 W/m² 15,6 °C 22,0 °C 4,8 km/h (1 Bft)
29.07.2018 11:19 21,9 °C 68 % 1012,6 hPa 0,0 mm 1,8 km/h (1 Bft) NO 50 ° 0 min 0,000 mm 2,9 UV-I 195 W/m² 15,7 °C 21,9 °C 6,4 km/h (2 Bft)
29.07.2018 11:20 21,9 °C 65 % 1012,7 hPa 0,0 mm 5,1 km/h (1 Bft) NO 55 ° 1 min 0,000 mm 5,9 UV-I 803 W/m² 15,0 °C 21,9 °C 8,0 km/h (2 Bft)
29.07.2018 11:21 22,1 °C 66 % 1012,6 hPa 0,0 mm 4,4 km/h (1 Bft) NO 47 ° 1 min 0,000 mm 5,9 UV-I 788 W/m² 15,4 °C 22,1 °C 6,4 km/h (2 Bft)
29.07.2018 11:22 22,3 °C 67 % 1012,6 hPa 0,0 mm 5,4 km/h (1 Bft) NO 41 ° 1 min 0,000 mm 6,0 UV-I 796 W/m² 15,9 °C 22,3 °C 9,7 km/h (2 Bft)
29.07.2018 11:23 22,4 °C 66 % 1012,6 hPa 0,0 mm 7,2 km/h (2 Bft) O-NO 66 ° 1 min 0,000 mm 6,0 UV-I 789 W/m² 15,7 °C 22,4 °C 9,7 km/h (2 Bft)
29.07.2018 11:24 22,4 °C 66 % 1012,6 hPa 0,0 mm 7,1 km/h (2 Bft) O-NO 67 ° 1 min 0,000 mm 6,0 UV-I 789 W/m² 15,7 °C 22,4 °C 11,3 km/h (2 Bft)
29.07.2018 11:25 22,3 °C 66 % 1012,6 hPa 0,0 mm 2,2 km/h (1 Bft) O-NO 57 ° 1 min 0,000 mm 6,1 UV-I 798 W/m² 15,6 °C 22,3 °C 4,8 km/h (1 Bft)
29.07.2018 11:26 22,3 °C 66 % 1012,6 hPa 0,0 mm 5,1 km/h (1 Bft) O-NO 68 ° 1 min 0,000 mm 6,1 UV-I 805 W/m² 15,6 °C 22,3 °C 8,0 km/h (2 Bft)
29.07.2018 11:27 22,3 °C 67 % 1012,6 hPa 0,0 mm 7,8 km/h (2 Bft) NO 47 ° 1 min 0,000 mm 6,1 UV-I 810 W/m² 15,9 °C 22,3 °C 9,7 km/h (2 Bft)
29.07.2018 11:28 22,2 °C 65 % 1012,5 hPa 0,0 mm 3,8 km/h (1 Bft) NO 36 ° 1 min 0,000 mm 6,1 UV-I 810 W/m² 15,3 °C 22,2 °C 9,7 km/h (2 Bft)
29.07.2018 11:29 22,3 °C 67 % 1012,5 hPa 0,0 mm 6,8 km/h (2 Bft) O-SO 106 ° 1 min 0,000 mm 6,0 UV-I 795 W/m² 15,9 °C 22,3 °C 12,9 km/h (3 Bft)
29.07.2018 11:30 22,3 °C 67 % 1012,5 hPa 0,0 mm 8,3 km/h (2 Bft) O-NO 73 ° 1 min 0,000 mm 5,9 UV-I 756 W/m² 15,9 °C 22,3 °C 14,5 km/h (3 Bft)
29.07.2018 11:31 22,3 °C 69 % 1012,6 hPa 0,0 mm 5,3 km/h (1 Bft) O-NO 76 ° 1 min 0,000 mm 5,6 UV-I 759 W/m² 16,3 °C 22,3 °C 9,7 km/h (2 Bft)
29.07.2018 11:32 22,3 °C 67 % 1012,5 hPa 0,0 mm 7,3 km/h (2 Bft) N 355 ° 1 min 0,000 mm 6,0 UV-I 786 W/m² 15,9 °C 22,3 °C 11,3 km/h (2 Bft)
29.07.2018 11:33 22,3 °C 66 % 1012,5 hPa 0,0 mm 3,1 km/h (1 Bft) NO 37 ° 1 min 0,000 mm 6,2 UV-I 800 W/m² 15,6 °C 22,3 °C 6,4 km/h (2 Bft)
29.07.2018 11:34 22,3 °C 66 % 1012,5 hPa 0,0 mm 8,0 km/h (2 Bft) NO 49 ° 1 min 0,000 mm 6,1 UV-I 795 W/m² 15,6 °C 22,3 °C 11,3 km/h (2 Bft)
29.07.2018 11:35 22,3 °C 67 % 1012,5 hPa 0,0 mm 7,1 km/h (2 Bft) O-NO 74 ° 1 min 0,000 mm 6,1 UV-I 761 W/m² 15,9 °C 22,3 °C 11,3 km/h (2 Bft)
29.07.2018 11:36 22,3 °C 66 % 1012,5 hPa 0,0 mm 2,8 km/h (1 Bft) NO 36 ° 1 min 0,000 mm 6,2 UV-I 807 W/m² 15,6 °C 22,3 °C 8,0 km/h (2 Bft)
29.07.2018 11:37 22,3 °C 68 % 1012,4 hPa 0,0 mm 1,3 km/h (1 Bft) NO 38 ° 1 min 0,000 mm 6,1 UV-I 773 W/m² 16,1 °C 22,3 °C 4,8 km/h (1 Bft)
29.07.2018 11:38 22,5 °C 69 % 1012,5 hPa 0,0 mm 3,0 km/h (1 Bft) NO 44 ° 1 min 0,000 mm 6,4 UV-I 817 W/m² 16,5 °C 22,5 °C 8,0 km/h (2 Bft)
29.07.2018 11:39 22,7 °C 69 % 1012,5 hPa 0,0 mm 4,6 km/h (1 Bft) N 360 ° 1 min 0,000 mm 6,4 UV-I 830 W/m² 16,7 °C 22,7 °C 8,0 km/h (2 Bft)
29.07.2018 11:40 22,8 °C 67 % 1012,5 hPa 0,0 mm 6,7 km/h (2 Bft) N-NO 25 ° 1 min 0,000 mm 6,4 UV-I 831 W/m² 16,3 °C 22,8 °C 8,0 km/h (2 Bft)
29.07.2018 11:41 22,8 °C 67 % 1012,4 hPa 0,0 mm 6,2 km/h (2 Bft) NO 54 ° 1 min 0,000 mm 6,5 UV-I 835 W/m² 16,3 °C 22,8 °C 9,7 km/h (2 Bft)
29.07.2018 11:42 22,9 °C 66 % 1012,4 hPa 0,0 mm 5,1 km/h (1 Bft) NO 44 ° 1 min 0,000 mm 6,2 UV-I 758 W/m² 16,2 °C 22,9 °C 6,4 km/h (2 Bft)
29.07.2018 11:43 22,9 °C 65 % 1012,4 hPa 0,0 mm 7,5 km/h (2 Bft) N-NO 32 ° 1 min 0,000 mm 6,2 UV-I 782 W/m² 16,0 °C 22,9 °C 12,9 km/h (3 Bft)
29.07.2018 11:44 22,9 °C 65 % 1012,4 hPa 0,0 mm 5,1 km/h (1 Bft) NO 46 ° 1 min 0,000 mm 6,1 UV-I 758 W/m² 16,0 °C 22,9 °C 8,0 km/h (2 Bft)
29.07.2018 11:45 23,0 °C 65 % 1012,4 hPa 0,0 mm 5,8 km/h (2 Bft) N-NO 12 ° 1 min 0,000 mm 6,2 UV-I 761 W/m² 16,1 °C 23,0 °C 8,0 km/h (2 Bft)
29.07.2018 11:46 23,2 °C 65 % 1012,4 hPa 0,0 mm 7,6 km/h (2 Bft) N 355 ° 1 min 0,000 mm 6,3 UV-I 791 W/m² 16,2 °C 23,2 °C 12,9 km/h (3 Bft)
29.07.2018 11:47 23,2 °C 66 % 1012,4 hPa 0,0 mm 5,7 km/h (1 Bft) NO 34 ° 1 min 0,000 mm 6,3 UV-I 782 W/m² 16,5 °C 23,2 °C 8,0 km/h (2 Bft)
29.07.2018 11:48 23,3 °C 66 % 1012,3 hPa 0,0 mm 8,5 km/h (2 Bft) NO 45 ° 1 min 0,000 mm 6,4 UV-I 803 W/m² 16,6 °C 23,3 °C 12,9 km/h (3 Bft)
29.07.2018 11:49 23,3 °C 63 % 1012,4 hPa 0,0 mm 7,5 km/h (2 Bft) N-NO 31 ° 1 min 0,000 mm 6,4 UV-I 807 W/m² 15,9 °C 23,3 °C 9,7 km/h (2 Bft)
29.07.2018 11:50 23,3 °C 63 % 1012,3 hPa 0,0 mm 5,8 km/h (2 Bft) NO 46 ° 1 min 0,000 mm 6,5 UV-I 816 W/m² 15,9 °C 23,3 °C 11,3 km/h (2 Bft)
29.07.2018 11:51 23,3 °C 64 % 1012,3 hPa 0,0 mm 6,8 km/h (2 Bft) O-SO 117 ° 1 min 0,000 mm 6,5 UV-I 810 W/m² 16,1 °C 23,3 °C 9,7 km/h (2 Bft)
29.07.2018 11:52 23,2 °C 65 % 1012,3 hPa 0,0 mm 3,5 km/h (1 Bft) O 84 ° 1 min 0,000 mm 6,6 UV-I 819 W/m² 16,2 °C 23,2 °C 6,4 km/h (2 Bft)
29.07.2018 11:53 23,1 °C 66 % 1012,3 hPa 0,0 mm 5,9 km/h (2 Bft) NO 56 ° 1 min 0,000 mm 6,7 UV-I 847 W/m² 16,4 °C 23,1 °C 9,7 km/h (2 Bft)
29.07.2018 11:54 23,2 °C 65 % 1012,3 hPa 0,0 mm 8,2 km/h (2 Bft) NO 53 ° 1 min 0,000 mm 6,6 UV-I 837 W/m² 16,2 °C 23,2 °C 12,9 km/h (3 Bft)
29.07.2018 11:55 23,2 °C 64 % 1012,3 hPa 0,0 mm 8,0 km/h (2 Bft) O 83 ° 1 min 0,000 mm 6,7 UV-I 831 W/m² 16,0 °C 23,2 °C 14,5 km/h (3 Bft)
29.07.2018 11:56 23,1 °C 64 % 1012,3 hPa 0,0 mm 6,6 km/h (2 Bft) NO 44 ° 1 min 0,000 mm 6,5 UV-I 816 W/m² 15,9 °C 23,1 °C 8,0 km/h (2 Bft)
29.07.2018 11:57 23,1 °C 62 % 1012,3 hPa 0,0 mm 5,8 km/h (2 Bft) S-SO 159 ° 1 min 0,000 mm 6,5 UV-I 802 W/m² 15,4 °C 23,1 °C 12,9 km/h (3 Bft)
29.07.2018 11:58 23,1 °C 67 % 1012,3 hPa 0,0 mm 6,2 km/h (2 Bft) O-NO 62 ° 1 min 0,000 mm 6,6 UV-I 826 W/m² 16,6 °C 23,1 °C 9,7 km/h (2 Bft)
29.07.2018 11:59 23,2 °C 67 % 1012,3 hPa 0,0 mm 4,1 km/h (1 Bft) O-NO 63 ° 1 min 0,000 mm 6,6 UV-I 823 W/m² 16,7 °C 23,2 °C 9,7 km/h (2 Bft)
29.07.2018 12:00 23,2 °C 64 % 1012,2 hPa 0,0 mm 2,7 km/h (1 Bft) O-NO 64 ° 1 min 0,000 mm 6,5 UV-I 817 W/m² 16,0 °C 23,2 °C 6,4 km/h (2 Bft)
29.07.2018 12:01 23,2 °C 62 % 1012,2 hPa 0,0 mm 5,0 km/h (1 Bft) O-NO 68 ° 1 min 0,432 mm 6,4 UV-I 761 W/m² 15,5 °C 23,2 °C 8,0 km/h (2 Bft)
29.07.2018 12:02 23,2 °C 62 % 1012,2 hPa 0,0 mm 7,4 km/h (2 Bft) N-NO 27 ° 1 min 0,000 mm 6,3 UV-I 752 W/m² 15,5 °C 23,2 °C 12,9 km/h (3 Bft)
29.07.2018 12:03 23,3 °C 63 % 1012,2 hPa 0,0 mm 6,9 km/h (2 Bft) O 86 ° 1 min 0,000 mm 6,2 UV-I 733 W/m² 15,9 °C 23,3 °C 14,5 km/h (3 Bft)
29.07.2018 12:04 23,4 °C 64 % 1012,3 hPa 0,0 mm 5,6 km/h (1 Bft) O-NO 67 ° 1 min 0,000 mm 6,2 UV-I 756 W/m² 16,2 °C 23,4 °C 11,3 km/h (2 Bft)
29.07.2018 12:05 23,3 °C 61 % 1012,3 hPa 0,0 mm 4,2 km/h (1 Bft) O-NO 70 ° 1 min 0,000 mm 6,4 UV-I 784 W/m² 15,3 °C 23,3 °C 6,4 km/h (2 Bft)
29.07.2018 12:06 23,3 °C 61 % 1012,3 hPa 0,0 mm 6,5 km/h (2 Bft) O 85 ° 1 min 0,000 mm 6,3 UV-I 765 W/m² 15,3 °C 23,3 °C 8,0 km/h (2 Bft)
29.07.2018 12:07 23,2 °C 62 % 1012,3 hPa 0,0 mm 5,7 km/h (1 Bft) O 98 ° 1 min 0,000 mm 6,6 UV-I 819 W/m² 15,5 °C 23,2 °C 9,7 km/h (2 Bft)
29.07.2018 12:08 23,2 °C 63 % 1012,2 hPa 0,0 mm 3,5 km/h (1 Bft) O 96 ° 1 min 0,000 mm 6,5 UV-I 805 W/m² 15,8 °C 23,2 °C 6,4 km/h (2 Bft)
29.07.2018 12:09 23,2 °C 62 % 1012,2 hPa 0,0 mm 4,7 km/h (1 Bft) O 90 ° 1 min 0,000 mm 6,5 UV-I 805 W/m² 15,5 °C 23,2 °C 9,7 km/h (2 Bft)
29.07.2018 12:10 23,3 °C 63 % 1012,2 hPa 0,0 mm 5,6 km/h (1 Bft) O-NO 62 ° 1 min 0,000 mm 6,7 UV-I 823 W/m² 15,9 °C 23,3 °C 9,7 km/h (2 Bft)
29.07.2018 12:11 23,4 °C 63 % 1012,2 hPa 0,0 mm 6,4 km/h (2 Bft) NO 52 ° 1 min 0,000 mm 6,7 UV-I 803 W/m² 15,9 °C 23,4 °C 9,7 km/h (2 Bft)
29.07.2018 12:12 23,6 °C 63 % 1012,2 hPa 0,0 mm 7,2 km/h (2 Bft) N-NO 24 ° 1 min 0,000 mm 6,9 UV-I 858 W/m² 16,1 °C 23,6 °C 9,7 km/h (2 Bft)
29.07.2018 12:13 23,8 °C 62 % 1012,2 hPa 0,0 mm 7,5 km/h (2 Bft) O-NO 60 ° 1 min 0,000 mm 6,9 UV-I 833 W/m² 16,1 °C 23,8 °C 9,7 km/h (2 Bft)
29.07.2018 12:14 23,8 °C 60 % 1012,2 hPa 0,0 mm 7,2 km/h (2 Bft) O 93 ° 1 min 0,000 mm 6,6 UV-I 826 W/m² 15,6 °C 23,8 °C 9,7 km/h (2 Bft)
29.07.2018 12:15 23,8 °C 60 % 1012,2 hPa 0,0 mm 3,1 km/h (1 Bft) O-NO 66 ° 1 min 0,000 mm 6,7 UV-I 819 W/m² 15,6 °C 23,8 °C 6,4 km/h (2 Bft)
29.07.2018 12:16 23,8 °C 61 % 1012,2 hPa 0,0 mm 5,2 km/h (1 Bft) NO 46 ° 1 min 0,000 mm 6,5 UV-I 833 W/m² 15,8 °C 23,8 °C 8,0 km/h (2 Bft)
29.07.2018 12:17 23,9 °C 64 % 1012,2 hPa 0,0 mm 5,2 km/h (1 Bft) N 355 ° 1 min 0,000 mm 6,2 UV-I 742 W/m² 16,7 °C 23,9 °C 9,7 km/h (2 Bft)
29.07.2018 12:18 24,1 °C 61 % 1012,1 hPa 0,0 mm 9,2 km/h (2 Bft) NO 55 ° 1 min 0,000 mm 6,7 UV-I 867 W/m² 16,1 °C 24,1 °C 14,5 km/h (3 Bft)
29.07.2018 12:19 24,2 °C 60 % 1012,1 hPa 0,0 mm 7,2 km/h (2 Bft) N-NO 23 ° 1 min 0,000 mm 7,2 UV-I 907 W/m² 15,9 °C 24,2 °C 14,5 km/h (3 Bft)
29.07.2018 12:20 24,3 °C 59 % 1012,1 hPa 0,0 mm 9,8 km/h (2 Bft) O-NO 68 ° 1 min 0,000 mm 7,0 UV-I 856 W/m² 15,8 °C 24,3 °C 14,5 km/h (3 Bft)
29.07.2018 12:21 24,3 °C 59 % 1012,1 hPa 0,0 mm 5,2 km/h (1 Bft) O-SO 106 ° 1 min 0,000 mm 7,2 UV-I 893 W/m² 15,8 °C 24,3 °C 9,7 km/h (2 Bft)
29.07.2018 12:22 24,2 °C 61 % 1012,1 hPa 0,0 mm 3,3 km/h (1 Bft) O 88 ° 1 min 0,000 mm 6,7 UV-I 833 W/m² 16,2 °C 24,2 °C 6,4 km/h (2 Bft)
29.07.2018 12:23 24,2 °C 58 % 1012,1 hPa 0,0 mm 2,9 km/h (1 Bft) O-SO 103 ° 1 min 0,000 mm 7,1 UV-I 861 W/m² 15,4 °C 24,2 °C 4,8 km/h (1 Bft)
29.07.2018 12:24 24,0 °C 61 % 1012,1 hPa 0,0 mm 2,5 km/h (1 Bft) S 190 ° 1 min 0,000 mm 7,0 UV-I 888 W/m² 16,0 °C 24,0 °C 4,8 km/h (1 Bft)
29.07.2018 12:25 23,9 °C 60 % 1012,1 hPa 0,0 mm 2,2 km/h (1 Bft) NO 53 ° 1 min 0,000 mm 6,7 UV-I 796 W/m² 15,7 °C 23,9 °C 9,7 km/h (2 Bft)
29.07.2018 12:26 23,9 °C 62 % 1012,1 hPa 0,0 mm 8,1 km/h (2 Bft) O 85 ° 1 min 0,000 mm 6,4 UV-I 766 W/m² 16,2 °C 23,9 °C 12,9 km/h (3 Bft)
29.07.2018 12:27 23,9 °C 62 % 1012,1 hPa 0,0 mm 6,5 km/h (2 Bft) O-NO 65 ° 1 min 0,000 mm 6,4 UV-I 777 W/m² 16,2 °C 23,9 °C 11,3 km/h (2 Bft)
29.07.2018 12:28 23,9 °C 59 % 1012,1 hPa 0,0 mm 3,5 km/h (1 Bft) O-NO 64 ° 1 min 0,000 mm 6,5 UV-I 789 W/m² 15,4 °C 23,9 °C 6,4 km/h (2 Bft)
29.07.2018 12:29 23,8 °C 62 % 1012,1 hPa 0,0 mm 2,4 km/h (1 Bft) NO 38 ° 1 min 0,000 mm 6,5 UV-I 789 W/m² 16,1 °C 23,8 °C 6,4 km/h (2 Bft)
29.07.2018 12:30 23,9 °C 62 % 1012,1 hPa 0,0 mm 0,5 km/h (0 Bft) NO 38 ° 1 min 0,000 mm 6,6 UV-I 798 W/m² 16,2 °C 23,9 °C 1,6 km/h (1 Bft)
29.07.2018 12:31 24,1 °C 64 % 1012,0 hPa 0,0 mm 2,3 km/h (1 Bft) O-NO 78 ° 1 min 0,000 mm 5,9 UV-I 798 W/m² 16,9 °C 24,1 °C 4,8 km/h (1 Bft)
29.07.2018 12:32 24,2 °C 62 % 1012,0 hPa 0,0 mm 5,6 km/h (1 Bft) O-NO 61 ° 1 min 0,000 mm 5,9 UV-I 798 W/m² 16,4 °C 24,2 °C 8,0 km/h (2 Bft)
29.07.2018 12:33 24,1 °C 60 % 1012,0 hPa 0,0 mm 6,8 km/h (2 Bft) O 90 ° 1 min 0,000 mm 6,5 UV-I 798 W/m² 15,8 °C 24,1 °C 9,7 km/h (2 Bft)
29.07.2018 12:34 24,1 °C 63 % 1012,0 hPa 0,0 mm 3,7 km/h (1 Bft) O-NO 67 ° 1 min 0,000 mm 6,3 UV-I 770 W/m² 16,6 °C 24,1 °C 4,8 km/h (1 Bft)
29.07.2018 12:35 24,1 °C 62 % 1012,0 hPa 0,0 mm 3,0 km/h (1 Bft) N-NO 20 ° 1 min 0,000 mm 6,4 UV-I 770 W/m² 16,4 °C 24,1 °C 6,4 km/h (2 Bft)
29.07.2018 12:36 24,2 °C 60 % 1012,0 hPa 0,0 mm 5,0 km/h (1 Bft) NO 50 ° 1 min 0,000 mm 6,4 UV-I 710 W/m² 15,9 °C 24,2 °C 14,5 km/h (3 Bft)
29.07.2018 12:37 24,1 °C 62 % 1012,1 hPa 0,0 mm 8,1 km/h (2 Bft) O 85 ° 1 min 0,000 mm 6,2 UV-I 745 W/m² 16,4 °C 24,1 °C 12,9 km/h (3 Bft)
29.07.2018 12:38 24,1 °C 61 % 1012,0 hPa 0,0 mm 8,4 km/h (2 Bft) O-NO 59 ° 1 min 0,000 mm 6,4 UV-I 733 W/m² 16,1 °C 24,1 °C 12,9 km/h (3 Bft)
29.07.2018 12:39 24,1 °C 60 % 1012,1 hPa 0,0 mm 5,5 km/h (1 Bft) O 85 ° 1 min 0,000 mm 5,6 UV-I 668 W/m² 15,8 °C 24,1 °C 8,0 km/h (2 Bft)
29.07.2018 12:40 24,1 °C 61 % 1012,0 hPa 0,0 mm 5,3 km/h (1 Bft) NO 56 ° 1 min 0,000 mm 5,8 UV-I 645 W/m² 16,1 °C 24,1 °C 9,7 km/h (2 Bft)
29.07.2018 12:41 24,1 °C 60 % 1012,1 hPa 0,0 mm 5,4 km/h (1 Bft) O-NO 57 ° 1 min 0,000 mm 5,6 UV-I 647 W/m² 15,8 °C 24,1 °C 9,7 km/h (2 Bft)
29.07.2018 12:42 24,1 °C 61 % 1012,1 hPa 0,0 mm 2,9 km/h (1 Bft) N-NO 23 ° 1 min 0,000 mm 5,5 UV-I 638 W/m² 16,1 °C 24,1 °C 6,4 km/h (2 Bft)
29.07.2018 12:43 24,2 °C 61 % 1012,0 hPa 0,0 mm 4,0 km/h (1 Bft) O-NO 57 ° 1 min 0,000 mm 5,6 UV-I 659 W/m² 16,2 °C 24,2 °C 6,4 km/h (2 Bft)
29.07.2018 12:44 24,1 °C 59 % 1012,0 hPa 0,0 mm 1,9 km/h (1 Bft) O-NO 57 ° 0 min 0,000 mm 5,4 UV-I 589 W/m² 15,6 °C 24,1 °C 4,8 km/h (1 Bft)
29.07.2018 12:45 24,0 °C 57 % 1012,0 hPa 0,0 mm 2,4 km/h (1 Bft) O-NO 61 ° 0 min 0,000 mm 6,1 UV-I 589 W/m² 14,9 °C 24,0 °C 4,8 km/h (1 Bft)
29.07.2018 12:46 24,0 °C 62 % 1012,0 hPa 0,0 mm 7,0 km/h (2 Bft) N-NW 347 ° 1 min 0,000 mm 6,4 UV-I 761 W/m² 16,3 °C 24,0 °C 9,7 km/h (2 Bft)
29.07.2018 12:47 24,2 °C 63 % 1012,0 hPa 0,0 mm 6,8 km/h (2 Bft) N 5 ° 1 min 0,000 mm 6,6 UV-I 784 W/m² 16,7 °C 24,2 °C 11,3 km/h (2 Bft)
29.07.2018 12:48 24,2 °C 60 % 1012,0 hPa 0,0 mm 4,3 km/h (1 Bft) N-NO 17 ° 1 min 0,000 mm 6,6 UV-I 821 W/m² 15,9 °C 24,2 °C 6,4 km/h (2 Bft)
29.07.2018 12:49 24,3 °C 59 % 1012,0 hPa 0,0 mm 7,0 km/h (2 Bft) N-NO 16 ° 1 min 0,000 mm 6,8 UV-I 805 W/m² 15,8 °C 24,3 °C 11,3 km/h (2 Bft)
29.07.2018 12:50 24,3 °C 61 % 1012,0 hPa 0,0 mm 6,8 km/h (2 Bft) N-NO 15 ° 1 min 0,000 mm 6,0 UV-I 715 W/m² 16,3 °C 24,3 °C 11,3 km/h (2 Bft)
29.07.2018 12:51 24,4 °C 60 % 1012,0 hPa 0,0 mm 4,6 km/h (1 Bft) N-NO 16 ° 1 min 0,000 mm 5,4 UV-I 622 W/m² 16,1 °C 24,4 °C 8,0 km/h (2 Bft)
29.07.2018 12:52 24,5 °C 59 % 1012,0 hPa 0,0 mm 6,1 km/h (2 Bft) N-NO 26 ° 1 min 0,000 mm 6,0 UV-I 631 W/m² 15,9 °C 24,5 °C 8,0 km/h (2 Bft)
29.07.2018 12:53 24,6 °C 61 % 1012,0 hPa 0,0 mm 4,4 km/h (1 Bft) N 355 ° 1 min 0,000 mm 6,6 UV-I 735 W/m² 16,6 °C 24,6 °C 9,7 km/h (2 Bft)
29.07.2018 12:54 24,5 °C 58 % 1012,0 hPa 0,0 mm 4,5 km/h (1 Bft) N-NO 15 ° 1 min 0,000 mm 5,6 UV-I 735 W/m² 15,7 °C 24,5 °C 14,5 km/h (3 Bft)
29.07.2018 12:55 24,6 °C 59 % 1012,0 hPa 0,0 mm 5,2 km/h (1 Bft) N 11 ° 0 min 0,000 mm 5,1 UV-I 540 W/m² 16,0 °C 24,6 °C 12,9 km/h (3 Bft)
29.07.2018 12:56 24,6 °C 60 % 1012,0 hPa 0,0 mm 3,8 km/h (1 Bft) N-NW 332 ° 0 min 0,000 mm 5,3 UV-I 578 W/m² 16,3 °C 24,6 °C 8,0 km/h (2 Bft)
29.07.2018 12:57 24,6 °C 61 % 1012,0 hPa 0,0 mm 9,9 km/h (2 Bft) N-NO 14 ° 0 min 0,000 mm 5,3 UV-I 554 W/m² 16,6 °C 24,6 °C 14,5 km/h (3 Bft)
29.07.2018 12:58 24,6 °C 59 % 1012,0 hPa 0,0 mm 5,0 km/h (1 Bft) N 360 ° 0 min 0,000 mm 5,4 UV-I 543 W/m² 16,0 °C 24,6 °C 11,3 km/h (2 Bft)
29.07.2018 12:59 24,5 °C 62 % 1011,9 hPa 0,0 mm 5,2 km/h (1 Bft) N 360 ° 1 min 0,000 mm 5,8 UV-I 719 W/m² 16,7 °C 24,5 °C 16,1 km/h (3 Bft)
29.07.2018 13:00 24,5 °C 59 % 1012,0 hPa 0,0 mm 9,7 km/h (2 Bft) N 360 ° 1 min 0,000 mm 6,3 UV-I 710 W/m² 15,9 °C 24,5 °C 14,5 km/h (3 Bft)
29.07.2018 13:01 24,4 °C 58 % 1012,0 hPa 0,0 mm 3,4 km/h (1 Bft) N-NO 33 ° 1 min 0,483 mm 6,2 UV-I 731 W/m² 15,6 °C 24,4 °C 4,8 km/h (1 Bft)
29.07.2018 13:02 24,4 °C 60 % 1012,0 hPa 0,0 mm 5,5 km/h (1 Bft) O-NO 61 ° 1 min 0,000 mm 6,4 UV-I 689 W/m² 16,1 °C 24,4 °C 8,0 km/h (2 Bft)
29.07.2018 13:03 24,3 °C 58 % 1011,9 hPa 0,0 mm 3,5 km/h (1 Bft) SO 126 ° 1 min 0,000 mm 7,2 UV-I 689 W/m² 15,5 °C 24,3 °C 8,0 km/h (2 Bft)
29.07.2018 13:04 24,3 °C 61 % 1011,9 hPa 0,0 mm 2,0 km/h (1 Bft) O-NO 63 ° 1 min 0,000 mm 7,6 UV-I 979 W/m² 16,3 °C 24,3 °C 4,8 km/h (1 Bft)
29.07.2018 13:05 24,4 °C 61 % 1011,9 hPa 0,0 mm 6,2 km/h (2 Bft) NO 53 ° 1 min 0,000 mm 7,4 UV-I 891 W/m² 16,4 °C 24,4 °C 12,9 km/h (3 Bft)
29.07.2018 13:06 24,4 °C 58 % 1011,9 hPa 0,0 mm 7,4 km/h (2 Bft) O-NO 76 ° 1 min 0,000 mm 7,6 UV-I 939 W/m² 15,6 °C 24,4 °C 11,3 km/h (2 Bft)
29.07.2018 13:07 24,4 °C 59 % 1011,9 hPa 0,0 mm 1,7 km/h (1 Bft) O-NO 76 ° 1 min 0,000 mm 7,7 UV-I 972 W/m² 15,9 °C 24,4 °C 6,4 km/h (2 Bft)
29.07.2018 13:08 24,3 °C 57 % 1011,9 hPa 0,0 mm 3,9 km/h (1 Bft) O 82 ° 1 min 0,000 mm 7,4 UV-I 900 W/m² 15,2 °C 24,3 °C 6,4 km/h (2 Bft)
29.07.2018 13:09 24,4 °C 60 % 1011,9 hPa 0,0 mm 3,5 km/h (1 Bft) O 81 ° 1 min 0,000 mm 7,3 UV-I 860 W/m² 16,1 °C 24,4 °C 6,4 km/h (2 Bft)
29.07.2018 13:10 24,5 °C 61 % 1011,9 hPa 0,0 mm 2,2 km/h (1 Bft) O 80 ° 1 min 0,000 mm 7,2 UV-I 858 W/m² 16,5 °C 24,5 °C 4,8 km/h (1 Bft)
29.07.2018 13:11 24,5 °C 57 % 1011,9 hPa 0,0 mm 4,3 km/h (1 Bft) SO 135 ° 1 min 0,000 mm 7,1 UV-I 835 W/m² 15,4 °C 24,5 °C 11,3 km/h (2 Bft)
29.07.2018 13:12 24,5 °C 60 % 1011,9 hPa 0,0 mm 1,7 km/h (1 Bft) SO 136 ° 1 min 0,000 mm 6,6 UV-I 754 W/m² 16,2 °C 24,5 °C 4,8 km/h (1 Bft)
29.07.2018 13:13 24,4 °C 59 % 1011,9 hPa 0,0 mm 0,6 km/h (0 Bft) SO 128 ° 1 min 0,000 mm 6,8 UV-I 759 W/m² 15,9 °C 24,4 °C 1,6 km/h (1 Bft)
29.07.2018 13:14 24,5 °C 59 % 1011,9 hPa 0,0 mm 3,1 km/h (1 Bft) O 81 ° 1 min 0,000 mm 7,2 UV-I 759 W/m² 15,9 °C 24,5 °C 8,0 km/h (2 Bft)
29.07.2018 13:15 24,6 °C 59 % 1011,9 hPa 0,0 mm 3,8 km/h (1 Bft) N-NO 12 ° 1 min 0,000 mm 7,3 UV-I 900 W/m² 16,0 °C 24,6 °C 6,4 km/h (2 Bft)
29.07.2018 13:16 24,8 °C 59 % 1011,9 hPa 0,0 mm 4,9 km/h (1 Bft) NO 49 ° 1 min 0,000 mm 7,4 UV-I 856 W/m² 16,2 °C 24,8 °C 8,0 km/h (2 Bft)
29.07.2018 13:17 24,8 °C 57 % 1011,9 hPa 0,0 mm 5,0 km/h (1 Bft) O-NO 61 ° 1 min 0,000 mm 7,1 UV-I 816 W/m² 15,7 °C 24,8 °C 8,0 km/h (2 Bft)
29.07.2018 13:18 24,7 °C 54 % 1011,9 hPa 0,0 mm 3,3 km/h (1 Bft) NO 44 ° 1 min 0,000 mm 6,5 UV-I 733 W/m² 14,8 °C 24,7 °C 6,4 km/h (2 Bft)
29.07.2018 13:19 24,7 °C 56 % 1011,9 hPa 0,0 mm 8,3 km/h (2 Bft) N-NO 14 ° 1 min 0,000 mm 6,7 UV-I 733 W/m² 15,3 °C 24,7 °C 14,5 km/h (3 Bft)
29.07.2018 13:20 24,7 °C 54 % 1011,9 hPa 0,0 mm 10,0 km/h (2 Bft) N-NO 24 ° 1 min 0,000 mm 6,7 UV-I 740 W/m² 14,8 °C 24,7 °C 14,5 km/h (3 Bft)
29.07.2018 13:21 24,8 °C 54 % 1011,8 hPa 0,0 mm 6,2 km/h (2 Bft) N 349 ° 1 min 0,000 mm 7,0 UV-I 740 W/m² 14,8 °C 24,8 °C 9,7 km/h (2 Bft)
29.07.2018 13:22 24,8 °C 57 % 1011,8 hPa 0,0 mm 3,0 km/h (1 Bft) N-NO 32 ° 1 min 0,000 mm 6,5 UV-I 782 W/m² 15,7 °C 24,8 °C 4,8 km/h (1 Bft)
29.07.2018 13:23 24,9 °C 55 % 1011,9 hPa 0,0 mm 1,5 km/h (1 Bft) N-NO 19 ° 1 min 0,000 mm 6,0 UV-I 703 W/m² 15,2 °C 24,9 °C 4,8 km/h (1 Bft)
29.07.2018 13:24 24,9 °C 59 % 1011,9 hPa 0,0 mm 0,6 km/h (0 Bft) N-NO 19 ° 1 min 0,000 mm 6,0 UV-I 733 W/m² 16,3 °C 24,9 °C 1,6 km/h (1 Bft)
29.07.2018 13:25 24,8 °C 55 % 1011,9 hPa 0,0 mm 0,4 km/h (0 Bft) N-NO 20 ° 1 min 0,000 mm 6,4 UV-I 693 W/m² 15,1 °C 24,8 °C 1,6 km/h (1 Bft)
29.07.2018 13:26 24,7 °C 57 % 1011,9 hPa 0,0 mm 3,4 km/h (1 Bft) O 89 ° 1 min 0,000 mm 6,4 UV-I 675 W/m² 15,6 °C 24,7 °C 8,0 km/h (2 Bft)
29.07.2018 13:27 24,7 °C 56 % 1011,9 hPa 0,0 mm 6,6 km/h (2 Bft) S-SO 161 ° 1 min 0,000 mm 6,3 UV-I 708 W/m² 15,3 °C 24,7 °C 9,7 km/h (2 Bft)
29.07.2018 13:28 24,7 °C 58 % 1011,9 hPa 0,0 mm 5,1 km/h (1 Bft) O-NO 76 ° 1 min 0,000 mm 6,1 UV-I 731 W/m² 15,9 °C 24,7 °C 8,0 km/h (2 Bft)
29.07.2018 13:29 24,7 °C 56 % 1011,9 hPa 0,0 mm 5,6 km/h (1 Bft) O-NO 61 ° 1 min 0,000 mm 6,2 UV-I 779 W/m² 15,3 °C 24,7 °C 8,0 km/h (2 Bft)
29.07.2018 13:30 24,7 °C 56 % 1011,8 hPa 0,0 mm 7,2 km/h (2 Bft) NO 43 ° 1 min 0,000 mm 6,6 UV-I 800 W/m² 15,3 °C 24,7 °C 9,7 km/h (2 Bft)
29.07.2018 13:31 24,7 °C 55 % 1011,8 hPa 0,0 mm 7,4 km/h (2 Bft) NO 43 ° 1 min 0,000 mm 6,6 UV-I 719 W/m² 15,0 °C 24,7 °C 9,7 km/h (2 Bft)
29.07.2018 13:32 24,7 °C 54 % 1011,8 hPa 0,0 mm 3,5 km/h (1 Bft) NO 43 ° 1 min 0,000 mm 6,8 UV-I 816 W/m² 14,8 °C 24,7 °C 6,4 km/h (2 Bft)
29.07.2018 13:33 24,7 °C 58 % 1011,8 hPa 0,0 mm 1,7 km/h (1 Bft) NO 42 ° 1 min 0,000 mm 7,4 UV-I 884 W/m² 15,9 °C 24,7 °C 4,8 km/h (1 Bft)
29.07.2018 13:34 24,8 °C 54 % 1011,8 hPa 0,0 mm 1,5 km/h (1 Bft) O-SO 109 ° 1 min 0,000 mm 7,5 UV-I 918 W/m² 14,8 °C 24,8 °C 4,8 km/h (1 Bft)
29.07.2018 13:35 24,8 °C 56 % 1011,8 hPa 0,0 mm 0,4 km/h (0 Bft) O-SO 109 ° 1 min 0,000 mm 7,5 UV-I 907 W/m² 15,4 °C 24,8 °C 1,6 km/h (1 Bft)
29.07.2018 13:36 24,9 °C 56 % 1011,7 hPa 0,0 mm 1,2 km/h (1 Bft) O-NO 59 ° 1 min 0,000 mm 7,4 UV-I 898 W/m² 15,5 °C 24,9 °C 3,2 km/h (1 Bft)
29.07.2018 13:37 24,9 °C 56 % 1011,8 hPa 0,0 mm 0,6 km/h (0 Bft) O-NO 59 ° 1 min 0,000 mm 7,4 UV-I 893 W/m² 15,5 °C 24,9 °C 3,2 km/h (1 Bft)
29.07.2018 13:38 25,1 °C 57 % 1011,7 hPa 0,0 mm 2,4 km/h (1 Bft) NO 56 ° 1 min 0,000 mm 7,3 UV-I 886 W/m² 16,0 °C 25,1 °C 4,8 km/h (1 Bft)
29.07.2018 13:39 25,2 °C 55 % 1011,8 hPa 0,0 mm 3,4 km/h (1 Bft) O 86 ° 1 min 0,000 mm 7,2 UV-I 868 W/m² 15,5 °C 25,2 °C 8,0 km/h (2 Bft)
29.07.2018 13:40 25,2 °C 57 % 1011,8 hPa 0,0 mm 4,7 km/h (1 Bft) NO 42 ° 1 min 0,000 mm 7,0 UV-I 812 W/m² 16,1 °C 25,2 °C 6,4 km/h (2 Bft)
29.07.2018 13:41 25,2 °C 56 % 1011,7 hPa 0,0 mm 4,7 km/h (1 Bft) N-NO 30 ° 1 min 0,000 mm 7,2 UV-I 849 W/m² 15,8 °C 25,2 °C 9,7 km/h (2 Bft)
29.07.2018 13:42 25,3 °C 55 % 1011,7 hPa 0,0 mm 5,2 km/h (1 Bft) NO 36 ° 1 min 0,000 mm 7,0 UV-I 849 W/m² 15,6 °C 25,3 °C 8,0 km/h (2 Bft)
29.07.2018 13:43 25,4 °C 55 % 1011,8 hPa 0,0 mm 5,8 km/h (2 Bft) N-NO 13 ° 1 min 0,000 mm 7,0 UV-I 821 W/m² 15,7 °C 25,4 °C 8,0 km/h (2 Bft)
29.07.2018 13:44 25,3 °C 56 % 1011,7 hPa 0,0 mm 5,3 km/h (1 Bft) N-NO 12 ° 1 min 0,000 mm 6,9 UV-I 817 W/m² 15,9 °C 25,3 °C 8,0 km/h (2 Bft)
29.07.2018 13:45 25,3 °C 54 % 1011,7 hPa 0,0 mm 5,6 km/h (1 Bft) N-NO 13 ° 1 min 0,000 mm 7,2 UV-I 856 W/m² 15,3 °C 25,3 °C 8,0 km/h (2 Bft)
29.07.2018 13:46 25,2 °C 53 % 1011,8 hPa 0,0 mm 4,1 km/h (1 Bft) N-NW 339 ° 1 min 0,000 mm 7,3 UV-I 886 W/m² 14,9 °C 25,2 °C 6,4 km/h (2 Bft)
29.07.2018 13:47 25,1 °C 53 % 1011,7 hPa 0,0 mm 3,3 km/h (1 Bft) N-NW 342 ° 1 min 0,000 mm 7,3 UV-I 877 W/m² 14,8 °C 25,1 °C 4,8 km/h (1 Bft)
29.07.2018 13:48 25,1 °C 54 % 1011,7 hPa 0,0 mm 4,5 km/h (1 Bft) N-NW 336 ° 1 min 0,000 mm 7,3 UV-I 891 W/m² 15,1 °C 25,1 °C 6,4 km/h (2 Bft)
29.07.2018 13:49 25,1 °C 54 % 1011,7 hPa 0,0 mm 3,9 km/h (1 Bft) NW 306 ° 1 min 0,000 mm 7,3 UV-I 886 W/m² 15,1 °C 25,1 °C 6,4 km/h (2 Bft)
29.07.2018 13:50 25,1 °C 55 % 1011,7 hPa 0,0 mm 0,7 km/h (0 Bft) NW 306 ° 1 min 0,000 mm 6,9 UV-I 814 W/m² 15,4 °C 25,1 °C 3,2 km/h (1 Bft)
29.07.2018 13:51 25,1 °C 56 % 1011,7 hPa 0,0 mm 1,1 km/h (1 Bft) N 11 ° 1 min 0,000 mm 6,9 UV-I 791 W/m² 15,7 °C 25,1 °C 3,2 km/h (1 Bft)
29.07.2018 13:52 25,2 °C 55 % 1011,7 hPa 0,0 mm 2,7 km/h (1 Bft) N 350 ° 1 min 0,000 mm 7,1 UV-I 826 W/m² 15,5 °C 25,2 °C 6,4 km/h (2 Bft)
29.07.2018 13:53 25,2 °C 57 % 1011,7 hPa 0,0 mm 1,9 km/h (1 Bft) NW 310 ° 1 min 0,000 mm 7,1 UV-I 858 W/m² 16,1 °C 25,2 °C 4,8 km/h (1 Bft)
29.07.2018 13:54 25,2 °C 54 % 1011,7 hPa 0,0 mm 2,1 km/h (1 Bft) N-NW 333 ° 1 min 0,000 mm 7,1 UV-I 842 W/m² 15,2 °C 25,2 °C 4,8 km/h (1 Bft)
29.07.2018 13:55 25,3 °C 58 % 1011,7 hPa 0,0 mm 5,5 km/h (1 Bft) N-NO 28 ° 1 min 0,000 mm 6,8 UV-I 807 W/m² 16,4 °C 25,3 °C 6,4 km/h (2 Bft)
29.07.2018 13:56 25,6 °C 60 % 1011,6 hPa 0,0 mm 3,9 km/h (1 Bft) N-NO 32 ° 1 min 0,000 mm 6,7 UV-I 759 W/m² 17,2 °C 25,6 °C 4,8 km/h (1 Bft)
29.07.2018 13:57 25,7 °C 58 % 1011,6 hPa 0,0 mm 6,1 km/h (2 Bft) N 5 ° 1 min 0,000 mm 6,7 UV-I 788 W/m² 16,8 °C 25,7 °C 8,0 km/h (2 Bft)
29.07.2018 13:58 25,8 °C 55 % 1011,6 hPa 0,0 mm 5,7 km/h (1 Bft) SO 141 ° 1 min 0,000 mm 6,8 UV-I 844 W/m² 16,1 °C 25,8 °C 11,3 km/h (2 Bft)
29.07.2018 13:59 25,8 °C 53 % 1011,6 hPa 0,0 mm 3,0 km/h (1 Bft) SO 138 ° 1 min 0,000 mm 6,8 UV-I 795 W/m² 15,5 °C 25,8 °C 6,4 km/h (2 Bft)
29.07.2018 14:00 25,6 °C 55 % 1011,6 hPa 0,0 mm 3,3 km/h (1 Bft) O 93 ° 1 min 0,533 mm 6,7 UV-I 784 W/m² 15,9 °C 25,6 °C 6,4 km/h (2 Bft)
29.07.2018 14:01 25,6 °C 54 % 1011,6 hPa 0,0 mm 5,9 km/h (2 Bft) O 94 ° 1 min 0,000 mm 6,8 UV-I 800 W/m² 15,6 °C 25,6 °C 9,7 km/h (2 Bft)
29.07.2018 14:02 25,4 °C 53 % 1011,6 hPa 0,0 mm 2,8 km/h (1 Bft) SO 138 ° 1 min 0,000 mm 6,8 UV-I 812 W/m² 15,1 °C 25,4 °C 6,4 km/h (2 Bft)
29.07.2018 14:03 25,3 °C 54 % 1011,6 hPa 0,0 mm 3,8 km/h (1 Bft) NO 42 ° 1 min 0,000 mm 6,8 UV-I 809 W/m² 15,3 °C 25,3 °C 8,0 km/h (2 Bft)
29.07.2018 14:04 25,4 °C 55 % 1011,6 hPa 0,0 mm 5,4 km/h (1 Bft) O 92 ° 1 min 0,000 mm 6,9 UV-I 807 W/m² 15,7 °C 25,4 °C 12,9 km/h (3 Bft)
29.07.2018 14:05 25,4 °C 56 % 1011,6 hPa 0,0 mm 7,6 km/h (2 Bft) NO 46 ° 1 min 0,000 mm 6,7 UV-I 814 W/m² 16,0 °C 25,4 °C 11,3 km/h (2 Bft)
29.07.2018 14:06 25,4 °C 52 % 1011,6 hPa 0,0 mm 6,0 km/h (2 Bft) O-NO 64 ° 1 min 0,000 mm 6,6 UV-I 770 W/m² 14,8 °C 25,4 °C 9,7 km/h (2 Bft)
29.07.2018 14:07 25,4 °C 53 % 1011,6 hPa 0,0 mm 3,8 km/h (1 Bft) NO 55 ° 1 min 0,000 mm 6,5 UV-I 763 W/m² 15,1 °C 25,4 °C 6,4 km/h (2 Bft)
29.07.2018 14:08 25,4 °C 54 % 1011,6 hPa 0,0 mm 4,8 km/h (1 Bft) O 92 ° 1 min 0,000 mm 6,8 UV-I 814 W/m² 15,4 °C 25,4 °C 6,4 km/h (2 Bft)
29.07.2018 14:09 25,6 °C 57 % 1011,6 hPa 0,0 mm 4,3 km/h (1 Bft) N-NO 28 ° 1 min 0,000 mm 6,5 UV-I 737 W/m² 16,4 °C 25,6 °C 8,0 km/h (2 Bft)
29.07.2018 14:10 25,6 °C 54 % 1011,6 hPa 0,0 mm 5,1 km/h (1 Bft) N-NO 33 ° 1 min 0,000 mm 6,9 UV-I 840 W/m² 15,6 °C 25,6 °C 8,0 km/h (2 Bft)
29.07.2018 14:11 25,7 °C 53 % 1011,6 hPa 0,0 mm 6,2 km/h (2 Bft) NO 52 ° 1 min 0,000 mm 7,0 UV-I 847 W/m² 15,4 °C 25,7 °C 11,3 km/h (2 Bft)
29.07.2018 14:12 25,8 °C 56 % 1011,6 hPa 0,0 mm 6,8 km/h (2 Bft) NO 48 ° 1 min 0,000 mm 7,0 UV-I 838 W/m² 16,3 °C 25,8 °C 11,3 km/h (2 Bft)
29.07.2018 14:13 25,8 °C 54 % 1011,6 hPa 0,0 mm 5,6 km/h (1 Bft) NO 56 ° 1 min 0,000 mm 7,0 UV-I 846 W/m² 15,8 °C 25,8 °C 8,0 km/h (2 Bft)
29.07.2018 14:14 25,9 °C 55 % 1011,6 hPa 0,0 mm 8,4 km/h (2 Bft) NO 53 ° 1 min 0,000 mm 6,9 UV-I 849 W/m² 16,2 °C 25,9 °C 9,7 km/h (2 Bft)
29.07.2018 14:15 25,9 °C 52 % 1011,6 hPa 0,0 mm 6,6 km/h (2 Bft) NO 40 ° 1 min 0,000 mm 6,8 UV-I 830 W/m² 15,3 °C 25,9 °C 9,7 km/h (2 Bft)
29.07.2018 14:16 25,9 °C 53 % 1011,5 hPa 0,0 mm 6,0 km/h (2 Bft) O-NO 61 ° 1 min 0,000 mm 6,9 UV-I 833 W/m² 15,6 °C 25,9 °C 9,7 km/h (2 Bft)
29.07.2018 14:17 25,8 °C 54 % 1011,5 hPa 0,0 mm 7,2 km/h (2 Bft) NO 36 ° 1 min 0,000 mm 6,9 UV-I 837 W/m² 15,8 °C 25,8 °C 11,3 km/h (2 Bft)
29.07.2018 14:18 25,8 °C 53 % 1011,6 hPa 0,0 mm 5,7 km/h (1 Bft) O-NO 69 ° 1 min 0,000 mm 6,9 UV-I 831 W/m² 15,5 °C 25,8 °C 8,0 km/h (2 Bft)
29.07.2018 14:19 25,8 °C 54 % 1011,6 hPa 0,0 mm 6,7 km/h (2 Bft) O 80 ° 1 min 0,000 mm 6,9 UV-I 831 W/m² 15,8 °C 25,8 °C 11,3 km/h (2 Bft)
29.07.2018 14:20 25,6 °C 56 % 1011,6 hPa 0,0 mm 5,0 km/h (1 Bft) O-NO 63 ° 1 min 0,000 mm 6,6 UV-I 821 W/m² 16,2 °C 25,6 °C 6,4 km/h (2 Bft)
29.07.2018 14:21 25,4 °C 53 % 1011,6 hPa 0,0 mm 3,0 km/h (1 Bft) NO 39 ° 1 min 0,000 mm 6,4 UV-I 759 W/m² 15,1 °C 25,4 °C 4,8 km/h (1 Bft)
29.07.2018 14:22 25,4 °C 54 % 1011,6 hPa 0,0 mm 0,6 km/h (0 Bft) NO 39 ° 1 min 0,000 mm 6,4 UV-I 744 W/m² 15,4 °C 25,4 °C 3,2 km/h (1 Bft)
29.07.2018 14:23 25,4 °C 53 % 1011,6 hPa 0,0 mm 2,1 km/h (1 Bft) SO 133 ° 1 min 0,000 mm 6,4 UV-I 747 W/m² 15,1 °C 25,4 °C 3,2 km/h (1 Bft)
29.07.2018 14:24 25,4 °C 53 % 1011,6 hPa 0,0 mm 2,1 km/h (1 Bft) O 88 ° 1 min 0,000 mm 6,6 UV-I 784 W/m² 15,1 °C 25,4 °C 4,8 km/h (1 Bft)
29.07.2018 14:25 25,4 °C 57 % 1011,5 hPa 0,0 mm 2,9 km/h (1 Bft) N 350 ° 1 min 0,000 mm 6,5 UV-I 770 W/m² 16,2 °C 25,4 °C 6,4 km/h (2 Bft)
29.07.2018 14:26 25,6 °C 57 % 1011,5 hPa 0,0 mm 3,1 km/h (1 Bft) N 355 ° 1 min 0,000 mm 6,7 UV-I 800 W/m² 16,4 °C 25,6 °C 4,8 km/h (1 Bft)
29.07.2018 14:27 25,7 °C 56 % 1011,6 hPa 0,0 mm 2,9 km/h (1 Bft) N 5 ° 1 min 0,000 mm 6,6 UV-I 793 W/m² 16,2 °C 25,7 °C 4,8 km/h (1 Bft)
29.07.2018 14:28 25,8 °C 55 % 1011,6 hPa 0,0 mm 5,0 km/h (1 Bft) N-NW 340 ° 1 min 0,000 mm 6,6 UV-I 809 W/m² 16,1 °C 25,8 °C 6,4 km/h (2 Bft)
29.07.2018 14:29 25,9 °C 55 % 1011,6 hPa 0,0 mm 3,8 km/h (1 Bft) NW 313 ° 1 min 0,000 mm 6,8 UV-I 800 W/m² 16,2 °C 25,9 °C 6,4 km/h (2 Bft)
29.07.2018 14:30 25,8 °C 54 % 1011,5 hPa 0,0 mm 3,7 km/h (1 Bft) NO 55 ° 1 min 0,000 mm 6,7 UV-I 817 W/m² 15,8 °C 25,8 °C 6,4 km/h (2 Bft)
29.07.2018 14:31 25,8 °C 55 % 1011,6 hPa 0,0 mm 6,7 km/h (2 Bft) N 11 ° 1 min 0,000 mm 6,8 UV-I 810 W/m² 16,1 °C 25,8 °C 11,3 km/h (2 Bft)
29.07.2018 14:32 25,8 °C 54 % 1011,6 hPa 0,0 mm 5,6 km/h (1 Bft) N-NO 12 ° 1 min 0,000 mm 6,7 UV-I 812 W/m² 15,8 °C 25,8 °C 11,3 km/h (2 Bft)
29.07.2018 14:33 25,8 °C 53 % 1011,5 hPa 0,0 mm 2,9 km/h (1 Bft) NW 323 ° 1 min 0,000 mm 6,8 UV-I 837 W/m² 15,5 °C 25,8 °C 9,7 km/h (2 Bft)
29.07.2018 14:34 25,9 °C 58 % 1011,6 hPa 0,0 mm 5,2 km/h (1 Bft) N-NO 27 ° 1 min 0,000 mm 6,8 UV-I 838 W/m² 17,0 °C 25,9 °C 8,0 km/h (2 Bft)
29.07.2018 14:35 25,9 °C 57 % 1011,6 hPa 0,0 mm 2,0 km/h (1 Bft) N-NO 22 ° 1 min 0,000 mm 6,8 UV-I 837 W/m² 16,7 °C 25,9 °C 3,2 km/h (1 Bft)
29.07.2018 14:36 25,9 °C 53 % 1011,6 hPa 0,0 mm 3,3 km/h (1 Bft) NW 326 ° 1 min 0,000 mm 6,8 UV-I 833 W/m² 15,6 °C 25,9 °C 8,0 km/h (2 Bft)
29.07.2018 14:37 25,9 °C 54 % 1011,6 hPa 0,0 mm 4,2 km/h (1 Bft) NO 49 ° 1 min 0,000 mm 6,8 UV-I 838 W/m² 15,9 °C 25,9 °C 6,4 km/h (2 Bft)
29.07.2018 14:38 26,1 °C 55 % 1011,6 hPa 0,0 mm 2,1 km/h (1 Bft) NO 53 ° 1 min 0,000 mm 6,8 UV-I 842 W/m² 16,3 °C 26,1 °C 3,2 km/h (1 Bft)
29.07.2018 14:39 26,0 °C 54 % 1011,5 hPa 0,0 mm 1,4 km/h (1 Bft) NO 46 ° 1 min 0,000 mm 6,8 UV-I 838 W/m² 16,0 °C 26,0 °C 4,8 km/h (1 Bft)
29.07.2018 14:40 26,1 °C 54 % 1011,6 hPa 0,0 mm 3,6 km/h (1 Bft) O 96 ° 1 min 0,000 mm 6,8 UV-I 835 W/m² 16,0 °C 26,1 °C 8,0 km/h (2 Bft)
29.07.2018 14:41 26,1 °C 53 % 1011,5 hPa 0,0 mm 8,0 km/h (2 Bft) O-NO 77 ° 1 min 0,000 mm 6,7 UV-I 828 W/m² 15,8 °C 26,1 °C 12,9 km/h (3 Bft)
29.07.2018 14:42 26,0 °C 53 % 1011,5 hPa 0,0 mm 7,4 km/h (2 Bft) SO 134 ° 1 min 0,000 mm 6,7 UV-I 821 W/m² 15,7 °C 26,0 °C 11,3 km/h (2 Bft)
29.07.2018 14:43 25,8 °C 53 % 1011,5 hPa 0,0 mm 3,4 km/h (1 Bft) O 96 ° 1 min 0,000 mm 6,7 UV-I 816 W/m² 15,5 °C 25,8 °C 4,8 km/h (1 Bft)
29.07.2018 14:44 25,7 °C 54 % 1011,5 hPa 0,0 mm 4,8 km/h (1 Bft) SO 145 ° 1 min 0,000 mm 6,7 UV-I 821 W/m² 15,7 °C 25,7 °C 9,7 km/h (2 Bft)
29.07.2018 14:45 25,6 °C 55 % 1011,5 hPa 0,0 mm 2,7 km/h (1 Bft) O-SO 106 ° 1 min 0,000 mm 6,5 UV-I 809 W/m² 15,9 °C 25,6 °C 4,8 km/h (1 Bft)
29.07.2018 14:46 25,6 °C 56 % 1011,5 hPa 0,0 mm 2,3 km/h (1 Bft) O 79 ° 1 min 0,000 mm 6,6 UV-I 823 W/m² 16,2 °C 25,6 °C 4,8 km/h (1 Bft)
29.07.2018 14:47 25,7 °C 54 % 1011,5 hPa 0,0 mm 3,2 km/h (1 Bft) S 191 ° 1 min 0,000 mm 6,6 UV-I 828 W/m² 15,7 °C 25,7 °C 6,4 km/h (2 Bft)
29.07.2018 14:48 25,8 °C 54 % 1011,5 hPa 0,0 mm 2,7 km/h (1 Bft) S 174 ° 1 min 0,000 mm 6,6 UV-I 835 W/m² 15,8 °C 25,8 °C 8,0 km/h (2 Bft)
29.07.2018 14:49 25,8 °C 53 % 1011,5 hPa 0,0 mm 1,3 km/h (1 Bft) O-NO 73 ° 1 min 0,000 mm 6,7 UV-I 853 W/m² 15,5 °C 25,8 °C 4,8 km/h (1 Bft)
29.07.2018 14:50 25,8 °C 58 % 1011,4 hPa 0,0 mm 5,3 km/h (1 Bft) NO 44 ° 1 min 0,000 mm 4,9 UV-I 853 W/m² 16,9 °C 25,8 °C 9,7 km/h (2 Bft)
29.07.2018 14:51 25,9 °C 53 % 1011,5 hPa 0,0 mm 2,7 km/h (1 Bft) O 83 ° 1 min 0,000 mm 6,7 UV-I 830 W/m² 15,6 °C 25,9 °C 6,4 km/h (2 Bft)
29.07.2018 14:52 25,9 °C 55 % 1011,5 hPa 0,0 mm 2,5 km/h (1 Bft) NO 47 ° 1 min 0,000 mm 6,7 UV-I 833 W/m² 16,2 °C 25,9 °C 4,8 km/h (1 Bft)
29.07.2018 14:53 25,8 °C 54 % 1011,5 hPa 0,0 mm 1,6 km/h (1 Bft) NO 55 ° 1 min 0,000 mm 6,5 UV-I 828 W/m² 15,8 °C 25,8 °C 3,2 km/h (1 Bft)
29.07.2018 14:54 25,9 °C 57 % 1011,5 hPa 0,0 mm 3,0 km/h (1 Bft) N-NO 31 ° 1 min 0,000 mm 6,6 UV-I 828 W/m² 16,7 °C 25,9 °C 4,8 km/h (1 Bft)
29.07.2018 14:55 26,1 °C 55 % 1011,5 hPa 0,0 mm 4,7 km/h (1 Bft) N 355 ° 1 min 0,000 mm 6,6 UV-I 821 W/m² 16,3 °C 26,1 °C 6,4 km/h (2 Bft)
29.07.2018 14:56 26,1 °C 54 % 1011,4 hPa 0,0 mm 5,5 km/h (1 Bft) N 355 ° 1 min 0,000 mm 6,6 UV-I 828 W/m² 16,0 °C 26,1 °C 8,0 km/h (2 Bft)
29.07.2018 14:57 26,1 °C 54 % 1011,5 hPa 0,0 mm 7,3 km/h (2 Bft) N-NO 13 ° 1 min 0,000 mm 6,6 UV-I 823 W/m² 16,0 °C 26,1 °C 12,9 km/h (3 Bft)
29.07.2018 14:58 26,2 °C 54 % 1011,5 hPa 0,0 mm 4,9 km/h (1 Bft) N 351 ° 1 min 0,000 mm 6,5 UV-I 823 W/m² 16,1 °C 26,2 °C 8,0 km/h (2 Bft)
29.07.2018 14:59 26,1 °C 52 % 1011,4 hPa 0,0 mm 2,8 km/h (1 Bft) N-NO 15 ° 1 min 0,000 mm 6,5 UV-I 821 W/m² 15,5 °C 26,1 °C 4,8 km/h (1 Bft)
29.07.2018 15:00 26,1 °C 52 % 1011,4 hPa 0,0 mm 3,4 km/h (1 Bft) N-NO 16 ° 1 min 0,000 mm 6,5 UV-I 819 W/m² 15,5 °C 26,1 °C 4,8 km/h (1 Bft)
29.07.2018 15:01 26,1 °C 54 % 1011,4 hPa 0,0 mm 1,1 km/h (1 Bft) N-NO 16 ° 1 min 0,534 mm 6,4 UV-I 816 W/m² 16,0 °C 26,1 °C 1,6 km/h (1 Bft)
29.07.2018 15:02 26,1 °C 52 % 1011,4 hPa 0,0 mm 0,2 km/h (0 Bft) N-NO 16 ° 1 min 0,000 mm 6,4 UV-I 812 W/m² 15,5 °C 26,1 °C 1,6 km/h (1 Bft)
29.07.2018 15:03 26,0 °C 52 % 1011,4 hPa 0,0 mm 3,3 km/h (1 Bft) NW 325 ° 1 min 0,000 mm 6,3 UV-I 802 W/m² 15,4 °C 26,0 °C 6,4 km/h (2 Bft)
29.07.2018 15:04 25,9 °C 54 % 1011,4 hPa 0,0 mm 3,7 km/h (1 Bft) NW 307 ° 1 min 0,000 mm 6,3 UV-I 798 W/m² 15,9 °C 25,9 °C 4,8 km/h (1 Bft)
29.07.2018 15:05 25,9 °C 52 % 1011,4 hPa 0,0 mm 4,6 km/h (1 Bft) N-NO 15 ° 1 min 0,000 mm 6,3 UV-I 800 W/m² 15,3 °C 25,9 °C 8,0 km/h (2 Bft)
29.07.2018 15:06 26,1 °C 58 % 1011,4 hPa 0,0 mm 5,9 km/h (2 Bft) N-NW 334 ° 1 min 0,000 mm 6,3 UV-I 803 W/m² 17,2 °C 26,1 °C 9,7 km/h (2 Bft)
29.07.2018 15:07 26,2 °C 54 % 1011,4 hPa 0,0 mm 10,2 km/h (2 Bft) N-NW 327 ° 1 min 0,000 mm 6,4 UV-I 805 W/m² 16,1 °C 26,2 °C 12,9 km/h (3 Bft)
29.07.2018 15:08 26,2 °C 54 % 1011,4 hPa 0,0 mm 9,2 km/h (2 Bft) N 349 ° 1 min 0,000 mm 6,4 UV-I 805 W/m² 16,1 °C 26,2 °C 12,9 km/h (3 Bft)
29.07.2018 15:09 26,2 °C 54 % 1011,4 hPa 0,0 mm 6,6 km/h (2 Bft) N 9 ° 1 min 0,000 mm 6,3 UV-I 803 W/m² 16,1 °C 26,2 °C 8,0 km/h (2 Bft)
29.07.2018 15:10 26,3 °C 55 % 1011,4 hPa 0,0 mm 5,6 km/h (1 Bft) O-SO 102 ° 1 min 0,000 mm 6,2 UV-I 800 W/m² 16,5 °C 26,3 °C 9,7 km/h (2 Bft)
29.07.2018 15:11 26,3 °C 53 % 1011,4 hPa 0,0 mm 4,6 km/h (1 Bft) O-NO 71 ° 1 min 0,000 mm 6,2 UV-I 800 W/m² 15,9 °C 26,3 °C 6,4 km/h (2 Bft)
29.07.2018 15:12 26,3 °C 54 % 1011,4 hPa 0,0 mm 8,4 km/h (2 Bft) O-NO 62 ° 1 min 0,000 mm 6,2 UV-I 800 W/m² 16,2 °C 26,3 °C 12,9 km/h (3 Bft)
29.07.2018 15:13 26,2 °C 51 % 1011,4 hPa 0,0 mm 4,8 km/h (1 Bft) O-NO 66 ° 1 min 0,000 mm 6,2 UV-I 802 W/m² 15,2 °C 26,2 °C 8,0 km/h (2 Bft)
29.07.2018 15:14 26,2 °C 53 % 1011,4 hPa 0,0 mm 5,5 km/h (1 Bft) O-NO 68 ° 1 min 0,000 mm 6,2 UV-I 809 W/m² 15,8 °C 26,2 °C 11,3 km/h (2 Bft)
29.07.2018 15:15 26,1 °C 54 % 1011,4 hPa 0,0 mm 4,3 km/h (1 Bft) O-NO 76 ° 1 min 0,000 mm 6,2 UV-I 819 W/m² 16,0 °C 26,1 °C 4,8 km/h (1 Bft)
29.07.2018 15:16 26,1 °C 52 % 1011,4 hPa 0,0 mm 3,2 km/h (1 Bft) O-NO 76 ° 1 min 0,000 mm 6,3 UV-I 826 W/m² 15,5 °C 26,1 °C 6,4 km/h (2 Bft)
29.07.2018 15:17 26,1 °C 53 % 1011,3 hPa 0,0 mm 4,6 km/h (1 Bft) O 90 ° 1 min 0,000 mm 6,3 UV-I 826 W/m² 15,8 °C 26,1 °C 8,0 km/h (2 Bft)
29.07.2018 15:18 26,2 °C 53 % 1011,4 hPa 0,0 mm 5,9 km/h (2 Bft) O 85 ° 1 min 0,000 mm 6,2 UV-I 828 W/m² 15,8 °C 26,2 °C 9,7 km/h (2 Bft)
29.07.2018 15:19 26,2 °C 52 % 1011,4 hPa 0,0 mm 7,4 km/h (2 Bft) NO 55 ° 1 min 0,000 mm 6,2 UV-I 824 W/m² 15,6 °C 26,2 °C 11,3 km/h (2 Bft)
29.07.2018 15:20 26,2 °C 55 % 1011,4 hPa 0,0 mm 5,4 km/h (1 Bft) N 351 ° 1 min 0,000 mm 6,2 UV-I 814 W/m² 16,4 °C 26,2 °C 8,0 km/h (2 Bft)
29.07.2018 15:21 26,2 °C 52 % 1011,4 hPa 0,0 mm 5,3 km/h (1 Bft) N-NO 28 ° 1 min 0,000 mm 6,1 UV-I 809 W/m² 15,6 °C 26,2 °C 8,0 km/h (2 Bft)
29.07.2018 15:22 26,2 °C 53 % 1011,4 hPa 0,0 mm 7,5 km/h (2 Bft) N 355 ° 1 min 0,000 mm 6,0 UV-I 803 W/m² 15,8 °C 26,2 °C 12,9 km/h (3 Bft)
29.07.2018 15:23 26,3 °C 52 % 1011,4 hPa 0,0 mm 8,0 km/h (2 Bft) NW 320 ° 1 min 0,000 mm 6,0 UV-I 800 W/m² 15,6 °C 26,3 °C 11,3 km/h (2 Bft)
29.07.2018 15:24 26,3 °C 53 % 1011,4 hPa 0,0 mm 5,4 km/h (1 Bft) NO 38 ° 1 min 0,000 mm 6,0 UV-I 798 W/m² 15,9 °C 26,3 °C 9,7 km/h (2 Bft)
29.07.2018 15:25 26,4 °C 53 % 1011,3 hPa 0,0 mm 10,3 km/h (2 Bft) N 351 ° 1 min 0,000 mm 6,0 UV-I 798 W/m² 16,0 °C 26,4 °C 14,5 km/h (3 Bft)
29.07.2018 15:26 26,6 °C 53 % 1011,3 hPa 0,0 mm 4,1 km/h (1 Bft) N-NW 337 ° 1 min 0,000 mm 5,9 UV-I 793 W/m² 16,2 °C 26,6 °C 8,0 km/h (2 Bft)
29.07.2018 15:27 26,5 °C 50 % 1011,4 hPa 0,0 mm 4,5 km/h (1 Bft) NW 326 ° 1 min 0,000 mm 5,9 UV-I 789 W/m² 15,2 °C 26,5 °C 6,4 km/h (2 Bft)
29.07.2018 15:28 26,4 °C 51 % 1011,3 hPa 0,0 mm 1,9 km/h (1 Bft) NW 319 ° 1 min 0,000 mm 5,9 UV-I 791 W/m² 15,4 °C 26,4 °C 4,8 km/h (1 Bft)
29.07.2018 15:29 26,4 °C 56 % 1011,3 hPa 0,0 mm 7,5 km/h (2 Bft) N-NO 18 ° 1 min 0,000 mm 5,9 UV-I 802 W/m² 16,9 °C 26,4 °C 12,9 km/h (3 Bft)
29.07.2018 15:30 26,6 °C 55 % 1011,3 hPa 0,0 mm 7,6 km/h (2 Bft) O-NO 62 ° 1 min 0,000 mm 5,8 UV-I 782 W/m² 16,8 °C 26,6 °C 12,9 km/h (3 Bft)
29.07.2018 15:31 26,6 °C 52 % 1011,3 hPa 0,0 mm 4,3 km/h (1 Bft) NW 323 ° 1 min 0,000 mm 5,8 UV-I 777 W/m² 15,9 °C 26,6 °C 8,0 km/h (2 Bft)
29.07.2018 15:32 26,6 °C 54 % 1011,4 hPa 0,0 mm 3,4 km/h (1 Bft) N-NW 335 ° 1 min 0,000 mm 5,8 UV-I 772 W/m² 16,5 °C 26,6 °C 8,0 km/h (2 Bft)
29.07.2018 15:33 26,6 °C 53 % 1011,3 hPa 0,0 mm 6,6 km/h (2 Bft) NW 311 ° 1 min 0,000 mm 5,8 UV-I 766 W/m² 16,2 °C 26,6 °C 9,7 km/h (2 Bft)
29.07.2018 15:34 26,4 °C 52 % 1011,4 hPa 0,0 mm 6,7 km/h (2 Bft) N-NW 348 ° 1 min 0,000 mm 5,7 UV-I 759 W/m² 15,7 °C 26,4 °C 12,9 km/h (3 Bft)
29.07.2018 15:35 26,3 °C 52 % 1011,4 hPa 0,0 mm 6,2 km/h (2 Bft) N-NO 30 ° 1 min 0,000 mm 5,7 UV-I 761 W/m² 15,6 °C 26,3 °C 8,0 km/h (2 Bft)
29.07.2018 15:36 26,4 °C 57 % 1011,4 hPa 0,0 mm 4,7 km/h (1 Bft) NO 46 ° 1 min 0,000 mm 5,7 UV-I 766 W/m² 17,2 °C 26,4 °C 8,0 km/h (2 Bft)
29.07.2018 15:37 26,4 °C 53 % 1011,4 hPa 0,0 mm 3,5 km/h (1 Bft) N-NO 16 ° 1 min 0,000 mm 5,7 UV-I 773 W/m² 16,0 °C 26,4 °C 6,4 km/h (2 Bft)
29.07.2018 15:38 26,5 °C 53 % 1011,4 hPa 0,0 mm 3,6 km/h (1 Bft) N-NO 20 ° 1 min 0,000 mm 5,7 UV-I 779 W/m² 16,1 °C 26,5 °C 6,4 km/h (2 Bft)
29.07.2018 15:39 26,6 °C 54 % 1011,3 hPa 0,0 mm 4,7 km/h (1 Bft) N 355 ° 1 min 0,000 mm 5,7 UV-I 777 W/m² 16,5 °C 26,6 °C 9,7 km/h (2 Bft)
29.07.2018 15:40 26,7 °C 54 % 1011,4 hPa 0,0 mm 7,2 km/h (2 Bft) N-NW 341 ° 1 min 0,000 mm 5,7 UV-I 779 W/m² 16,6 °C 26,7 °C 9,7 km/h (2 Bft)
29.07.2018 15:41 26,8 °C 52 % 1011,4 hPa 0,0 mm 3,3 km/h (1 Bft) N-NO 24 ° 1 min 0,000 mm 5,6 UV-I 779 W/m² 16,1 °C 26,8 °C 4,8 km/h (1 Bft)
29.07.2018 15:42 26,8 °C 52 % 1011,4 hPa 0,0 mm 5,8 km/h (2 Bft) NO 40 ° 1 min 0,000 mm 5,6 UV-I 780 W/m² 16,1 °C 26,8 °C 9,7 km/h (2 Bft)
29.07.2018 15:43 26,8 °C 50 % 1011,4 hPa 0,0 mm 4,2 km/h (1 Bft) O 82 ° 1 min 0,000 mm 5,6 UV-I 779 W/m² 15,5 °C 26,8 °C 6,4 km/h (2 Bft)
29.07.2018 15:44 26,6 °C 50 % 1011,4 hPa 0,0 mm 3,2 km/h (1 Bft) O-NO 63 ° 1 min 0,000 mm 5,6 UV-I 772 W/m² 15,3 °C 26,6 °C 4,8 km/h (1 Bft)
29.07.2018 15:45 26,4 °C 52 % 1011,4 hPa 0,0 mm 5,2 km/h (1 Bft) O-NO 64 ° 1 min 0,000 mm 5,4 UV-I 759 W/m² 15,7 °C 26,4 °C 8,0 km/h (2 Bft)
29.07.2018 15:46 26,4 °C 52 % 1011,4 hPa 0,0 mm 4,8 km/h (1 Bft) NO 36 ° 1 min 0,000 mm 5,4 UV-I 749 W/m² 15,7 °C 26,4 °C 6,4 km/h (2 Bft)
29.07.2018 15:47 26,5 °C 52 % 1011,4 hPa 0,0 mm 5,4 km/h (1 Bft) N-NW 344 ° 1 min 0,000 mm 5,4 UV-I 747 W/m² 15,8 °C 26,5 °C 6,4 km/h (2 Bft)
29.07.2018 15:48 26,6 °C 54 % 1011,4 hPa 0,0 mm 4,4 km/h (1 Bft) N-NW 327 ° 1 min 0,000 mm 5,3 UV-I 738 W/m² 16,5 °C 26,6 °C 6,4 km/h (2 Bft)
29.07.2018 15:49 26,6 °C 53 % 1011,4 hPa 0,0 mm 6,0 km/h (2 Bft) N-NO 23 ° 1 min 0,000 mm 5,3 UV-I 717 W/m² 16,2 °C 26,6 °C 8,0 km/h (2 Bft)
29.07.2018 15:50 26,6 °C 52 % 1011,4 hPa 0,0 mm 4,8 km/h (1 Bft) N-NW 329 ° 1 min 0,000 mm 5,3 UV-I 731 W/m² 15,9 °C 26,6 °C 8,0 km/h (2 Bft)
29.07.2018 15:51 26,6 °C 51 % 1011,4 hPa 0,0 mm 3,4 km/h (1 Bft) NW 324 ° 1 min 0,000 mm 5,2 UV-I 729 W/m² 15,6 °C 26,6 °C 4,8 km/h (1 Bft)
29.07.2018 15:52 26,4 °C 50 % 1011,4 hPa 0,0 mm 2,2 km/h (1 Bft) N-NO 30 ° 1 min 0,000 mm 5,0 UV-I 659 W/m² 15,1 °C 26,4 °C 4,8 km/h (1 Bft)
29.07.2018 15:53 26,3 °C 52 % 1011,4 hPa 0,0 mm 1,6 km/h (1 Bft) N-NO 29 ° 1 min 0,000 mm 5,2 UV-I 703 W/m² 15,6 °C 26,3 °C 4,8 km/h (1 Bft)
29.07.2018 15:54 26,4 °C 53 % 1011,4 hPa 0,0 mm 2,2 km/h (1 Bft) N-NO 28 ° 1 min 0,000 mm 5,1 UV-I 708 W/m² 16,0 °C 26,4 °C 4,8 km/h (1 Bft)
29.07.2018 15:55 26,5 °C 53 % 1011,4 hPa 0,0 mm 5,7 km/h (1 Bft) N-NW 327 ° 1 min 0,000 mm 5,2 UV-I 740 W/m² 16,1 °C 26,5 °C 9,7 km/h (2 Bft)
29.07.2018 15:56 26,6 °C 53 % 1011,4 hPa 0,0 mm 3,8 km/h (1 Bft) N-NW 338 ° 1 min 0,000 mm 5,2 UV-I 742 W/m² 16,2 °C 26,6 °C 6,4 km/h (2 Bft)
29.07.2018 15:57 26,6 °C 54 % 1011,4 hPa 0,0 mm 1,8 km/h (1 Bft) N-NW 338 ° 1 min 0,000 mm 5,1 UV-I 740 W/m² 16,5 °C 26,6 °C 3,2 km/h (1 Bft)
29.07.2018 15:58 26,7 °C 53 % 1011,4 hPa 0,0 mm 1,6 km/h (1 Bft) N-NO 33 ° 1 min 0,000 mm 5,0 UV-I 735 W/m² 16,3 °C 26,7 °C 3,2 km/h (1 Bft)
29.07.2018 15:59 26,7 °C 52 % 1011,4 hPa 0,0 mm 2,5 km/h (1 Bft) NO 36 ° 1 min 0,000 mm 4,9 UV-I 701 W/m² 16,0 °C 26,7 °C 3,2 km/h (1 Bft)
29.07.2018 16:00 26,6 °C 51 % 1011,4 hPa 0,0 mm 0,7 km/h (0 Bft) NO 36 ° 1 min 0,000 mm 4,9 UV-I 721 W/m² 15,6 °C 26,6 °C 1,6 km/h (1 Bft)
29.07.2018 16:01 26,6 °C 51 % 1011,3 hPa 0,0 mm 4,5 km/h (1 Bft) N 10 ° 1 min 0,533 mm 4,8 UV-I 710 W/m² 15,6 °C 26,6 °C 12,9 km/h (3 Bft)
29.07.2018 16:02 26,6 °C 52 % 1011,4 hPa 0,0 mm 3,8 km/h (1 Bft) N-NO 27 ° 1 min 0,000 mm 4,8 UV-I 714 W/m² 15,9 °C 26,6 °C 6,4 km/h (2 Bft)
29.07.2018 16:03 26,6 °C 51 % 1011,4 hPa 0,0 mm 6,1 km/h (2 Bft) N-NW 329 ° 1 min 0,000 mm 4,7 UV-I 710 W/m² 15,6 °C 26,6 °C 11,3 km/h (2 Bft)
29.07.2018 16:04 26,5 °C 52 % 1011,4 hPa 0,0 mm 5,7 km/h (1 Bft) N 355 ° 1 min 0,000 mm 4,7 UV-I 724 W/m² 15,8 °C 26,5 °C 8,0 km/h (2 Bft)
29.07.2018 16:05 26,5 °C 52 % 1011,4 hPa 0,0 mm 4,2 km/h (1 Bft) N 360 ° 1 min 0,000 mm 4,7 UV-I 731 W/m² 15,8 °C 26,5 °C 6,4 km/h (2 Bft)
29.07.2018 16:06 26,5 °C 53 % 1011,4 hPa 0,0 mm 6,3 km/h (2 Bft) N 5 ° 1 min 0,000 mm 4,6 UV-I 731 W/m² 16,1 °C 26,5 °C 11,3 km/h (2 Bft)
29.07.2018 16:07 26,7 °C 54 % 1011,4 hPa 0,0 mm 5,5 km/h (1 Bft) N 5 ° 1 min 0,000 mm 4,6 UV-I 735 W/m² 16,6 °C 26,7 °C 8,0 km/h (2 Bft)
29.07.2018 16:08 26,7 °C 52 % 1011,4 hPa 0,0 mm 4,8 km/h (1 Bft) N-NW 345 ° 1 min 0,000 mm 4,6 UV-I 740 W/m² 16,0 °C 26,7 °C 6,4 km/h (2 Bft)
29.07.2018 16:09 26,7 °C 52 % 1011,4 hPa 0,0 mm 7,9 km/h (2 Bft) NW 313 ° 1 min 0,000 mm 4,6 UV-I 747 W/m² 16,0 °C 26,7 °C 11,3 km/h (2 Bft)
29.07.2018 16:10 26,6 °C 49 % 1011,4 hPa 0,0 mm 6,3 km/h (2 Bft) W 266 ° 1 min 0,000 mm 4,6 UV-I 754 W/m² 15,0 °C 26,6 °C 11,3 km/h (2 Bft)
29.07.2018 16:11 26,4 °C 50 % 1011,4 hPa 0,0 mm 2,8 km/h (1 Bft) W 276 ° 1 min 0,000 mm 4,6 UV-I 759 W/m² 15,1 °C 26,4 °C 6,4 km/h (2 Bft)
29.07.2018 16:12 26,3 °C 50 % 1011,4 hPa 0,0 mm 0,4 km/h (0 Bft) W 276 ° 1 min 0,000 mm 4,6 UV-I 752 W/m² 15,0 °C 26,3 °C 1,6 km/h (1 Bft)
29.07.2018 16:13 26,2 °C 50 % 1011,4 hPa 0,0 mm 1,5 km/h (1 Bft) NW 323 ° 1 min 0,000 mm 4,5 UV-I 726 W/m² 14,9 °C 26,2 °C 3,2 km/h (1 Bft)
29.07.2018 16:14 26,2 °C 52 % 1011,3 hPa 0,0 mm 0,5 km/h (0 Bft) NW 323 ° 1 min 0,000 mm 4,4 UV-I 701 W/m² 15,6 °C 26,2 °C 1,6 km/h (1 Bft)
29.07.2018 16:15 26,2 °C 52 % 1011,3 hPa 0,0 mm 0,7 km/h (0 Bft) NW 323 ° 1 min 0,000 mm 4,3 UV-I 701 W/m² 15,6 °C 26,2 °C 3,2 km/h (1 Bft)
29.07.2018 16:16 26,2 °C 53 % 1011,3 hPa 0,0 mm 2,7 km/h (1 Bft) W 279 ° 1 min 0,000 mm 3,5 UV-I 701 W/m² 15,8 °C 26,2 °C 6,4 km/h (2 Bft)
29.07.2018 16:17 26,2 °C 53 % 1011,4 hPa 0,0 mm 5,2 km/h (1 Bft) W 264 ° 1 min 0,000 mm 2,8 UV-I 701 W/m² 15,8 °C 26,2 °C 6,4 km/h (2 Bft)
29.07.2018 16:18 26,2 °C 55 % 1011,4 hPa 0,0 mm 7,8 km/h (2 Bft) W-SW 257 ° 0 min 0,000 mm 2,6 UV-I 111 W/m² 16,4 °C 26,2 °C 11,3 km/h (2 Bft)
29.07.2018 16:19 26,2 °C 56 % 1011,4 hPa 0,0 mm 2,9 km/h (1 Bft) W-SW 244 ° 0 min 0,000 mm 2,6 UV-I 107 W/m² 16,7 °C 26,2 °C 6,4 km/h (2 Bft)
29.07.2018 16:20 26,2 °C 53 % 1011,4 hPa 0,0 mm 1,9 km/h (1 Bft) W-SW 244 ° 0 min 0,000 mm 2,5 UV-I 109 W/m² 15,8 °C 26,2 °C 4,8 km/h (1 Bft)
29.07.2018 16:21 26,2 °C 54 % 1011,4 hPa 0,0 mm 1,3 km/h (1 Bft) W-SW 244 ° 0 min 0,000 mm 2,5 UV-I 121 W/m² 16,1 °C 26,2 °C 3,2 km/h (1 Bft)
29.07.2018 16:22 26,2 °C 53 % 1011,4 hPa 0,0 mm 0,7 km/h (0 Bft) NW 324 ° 0 min 0,000 mm 2,5 UV-I 134 W/m² 15,8 °C 26,2 °C 4,8 km/h (1 Bft)
29.07.2018 16:23 26,2 °C 54 % 1011,4 hPa 0,0 mm 3,0 km/h (1 Bft) W-NW 289 ° 0 min 0,000 mm 2,6 UV-I 142 W/m² 16,1 °C 26,2 °C 6,4 km/h (2 Bft)
29.07.2018 16:24 26,2 °C 52 % 1011,4 hPa 0,0 mm 4,0 km/h (1 Bft) W 273 ° 0 min 0,000 mm 2,6 UV-I 163 W/m² 15,6 °C 26,2 °C 6,4 km/h (2 Bft)
29.07.2018 16:25 26,2 °C 51 % 1011,4 hPa 0,0 mm 7,6 km/h (2 Bft) NW 304 ° 0 min 0,000 mm 2,6 UV-I 174 W/m² 15,2 °C 26,2 °C 11,3 km/h (2 Bft)
29.07.2018 16:26 26,1 °C 52 % 1011,4 hPa 0,0 mm 8,7 km/h (2 Bft) N-NW 343 ° 0 min 0,000 mm 2,6 UV-I 178 W/m² 15,5 °C 26,1 °C 14,5 km/h (3 Bft)
29.07.2018 16:27 26,1 °C 53 % 1011,4 hPa 0,0 mm 5,6 km/h (1 Bft) NW 320 ° 0 min 0,000 mm 2,6 UV-I 179 W/m² 15,8 °C 26,1 °C 11,3 km/h (2 Bft)
29.07.2018 16:28 26,2 °C 53 % 1011,4 hPa 0,0 mm 7,0 km/h (2 Bft) N-NW 340 ° 0 min 0,000 mm 2,6 UV-I 181 W/m² 15,8 °C 26,2 °C 12,9 km/h (3 Bft)
29.07.2018 16:29 26,2 °C 53 % 1011,4 hPa 0,0 mm 4,8 km/h (1 Bft) N-NO 24 ° 0 min 0,000 mm 2,6 UV-I 176 W/m² 15,8 °C 26,2 °C 6,4 km/h (2 Bft)
29.07.2018 16:30 26,4 °C 54 % 1011,4 hPa 0,0 mm 8,2 km/h (2 Bft) NW 324 ° 0 min 0,000 mm 2,5 UV-I 160 W/m² 16,3 °C 26,4 °C 12,9 km/h (3 Bft)
29.07.2018 16:31 26,4 °C 54 % 1011,4 hPa 0,0 mm 5,2 km/h (1 Bft) N-NW 335 ° 0 min 0,000 mm 2,5 UV-I 153 W/m² 16,3 °C 26,4 °C 9,7 km/h (2 Bft)
29.07.2018 16:32 26,5 °C 54 % 1011,4 hPa 0,0 mm 1,3 km/h (1 Bft) N-NW 335 ° 0 min 0,000 mm 2,5 UV-I 144 W/m² 16,4 °C 26,5 °C 4,8 km/h (1 Bft)
29.07.2018 16:33 26,4 °C 52 % 1011,4 hPa 0,0 mm 2,2 km/h (1 Bft) W 277 ° 0 min 0,000 mm 2,4 UV-I 132 W/m² 15,7 °C 26,4 °C 4,8 km/h (1 Bft)
29.07.2018 16:34 26,4 °C 51 % 1011,3 hPa 0,0 mm 8,4 km/h (2 Bft) W-SW 247 ° 0 min 0,000 mm 2,4 UV-I 121 W/m² 15,4 °C 26,4 °C 11,3 km/h (2 Bft)
29.07.2018 16:35 26,3 °C 51 % 1011,3 hPa 0,0 mm 8,2 km/h (2 Bft) W 266 ° 0 min 0,000 mm 2,3 UV-I 114 W/m² 15,3 °C 26,3 °C 11,3 km/h (2 Bft)
29.07.2018 16:36 26,2 °C 53 % 1011,3 hPa 0,0 mm 5,8 km/h (2 Bft) NO 34 ° 0 min 0,000 mm 2,3 UV-I 134 W/m² 15,8 °C 26,2 °C 11,3 km/h (2 Bft)
29.07.2018 16:37 26,2 °C 52 % 1011,3 hPa 0,0 mm 8,9 km/h (2 Bft) N-NO 14 ° 0 min 0,000 mm 2,3 UV-I 111 W/m² 15,6 °C 26,2 °C 12,9 km/h (3 Bft)
29.07.2018 16:38 26,2 °C 50 % 1011,3 hPa 0,0 mm 4,2 km/h (1 Bft) N-NO 14 ° 0 min 0,000 mm 2,2 UV-I 90 W/m² 14,9 °C 26,2 °C 6,4 km/h (2 Bft)
29.07.2018 16:39 26,3 °C 50 % 1011,4 hPa 0,0 mm 0,6 km/h (0 Bft) N-NO 14 ° 0 min 0,000 mm 2,2 UV-I 83 W/m² 15,0 °C 26,3 °C 1,6 km/h (1 Bft)
29.07.2018 16:40 26,3 °C 52 % 1011,3 hPa 0,0 mm 2,0 km/h (1 Bft) N-NO 14 ° 0 min 0,000 mm 2,2 UV-I 81 W/m² 15,6 °C 26,3 °C 3,2 km/h (1 Bft)
29.07.2018 16:41 26,3 °C 51 % 1011,3 hPa 0,0 mm 0,9 km/h (0 Bft) N-NO 14 ° 0 min 0,000 mm 2,2 UV-I 77 W/m² 15,3 °C 26,3 °C 3,2 km/h (1 Bft)
29.07.2018 16:42 26,2 °C 50 % 1011,3 hPa 0,0 mm 2,1 km/h (1 Bft) N-NW 348 ° 0 min 0,000 mm 2,2 UV-I 77 W/m² 14,9 °C 26,2 °C 4,8 km/h (1 Bft)
29.07.2018 16:43 26,1 °C 50 % 1011,3 hPa 0,0 mm 1,2 km/h (1 Bft) N-NW 348 ° 0 min 0,000 mm 2,1 UV-I 90 W/m² 14,8 °C 26,1 °C 3,2 km/h (1 Bft)
29.07.2018 16:44 26,1 °C 51 % 1011,3 hPa 0,0 mm 3,0 km/h (1 Bft) NW 319 ° 0 min 0,000 mm 2,1 UV-I 83 W/m² 15,2 °C 26,1 °C 8,0 km/h (2 Bft)
29.07.2018 16:45 26,1 °C 52 % 1011,3 hPa 0,0 mm 2,9 km/h (1 Bft) N-NW 341 ° 0 min 0,000 mm 2,1 UV-I 69 W/m² 15,5 °C 26,1 °C 4,8 km/h (1 Bft)
29.07.2018 16:46 26,1 °C 52 % 1011,3 hPa 0,0 mm 5,2 km/h (1 Bft) W-NW 289 ° 0 min 0,000 mm 2,1 UV-I 65 W/m² 15,5 °C 26,1 °C 8,0 km/h (2 Bft)
29.07.2018 16:47 26,1 °C 51 % 1011,3 hPa 0,0 mm 2,8 km/h (1 Bft) W-NW 290 ° 0 min 0,000 mm 2,1 UV-I 63 W/m² 15,2 °C 26,1 °C 4,8 km/h (1 Bft)
29.07.2018 16:48 26,1 °C 51 % 1011,3 hPa 0,0 mm 4,1 km/h (1 Bft) NW 316 ° 0 min 0,000 mm 2,1 UV-I 62 W/m² 15,2 °C 26,1 °C 6,4 km/h (2 Bft)
29.07.2018 16:49 26,1 °C 53 % 1011,3 hPa 0,0 mm 9,0 km/h (2 Bft) N-NW 336 ° 0 min 0,000 mm 2,0 UV-I 62 W/m² 15,8 °C 26,1 °C 11,3 km/h (2 Bft)
29.07.2018 16:50 26,1 °C 52 % 1011,3 hPa 0,0 mm 3,4 km/h (1 Bft) N-NW 332 ° 0 min 0,000 mm 2,0 UV-I 62 W/m² 15,5 °C 26,1 °C 8,0 km/h (2 Bft)
29.07.2018 16:51 26,1 °C 50 % 1011,3 hPa 0,0 mm 0,3 km/h (0 Bft) N-NW 332 ° 0 min 0,000 mm 2,0 UV-I 60 W/m² 14,8 °C 26,1 °C 1,6 km/h (1 Bft)
29.07.2018 16:52 26,0 °C 51 % 1011,3 hPa 0,0 mm 0,0 km/h (0 Bft) N-NW 332 ° 0 min 0,000 mm 2,0 UV-I 60 W/m² 15,1 °C 26,0 °C 0,0 km/h (0 Bft)
29.07.2018 16:53 25,9 °C 52 % 1011,3 hPa 0,0 mm 0,0 km/h (0 Bft) N-NW 332 ° 0 min 0,000 mm 2,0 UV-I 58 W/m² 15,3 °C 25,9 °C 0,0 km/h (0 Bft)
29.07.2018 16:54 25,9 °C 51 % 1011,3 hPa 0,0 mm 2,0 km/h (1 Bft) N-NW 332 ° 0 min 0,000 mm 2,0 UV-I 56 W/m² 15,0 °C 25,9 °C 3,2 km/h (1 Bft)
29.07.2018 16:55 25,9 °C 50 % 1011,2 hPa 0,0 mm 3,1 km/h (1 Bft) N-NW 332 ° 0 min 0,000 mm 2,0 UV-I 56 W/m² 14,7 °C 25,9 °C 6,4 km/h (2 Bft)
29.07.2018 16:56 26,0 °C 51 % 1011,2 hPa 0,0 mm 3,8 km/h (1 Bft) W-NW 295 ° 0 min 0,000 mm 2,0 UV-I 56 W/m² 15,1 °C 26,0 °C 6,4 km/h (2 Bft)
29.07.2018 16:57 26,0 °C 52 % 1011,2 hPa 0,0 mm 3,0 km/h (1 Bft) NW 325 ° 0 min 0,000 mm 0,0 UV-I 54 W/m² 15,4 °C 26,0 °C 4,8 km/h (1 Bft)
29.07.2018 16:58 26,1 °C 53 % 1011,2 hPa 0,0 mm 5,9 km/h (2 Bft) NW 310 ° 0 min 0,000 mm 0,0 UV-I 54 W/m² 15,8 °C 26,1 °C 9,7 km/h (2 Bft)
29.07.2018 16:59 26,1 °C 52 % 1011,2 hPa 0,0 mm 4,3 km/h (1 Bft) NW 309 ° 0 min 0,000 mm 0,0 UV-I 54 W/m² 15,5 °C 26,1 °C 6,4 km/h (2 Bft)
29.07.2018 17:00 26,1 °C 52 % 1011,2 hPa 0,0 mm 3,9 km/h (1 Bft) NW 314 ° 0 min 0,203 mm 0,0 UV-I 54 W/m² 15,5 °C 26,1 °C 6,4 km/h (2 Bft)
29.07.2018 17:01 26,1 °C 53 % 1011,2 hPa 0,0 mm 3,4 km/h (1 Bft) NW 323 ° 0 min 0,000 mm 0,0 UV-I 53 W/m² 15,8 °C 26,1 °C 6,4 km/h (2 Bft)
29.07.2018 17:02 26,1 °C 52 % 1011,2 hPa 0,0 mm 2,4 km/h (1 Bft) W-NW 298 ° 0 min 0,000 mm 0,0 UV-I 53 W/m² 15,5 °C 26,1 °C 4,8 km/h (1 Bft)
29.07.2018 17:03 26,1 °C 51 % 1011,2 hPa 0,0 mm 5,6 km/h (1 Bft) N-NW 327 ° 0 min 0,000 mm 0,0 UV-I 53 W/m² 15,2 °C 26,1 °C 6,4 km/h (2 Bft)
29.07.2018 17:04 26,1 °C 52 % 1011,2 hPa 0,0 mm 3,5 km/h (1 Bft) W-NW 296 ° 0 min 0,000 mm 0,0 UV-I 54 W/m² 15,5 °C 26,1 °C 4,8 km/h (1 Bft)
29.07.2018 17:05 26,2 °C 50 % 1011,2 hPa 0,0 mm 3,1 km/h (1 Bft) W 275 ° 0 min 0,000 mm 1,9 UV-I 114 W/m² 14,9 °C 26,2 °C 4,8 km/h (1 Bft)
29.07.2018 17:06 26,1 °C 51 % 1011,2 hPa 0,0 mm 4,3 km/h (1 Bft) W-NW 293 ° 0 min 0,000 mm 1,9 UV-I 104 W/m² 15,2 °C 26,1 °C 6,4 km/h (2 Bft)
29.07.2018 17:07 26,2 °C 51 % 1011,2 hPa 0,0 mm 2,9 km/h (1 Bft) W-NW 293 ° 0 min 0,000 mm 1,9 UV-I 53 W/m² 15,2 °C 26,2 °C 4,8 km/h (1 Bft)
29.07.2018 17:08 26,1 °C 51 % 1011,2 hPa 0,0 mm 9,0 km/h (2 Bft) W-NW 283 ° 0 min 0,000 mm 0,0 UV-I 53 W/m² 15,2 °C 26,1 °C 12,9 km/h (3 Bft)
29.07.2018 17:09 26,2 °C 52 % 1011,1 hPa 0,0 mm 6,1 km/h (2 Bft) W-NW 301 ° 0 min 0,000 mm 0,0 UV-I 53 W/m² 15,6 °C 26,2 °C 9,7 km/h (2 Bft)
29.07.2018 17:10 26,2 °C 51 % 1011,2 hPa 0,0 mm 3,1 km/h (1 Bft) W-NW 301 ° 0 min 0,000 mm 0,0 UV-I 53 W/m² 15,2 °C 26,2 °C 4,8 km/h (1 Bft)
29.07.2018 17:11 26,1 °C 50 % 1011,2 hPa 0,0 mm 2,4 km/h (1 Bft) W-NW 301 ° 0 min 0,000 mm 0,0 UV-I 54 W/m² 14,8 °C 26,1 °C 4,8 km/h (1 Bft)
29.07.2018 17:12 26,1 °C 52 % 1011,2 hPa 0,0 mm 0,4 km/h (0 Bft) W-NW 301 ° 0 min 0,000 mm 0,0 UV-I 54 W/m² 15,5 °C 26,1 °C 1,6 km/h (1 Bft)
29.07.2018 17:13 26,1 °C 51 % 1011,1 hPa 0,0 mm 1,9 km/h (1 Bft) W-NW 301 ° 0 min 0,000 mm 1,8 UV-I 60 W/m² 15,2 °C 26,1 °C 3,2 km/h (1 Bft)
29.07.2018 17:14 26,1 °C 51 % 1011,2 hPa 0,0 mm 2,6 km/h (1 Bft) W 272 ° 0 min 0,000 mm 1,8 UV-I 56 W/m² 15,2 °C 26,1 °C 4,8 km/h (1 Bft)
29.07.2018 17:15 26,1 °C 51 % 1011,2 hPa 0,0 mm 2,9 km/h (1 Bft) NW 307 ° 0 min 0,000 mm 1,9 UV-I 67 W/m² 15,2 °C 26,1 °C 4,8 km/h (1 Bft)
29.07.2018 17:16 26,1 °C 53 % 1011,2 hPa 0,0 mm 1,9 km/h (1 Bft) NW 306 ° 0 min 0,000 mm 1,9 UV-I 72 W/m² 15,8 °C 26,1 °C 3,2 km/h (1 Bft)
29.07.2018 17:17 26,1 °C 51 % 1011,2 hPa 0,0 mm 3,1 km/h (1 Bft) W 279 ° 0 min 0,000 mm 1,8 UV-I 60 W/m² 15,2 °C 26,1 °C 3,2 km/h (1 Bft)
29.07.2018 17:18 25,9 °C 50 % 1011,2 hPa 0,0 mm 3,2 km/h (1 Bft) W 279 ° 0 min 0,000 mm 0,0 UV-I 54 W/m² 14,7 °C 25,9 °C 4,8 km/h (1 Bft)
29.07.2018 17:19 26,0 °C 53 % 1011,2 hPa 0,0 mm 2,4 km/h (1 Bft) W 279 ° 0 min 0,000 mm 0,0 UV-I 54 W/m² 15,7 °C 26,0 °C 4,8 km/h (1 Bft)
29.07.2018 17:20 26,0 °C 50 % 1011,2 hPa 0,0 mm 0,0 km/h (0 Bft) W 279 ° 0 min 0,000 mm 0,0 UV-I 54 W/m² 14,8 °C 26,0 °C 0,0 km/h (0 Bft)
29.07.2018 17:21 26,0 °C 53 % 1011,2 hPa 0,0 mm 0,5 km/h (0 Bft) W 279 ° 0 min 0,000 mm 0,0 UV-I 54 W/m² 15,7 °C 26,0 °C 3,2 km/h (1 Bft)
29.07.2018 17:22 25,9 °C 52 % 1011,2 hPa 0,0 mm 2,6 km/h (1 Bft) W 279 ° 0 min 0,000 mm 1,8 UV-I 58 W/m² 15,3 °C 25,9 °C 4,8 km/h (1 Bft)
29.07.2018 17:23 25,9 °C 51 % 1011,2 hPa 0,0 mm 2,9 km/h (1 Bft) W 278 ° 0 min 0,000 mm 1,8 UV-I 54 W/m² 15,0 °C 25,9 °C 4,8 km/h (1 Bft)
29.07.2018 17:24 25,9 °C 52 % 1011,2 hPa 0,0 mm 2,7 km/h (1 Bft) W 278 ° 0 min 0,000 mm 0,0 UV-I 54 W/m² 15,3 °C 25,9 °C 4,8 km/h (1 Bft)
29.07.2018 17:25 25,9 °C 50 % 1011,2 hPa 0,0 mm 2,4 km/h (1 Bft) W 275 ° 0 min 0,000 mm 0,0 UV-I 54 W/m² 14,7 °C 25,9 °C 4,8 km/h (1 Bft)
29.07.2018 17:26 25,9 °C 50 % 1011,2 hPa 0,0 mm 1,6 km/h (1 Bft) SW 230 ° 0 min 0,000 mm 1,7 UV-I 56 W/m² 14,7 °C 25,9 °C 3,2 km/h (1 Bft)
29.07.2018 17:27 25,8 °C 51 % 1011,1 hPa 0,0 mm 0,1 km/h (0 Bft) SW 230 ° 0 min 0,000 mm 1,7 UV-I 60 W/m² 14,9 °C 25,8 °C 1,6 km/h (1 Bft)
29.07.2018 17:28 25,8 °C 52 % 1011,2 hPa 0,0 mm 1,5 km/h (1 Bft) NW 310 ° 0 min 0,000 mm 1,7 UV-I 70 W/m² 15,2 °C 25,8 °C 4,8 km/h (1 Bft)
29.07.2018 17:29 25,8 °C 51 % 1011,2 hPa 0,0 mm 0,7 km/h (0 Bft) NW 311 ° 0 min 0,000 mm 1,6 UV-I 125 W/m² 14,9 °C 25,8 °C 3,2 km/h (1 Bft)
29.07.2018 17:30 25,8 °C 52 % 1011,2 hPa 0,0 mm 4,5 km/h (1 Bft) NW 319 ° 0 min 0,000 mm 1,6 UV-I 120 W/m² 15,2 °C 25,8 °C 8,0 km/h (2 Bft)
29.07.2018 17:31 25,9 °C 51 % 1011,2 hPa 0,0 mm 3,2 km/h (1 Bft) W-NW 302 ° 0 min 0,000 mm 0,0 UV-I 54 W/m² 15,0 °C 25,9 °C 4,8 km/h (1 Bft)
29.07.2018 17:32 25,9 °C 51 % 1011,2 hPa 0,0 mm 1,3 km/h (1 Bft) W-NW 300 ° 0 min 0,000 mm 0,0 UV-I 51 W/m² 15,0 °C 25,9 °C 4,8 km/h (1 Bft)
29.07.2018 17:33 26,0 °C 50 % 1011,2 hPa 0,0 mm 2,7 km/h (1 Bft) W-NW 301 ° 0 min 0,000 mm 0,0 UV-I 51 W/m² 14,8 °C 26,0 °C 3,2 km/h (1 Bft)
29.07.2018 17:34 26,1 °C 49 % 1011,2 hPa 0,0 mm 1,8 km/h (1 Bft) W-NW 301 ° 0 min 0,000 mm 0,0 UV-I 51 W/m² 14,5 °C 26,1 °C 3,2 km/h (1 Bft)
29.07.2018 17:35 26,1 °C 49 % 1011,2 hPa 0,0 mm 2,4 km/h (1 Bft) W-NW 300 ° 0 min 0,000 mm 0,0 UV-I 53 W/m² 14,5 °C 26,1 °C 4,8 km/h (1 Bft)
29.07.2018 17:36 26,1 °C 49 % 1011,1 hPa 0,0 mm 0,9 km/h (0 Bft) W-NW 300 ° 0 min 0,000 mm 0,0 UV-I 51 W/m² 14,5 °C 26,1 °C 1,6 km/h (1 Bft)
29.07.2018 17:37 26,1 °C 51 % 1011,1 hPa 0,0 mm 1,8 km/h (1 Bft) W 278 ° 0 min 0,000 mm 1,6 UV-I 56 W/m² 15,2 °C 26,1 °C 4,8 km/h (1 Bft)
29.07.2018 17:38 26,1 °C 52 % 1011,1 hPa 0,0 mm 2,8 km/h (1 Bft) W 278 ° 0 min 0,000 mm 1,6 UV-I 56 W/m² 15,5 °C 26,1 °C 4,8 km/h (1 Bft)
29.07.2018 17:39 26,0 °C 50 % 1011,1 hPa 0,0 mm 1,7 km/h (1 Bft) W 278 ° 0 min 0,000 mm 0,0 UV-I 51 W/m² 14,8 °C 26,0 °C 3,2 km/h (1 Bft)
29.07.2018 17:40 26,0 °C 49 % 1011,1 hPa 0,0 mm 2,7 km/h (1 Bft) W 278 ° 0 min 0,000 mm 0,0 UV-I 49 W/m² 14,4 °C 26,0 °C 3,2 km/h (1 Bft)
29.07.2018 17:41 26,1 °C 50 % 1011,1 hPa 0,0 mm 3,9 km/h (1 Bft) W-NW 295 ° 0 min 0,000 mm 0,0 UV-I 49 W/m² 14,8 °C 26,1 °C 4,8 km/h (1 Bft)
29.07.2018 17:42 26,1 °C 51 % 1011,1 hPa 0,0 mm 1,8 km/h (1 Bft) W-NW 294 ° 0 min 0,000 mm 0,0 UV-I 47 W/m² 15,2 °C 26,1 °C 4,8 km/h (1 Bft)
29.07.2018 17:43 26,2 °C 50 % 1011,1 hPa 0,0 mm 0,0 km/h (0 Bft) W-NW 294 ° 0 min 0,000 mm 0,0 UV-I 47 W/m² 14,9 °C 26,2 °C 0,0 km/h (0 Bft)
29.07.2018 17:44 26,2 °C 49 % 1011,1 hPa 0,0 mm 0,1 km/h (0 Bft) W-NW 294 ° 0 min 0,000 mm 0,0 UV-I 47 W/m² 14,6 °C 26,2 °C 1,6 km/h (1 Bft)
29.07.2018 17:45 26,2 °C 50 % 1011,1 hPa 0,0 mm 0,5 km/h (0 Bft) W-NW 294 ° 0 min 0,000 mm 0,0 UV-I 47 W/m² 14,9 °C 26,2 °C 1,6 km/h (1 Bft)
29.07.2018 17:46 26,2 °C 51 % 1011,1 hPa 0,0 mm 0,3 km/h (0 Bft) W-NW 294 ° 0 min 0,000 mm 0,0 UV-I 65 W/m² 15,2 °C 26,2 °C 1,6 km/h (1 Bft)
29.07.2018 17:47 26,2 °C 49 % 1011,1 hPa 0,0 mm 0,5 km/h (0 Bft) W-NW 294 ° 0 min 0,000 mm 1,5 UV-I 63 W/m² 14,6 °C 26,2 °C 1,6 km/h (1 Bft)
29.07.2018 17:48 26,2 °C 50 % 1011,1 hPa 0,0 mm 0,0 km/h (0 Bft) W-NW 294 ° 0 min 0,000 mm 0,0 UV-I 47 W/m² 14,9 °C 26,2 °C 0,0 km/h (0 Bft)
29.07.2018 17:49 26,2 °C 50 % 1011,1 hPa 0,0 mm 1,0 km/h (0 Bft) W-NW 294 ° 0 min 0,000 mm 0,0 UV-I 47 W/m² 14,9 °C 26,2 °C 3,2 km/h (1 Bft)
29.07.2018 17:50 26,2 °C 53 % 1011,1 hPa 0,0 mm 0,3 km/h (0 Bft) W-NW 294 ° 0 min 0,000 mm 0,0 UV-I 47 W/m² 15,8 °C 26,2 °C 1,6 km/h (1 Bft)
29.07.2018 17:51 26,2 °C 52 % 1011,1 hPa 0,0 mm 1,0 km/h (0 Bft) W-NW 294 ° 0 min 0,000 mm 0,0 UV-I 47 W/m² 15,6 °C 26,2 °C 3,2 km/h (1 Bft)
29.07.2018 17:52 26,2 °C 52 % 1011,1 hPa 0,0 mm 2,4 km/h (1 Bft) W-NW 294 ° 0 min 0,000 mm 0,0 UV-I 49 W/m² 15,6 °C 26,2 °C 3,2 km/h (1 Bft)
29.07.2018 17:53 26,2 °C 53 % 1011,2 hPa 0,0 mm 2,9 km/h (1 Bft) W-NW 294 ° 0 min 0,000 mm 0,0 UV-I 49 W/m² 15,8 °C 26,2 °C 3,2 km/h (1 Bft)
29.07.2018 17:54 26,1 °C 52 % 1011,2 hPa 0,0 mm 2,7 km/h (1 Bft) W-NW 294 ° 0 min 0,000 mm 0,0 UV-I 49 W/m² 15,5 °C 26,1 °C 3,2 km/h (1 Bft)
29.07.2018 17:55 26,1 °C 49 % 1011,2 hPa 0,0 mm 1,0 km/h (0 Bft) W-NW 294 ° 0 min 0,000 mm 0,0 UV-I 49 W/m² 14,5 °C 26,1 °C 1,6 km/h (1 Bft)
29.07.2018 17:56 26,1 °C 50 % 1011,2 hPa 0,0 mm 2,0 km/h (1 Bft) W-NW 294 ° 0 min 0,000 mm 0,0 UV-I 49 W/m² 14,8 °C 26,1 °C 3,2 km/h (1 Bft)
29.07.2018 17:57 26,1 °C 50 % 1011,2 hPa 0,0 mm 2,2 km/h (1 Bft) W-NW 294 ° 0 min 0,000 mm 0,0 UV-I 49 W/m² 14,8 °C 26,1 °C 3,2 km/h (1 Bft)
29.07.2018 17:58 26,2 °C 50 % 1011,2 hPa 0,0 mm 2,0 km/h (1 Bft) W-NW 294 ° 0 min 0,000 mm 0,0 UV-I 49 W/m² 14,9 °C 26,2 °C 3,2 km/h (1 Bft)
29.07.2018 17:59 26,2 °C 50 % 1011,2 hPa 0,0 mm 4,8 km/h (1 Bft) N 349 ° 0 min 0,000 mm 0,0 UV-I 49 W/m² 14,9 °C 26,2 °C 8,0 km/h (2 Bft)
29.07.2018 18:00 26,2 °C 50 % 1011,2 hPa 0,0 mm 5,2 km/h (1 Bft) N-NW 335 ° 0 min 0,000 mm 0,0 UV-I 49 W/m² 14,9 °C 26,2 °C 8,0 km/h (2 Bft)
29.07.2018 18:01 26,2 °C 50 % 1011,2 hPa 0,0 mm 4,0 km/h (1 Bft) N-NW 342 ° 0 min 0,076 mm 0,0 UV-I 47 W/m² 14,9 °C 26,2 °C 6,4 km/h (2 Bft)
29.07.2018 18:02 26,2 °C 49 % 1011,2 hPa 0,0 mm 0,6 km/h (0 Bft) N-NW 342 ° 0 min 0,000 mm 0,0 UV-I 47 W/m² 14,6 °C 26,2 °C 3,2 km/h (1 Bft)
29.07.2018 18:03 26,1 °C 50 % 1011,2 hPa 0,0 mm 2,7 km/h (1 Bft) N-NW 332 ° 0 min 0,000 mm 0,0 UV-I 47 W/m² 14,8 °C 26,1 °C 4,8 km/h (1 Bft)
29.07.2018 18:04 26,1 °C 50 % 1011,2 hPa 0,0 mm 1,0 km/h (0 Bft) N-NW 332 ° 0 min 0,000 mm 0,0 UV-I 47 W/m² 14,8 °C 26,1 °C 3,2 km/h (1 Bft)
29.07.2018 18:05 26,1 °C 49 % 1011,2 hPa 0,0 mm 1,1 km/h (1 Bft) N-NW 332 ° 0 min 0,000 mm 0,0 UV-I 47 W/m² 14,5 °C 26,1 °C 3,2 km/h (1 Bft)
29.07.2018 18:06 26,1 °C 50 % 1011,2 hPa 0,0 mm 2,2 km/h (1 Bft) N 350 ° 0 min 0,000 mm 0,0 UV-I 47 W/m² 14,8 °C 26,1 °C 4,8 km/h (1 Bft)
29.07.2018 18:07 26,2 °C 51 % 1011,2 hPa 0,0 mm 4,3 km/h (1 Bft) N 360 ° 0 min 0,000 mm 0,0 UV-I 46 W/m² 15,2 °C 26,2 °C 4,8 km/h (1 Bft)
29.07.2018 18:08 26,2 °C 50 % 1011,2 hPa 0,0 mm 6,5 km/h (2 Bft) N 9 ° 0 min 0,000 mm 0,0 UV-I 46 W/m² 14,9 °C 26,2 °C 8,0 km/h (2 Bft)
29.07.2018 18:09 26,3 °C 49 % 1011,2 hPa 0,0 mm 6,1 km/h (2 Bft) N 11 ° 0 min 0,000 mm 0,0 UV-I 46 W/m² 14,7 °C 26,3 °C 8,0 km/h (2 Bft)
29.07.2018 18:10 26,3 °C 50 % 1011,2 hPa 0,0 mm 5,5 km/h (1 Bft) N-NO 12 ° 0 min 0,000 mm 0,0 UV-I 44 W/m² 15,0 °C 26,3 °C 8,0 km/h (2 Bft)
29.07.2018 18:11 26,3 °C 49 % 1011,2 hPa 0,0 mm 3,0 km/h (1 Bft) N-NO 12 ° 0 min 0,000 mm 0,0 UV-I 44 W/m² 14,7 °C 26,3 °C 4,8 km/h (1 Bft)
29.07.2018 18:12 26,3 °C 50 % 1011,1 hPa 0,0 mm 2,1 km/h (1 Bft) N-NO 12 ° 0 min 0,000 mm 0,0 UV-I 44 W/m² 15,0 °C 26,3 °C 4,8 km/h (1 Bft)
29.07.2018 18:13 26,3 °C 50 % 1011,1 hPa 0,0 mm 2,8 km/h (1 Bft) N-NO 12 ° 0 min 0,000 mm 0,0 UV-I 44 W/m² 15,0 °C 26,3 °C 6,4 km/h (2 Bft)
29.07.2018 18:14 26,3 °C 49 % 1011,1 hPa 0,0 mm 4,0 km/h (1 Bft) NO 39 ° 0 min 0,000 mm 0,0 UV-I 44 W/m² 14,7 °C 26,3 °C 4,8 km/h (1 Bft)
29.07.2018 18:15 26,3 °C 51 % 1011,1 hPa 0,0 mm 4,4 km/h (1 Bft) NO 49 ° 0 min 0,000 mm 0,0 UV-I 46 W/m² 15,3 °C 26,3 °C 6,4 km/h (2 Bft)
29.07.2018 18:16 26,3 °C 52 % 1011,1 hPa 0,0 mm 2,0 km/h (1 Bft) NO 49 ° 0 min 0,000 mm 0,0 UV-I 44 W/m² 15,6 °C 26,3 °C 4,8 km/h (1 Bft)
29.07.2018 18:17 26,3 °C 52 % 1011,1 hPa 0,0 mm 1,4 km/h (1 Bft) NO 49 ° 0 min 0,000 mm 0,0 UV-I 44 W/m² 15,6 °C 26,3 °C 4,8 km/h (1 Bft)
29.07.2018 18:18 26,2 °C 49 % 1011,1 hPa 0,0 mm 1,1 km/h (1 Bft) NO 49 ° 0 min 0,000 mm 0,0 UV-I 44 W/m² 14,6 °C 26,2 °C 3,2 km/h (1 Bft)
29.07.2018 18:19 26,1 °C 49 % 1011,1 hPa 0,0 mm 0,6 km/h (0 Bft) NO 49 ° 0 min 0,000 mm 0,0 UV-I 44 W/m² 14,5 °C 26,1 °C 1,6 km/h (1 Bft)
29.07.2018 18:20 26,1 °C 49 % 1011,1 hPa 0,0 mm 0,8 km/h (0 Bft) NO 49 ° 0 min 0,000 mm 0,0 UV-I 44 W/m² 14,5 °C 26,1 °C 1,6 km/h (1 Bft)
29.07.2018 18:21 26,1 °C 49 % 1011,1 hPa 0,0 mm 0,3 km/h (0 Bft) NO 49 ° 0 min 0,000 mm 0,0 UV-I 44 W/m² 14,5 °C 26,1 °C 1,6 km/h (1 Bft)
29.07.2018 18:22 26,0 °C 49 % 1011,1 hPa 0,0 mm 0,0 km/h (0 Bft) NO 49 ° 0 min 0,000 mm 0,0 UV-I 42 W/m² 14,4 °C 26,0 °C 0,0 km/h (0 Bft)
29.07.2018 18:23 25,9 °C 49 % 1011,0 hPa 0,0 mm 0,4 km/h (0 Bft) NO 49 ° 0 min 0,000 mm 0,0 UV-I 42 W/m² 14,4 °C 25,9 °C 1,6 km/h (1 Bft)
29.07.2018 18:24 26,0 °C 51 % 1011,0 hPa 0,0 mm 0,2 km/h (0 Bft) NO 49 ° 0 min 0,000 mm 0,0 UV-I 42 W/m² 15,1 °C 26,0 °C 1,6 km/h (1 Bft)
29.07.2018 18:25 25,9 °C 54 % 1011,1 hPa 0,0 mm 1,4 km/h (1 Bft) NO 49 ° 0 min 0,000 mm 0,0 UV-I 42 W/m² 15,9 °C 25,9 °C 3,2 km/h (1 Bft)
29.07.2018 18:26 25,8 °C 54 % 1011,0 hPa 0,0 mm 0,4 km/h (0 Bft) NO 49 ° 0 min 0,000 mm 0,0 UV-I 42 W/m² 15,8 °C 25,8 °C 1,6 km/h (1 Bft)
29.07.2018 18:27 25,8 °C 51 % 1011,1 hPa 0,0 mm 1,1 km/h (1 Bft) NO 49 ° 0 min 0,000 mm 0,0 UV-I 42 W/m² 14,9 °C 25,8 °C 1,6 km/h (1 Bft)
29.07.2018 18:28 25,8 °C 51 % 1011,1 hPa 0,0 mm 0,2 km/h (0 Bft) NO 49 ° 0 min 0,000 mm 0,0 UV-I 42 W/m² 14,9 °C 25,8 °C 1,6 km/h (1 Bft)
29.07.2018 18:29 25,8 °C 52 % 1011,1 hPa 0,0 mm 0,0 km/h (0 Bft) NO 49 ° 0 min 0,000 mm 0,0 UV-I 42 W/m² 15,2 °C 25,8 °C 0,0 km/h (0 Bft)
29.07.2018 18:30 25,8 °C 51 % 1011,1 hPa 0,0 mm 0,4 km/h (0 Bft) NO 49 ° 0 min 0,000 mm 0,0 UV-I 42 W/m² 14,9 °C 25,8 °C 3,2 km/h (1 Bft)
29.07.2018 18:31 25,7 °C 53 % 1011,0 hPa 0,0 mm 1,5 km/h (1 Bft) NO 49 ° 0 min 0,000 mm 0,0 UV-I 42 W/m² 15,4 °C 25,7 °C 4,8 km/h (1 Bft)
29.07.2018 18:32 25,6 °C 52 % 1011,0 hPa 0,0 mm 0,3 km/h (0 Bft) NO 49 ° 0 min 0,000 mm 0,0 UV-I 42 W/m² 15,0 °C 25,6 °C 1,6 km/h (1 Bft)
29.07.2018 18:33 25,6 °C 51 % 1011,0 hPa 0,0 mm 0,1 km/h (0 Bft) NO 49 ° 0 min 0,000 mm 0,0 UV-I 42 W/m² 14,7 °C 25,6 °C 1,6 km/h (1 Bft)
29.07.2018 18:34 25,6 °C 54 % 1011,1 hPa 0,0 mm 3,4 km/h (1 Bft) N 355 ° 0 min 0,000 mm 0,0 UV-I 42 W/m² 15,6 °C 25,6 °C 4,8 km/h (1 Bft)
29.07.2018 18:35 25,7 °C 54 % 1011,0 hPa 0,0 mm 2,4 km/h (1 Bft) N 355 ° 0 min 0,000 mm 0,0 UV-I 42 W/m² 15,7 °C 25,7 °C 4,8 km/h (1 Bft)
29.07.2018 18:36 25,7 °C 56 % 1011,0 hPa 0,0 mm 2,7 km/h (1 Bft) N 355 ° 0 min 0,000 mm 0,0 UV-I 42 W/m² 16,2 °C 25,7 °C 3,2 km/h (1 Bft)
29.07.2018 18:37 25,7 °C 55 % 1011,1 hPa 0,0 mm 2,5 km/h (1 Bft) N 355 ° 0 min 0,000 mm 0,0 UV-I 42 W/m² 16,0 °C 25,7 °C 4,8 km/h (1 Bft)
29.07.2018 18:38 25,7 °C 58 % 1011,1 hPa 0,0 mm 1,3 km/h (1 Bft) N 355 ° 0 min 0,000 mm 0,0 UV-I 40 W/m² 16,8 °C 25,7 °C 3,2 km/h (1 Bft)
29.07.2018 18:39 25,7 °C 55 % 1011,1 hPa 0,0 mm 0,3 km/h (0 Bft) N 355 ° 0 min 0,000 mm 0,0 UV-I 40 W/m² 16,0 °C 25,7 °C 1,6 km/h (1 Bft)
29.07.2018 18:40 25,8 °C 52 % 1011,1 hPa 0,0 mm 2,6 km/h (1 Bft) NO 44 ° 0 min 0,000 mm 0,0 UV-I 40 W/m² 15,2 °C 25,8 °C 6,4 km/h (2 Bft)
29.07.2018 18:41 25,8 °C 54 % 1011,1 hPa 0,0 mm 3,6 km/h (1 Bft) NO 44 ° 0 min 0,000 mm 0,0 UV-I 40 W/m² 15,8 °C 25,8 °C 4,8 km/h (1 Bft)
29.07.2018 18:42 25,7 °C 54 % 1011,1 hPa 0,0 mm 2,7 km/h (1 Bft) NO 48 ° 0 min 0,000 mm 0,0 UV-I 40 W/m² 15,7 °C 25,7 °C 6,4 km/h (2 Bft)
29.07.2018 18:43 25,7 °C 53 % 1011,1 hPa 0,0 mm 2,5 km/h (1 Bft) NO 48 ° 0 min 0,000 mm 0,0 UV-I 40 W/m² 15,4 °C 25,7 °C 3,2 km/h (1 Bft)
29.07.2018 18:44 25,7 °C 52 % 1011,1 hPa 0,0 mm 0,3 km/h (0 Bft) NO 48 ° 0 min 0,000 mm 0,0 UV-I 40 W/m² 15,1 °C 25,7 °C 1,6 km/h (1 Bft)
29.07.2018 18:45 25,7 °C 52 % 1011,1 hPa 0,0 mm 0,0 km/h (0 Bft) NO 48 ° 0 min 0,000 mm 0,0 UV-I 40 W/m² 15,1 °C 25,7 °C 0,0 km/h (0 Bft)
29.07.2018 18:46 25,7 °C 55 % 1011,1 hPa 0,0 mm 0,1 km/h (0 Bft) NO 48 ° 0 min 0,000 mm 0,0 UV-I 40 W/m² 16,0 °C 25,7 °C 1,6 km/h (1 Bft)
29.07.2018 18:47 25,8 °C 53 % 1011,1 hPa 0,0 mm 0,7 km/h (0 Bft) NO 48 ° 0 min 0,000 mm 0,0 UV-I 40 W/m² 15,5 °C 25,8 °C 1,6 km/h (1 Bft)
29.07.2018 18:48 25,8 °C 53 % 1011,1 hPa 0,0 mm 0,3 km/h (0 Bft) NO 48 ° 0 min 0,000 mm 0,0 UV-I 40 W/m² 15,5 °C 25,8 °C 3,2 km/h (1 Bft)
29.07.2018 18:49 25,8 °C 55 % 1011,1 hPa 0,0 mm 0,6 km/h (0 Bft) NO 48 ° 0 min 0,000 mm 0,0 UV-I 40 W/m² 16,1 °C 25,8 °C 3,2 km/h (1 Bft)
29.07.2018 18:50 25,8 °C 53 % 1011,1 hPa 0,0 mm 2,1 km/h (1 Bft) NO 49 ° 0 min 0,000 mm 0,0 UV-I 40 W/m² 15,5 °C 25,8 °C 6,4 km/h (2 Bft)
29.07.2018 18:51 25,8 °C 53 % 1011,2 hPa 0,0 mm 4,2 km/h (1 Bft) NO 49 ° 0 min 0,000 mm 0,0 UV-I 40 W/m² 15,5 °C 25,8 °C 6,4 km/h (2 Bft)
29.07.2018 18:52 25,8 °C 56 % 1011,2 hPa 0,0 mm 2,2 km/h (1 Bft) NO 49 ° 0 min 0,000 mm 0,0 UV-I 39 W/m² 16,3 °C 25,8 °C 4,8 km/h (1 Bft)
29.07.2018 18:53 25,8 °C 54 % 1011,2 hPa 0,0 mm 0,6 km/h (0 Bft) NO 49 ° 0 min 0,000 mm 0,0 UV-I 39 W/m² 15,8 °C 25,8 °C 1,6 km/h (1 Bft)
29.07.2018 18:54 25,8 °C 56 % 1011,2 hPa 0,0 mm 1,3 km/h (1 Bft) NO 53 ° 0 min 0,000 mm 0,0 UV-I 39 W/m² 16,3 °C 25,8 °C 4,8 km/h (1 Bft)
29.07.2018 18:55 25,8 °C 53 % 1011,2 hPa 0,0 mm 3,6 km/h (1 Bft) NO 53 ° 0 min 0,000 mm 0,0 UV-I 39 W/m² 15,5 °C 25,8 °C 4,8 km/h (1 Bft)
29.07.2018 18:56 25,8 °C 52 % 1011,2 hPa 0,0 mm 1,2 km/h (1 Bft) NO 53 ° 0 min 0,000 mm 0,0 UV-I 39 W/m² 15,2 °C 25,8 °C 4,8 km/h (1 Bft)
29.07.2018 18:57 25,8 °C 55 % 1011,2 hPa 0,0 mm 0,2 km/h (0 Bft) NO 53 ° 0 min 0,000 mm 0,0 UV-I 39 W/m² 16,1 °C 25,8 °C 1,6 km/h (1 Bft)
29.07.2018 18:58 25,7 °C 55 % 1011,2 hPa 0,0 mm 2,9 km/h (1 Bft) NO 53 ° 0 min 0,000 mm 0,0 UV-I 39 W/m² 16,0 °C 25,7 °C 4,8 km/h (1 Bft)
29.07.2018 18:59 25,7 °C 53 % 1011,3 hPa 0,0 mm 3,0 km/h (1 Bft) NO 53 ° 0 min 0,000 mm 0,0 UV-I 39 W/m² 15,4 °C 25,7 °C 6,4 km/h (2 Bft)
29.07.2018 19:00 25,6 °C 59 % 1011,2 hPa 0,0 mm 2,0 km/h (1 Bft) NO 53 ° 0 min 0,000 mm 0,0 UV-I 39 W/m² 17,0 °C 25,6 °C 3,2 km/h (1 Bft)
29.07.2018 19:01 25,5 °C 59 % 1011,2 hPa 0,0 mm 3,3 km/h (1 Bft) O-NO 76 ° 0 min 0,051 mm 0,0 UV-I 39 W/m² 16,9 °C 25,5 °C 6,4 km/h (2 Bft)
29.07.2018 19:02 25,4 °C 55 % 1011,2 hPa 0,0 mm 0,5 km/h (0 Bft) O-NO 76 ° 0 min 0,000 mm 0,0 UV-I 39 W/m² 15,7 °C 25,4 °C 1,6 km/h (1 Bft)
29.07.2018 19:04 25,3 °C 55 % 1011,2 hPa 0,0 mm 1,7 km/h (1 Bft) O-NO 76 ° 0 min 0,000 mm 0,0 UV-I 39 W/m² 15,6 °C 25,3 °C 4,8 km/h (1 Bft)
29.07.2018 19:05 25,3 °C 55 % 1011,2 hPa 0,0 mm 0,2 km/h (0 Bft) O-NO 76 ° 0 min 0,000 mm 0,0 UV-I 39 W/m² 15,6 °C 25,3 °C 3,2 km/h (1 Bft)
29.07.2018 19:06 25,3 °C 54 % 1011,3 hPa 0,0 mm 2,2 km/h (1 Bft) O 81 ° 0 min 0,000 mm 0,0 UV-I 39 W/m² 15,3 °C 25,3 °C 4,8 km/h (1 Bft)
29.07.2018 19:07 25,3 °C 56 % 1011,2 hPa 0,0 mm 0,4 km/h (0 Bft) O 81 ° 0 min 0,000 mm 0,0 UV-I 37 W/m² 15,9 °C 25,3 °C 1,6 km/h (1 Bft)
29.07.2018 19:08 25,3 °C 55 % 1011,2 hPa 0,0 mm 1,8 km/h (1 Bft) O 81 ° 0 min 0,000 mm 0,0 UV-I 37 W/m² 15,6 °C 25,3 °C 3,2 km/h (1 Bft)
29.07.2018 19:09 25,3 °C 54 % 1011,2 hPa 0,0 mm 0,3 km/h (0 Bft) O 81 ° 0 min 0,000 mm 0,0 UV-I 37 W/m² 15,3 °C 25,3 °C 1,6 km/h (1 Bft)
29.07.2018 19:10 25,3 °C 53 % 1011,3 hPa 0,0 mm 0,0 km/h (0 Bft) O 81 ° 0 min 0,000 mm 0,0 UV-I 37 W/m² 15,0 °C 25,3 °C 0,0 km/h (0 Bft)
29.07.2018 19:11 25,3 °C 53 % 1011,3 hPa 0,0 mm 0,0 km/h (0 Bft) O 81 ° 0 min 0,000 mm 0,0 UV-I 37 W/m² 15,0 °C 25,3 °C 0,0 km/h (0 Bft)
29.07.2018 19:12 25,3 °C 56 % 1011,2 hPa 0,0 mm 0,2 km/h (0 Bft) O 81 ° 0 min 0,000 mm 0,0 UV-I 37 W/m² 15,9 °C 25,3 °C 1,6 km/h (1 Bft)
29.07.2018 19:13 25,2 °C 55 % 1011,2 hPa 0,0 mm 0,5 km/h (0 Bft) O 81 ° 0 min 0,000 mm 0,0 UV-I 44 W/m² 15,5 °C 25,2 °C 1,6 km/h (1 Bft)
29.07.2018 19:14 25,2 °C 55 % 1011,3 hPa 0,0 mm 0,7 km/h (0 Bft) O 81 ° 0 min 0,000 mm 0,0 UV-I 49 W/m² 15,5 °C 25,2 °C 1,6 km/h (1 Bft)
29.07.2018 19:15 25,2 °C 55 % 1011,2 hPa 0,0 mm 1,5 km/h (1 Bft) O 81 ° 0 min 0,000 mm 0,0 UV-I 42 W/m² 15,5 °C 25,2 °C 3,2 km/h (1 Bft)
29.07.2018 19:16 25,1 °C 57 % 1011,2 hPa 0,0 mm 1,5 km/h (1 Bft) O 81 ° 0 min 0,000 mm 0,0 UV-I 37 W/m² 16,0 °C 25,1 °C 3,2 km/h (1 Bft)
29.07.2018 19:17 25,1 °C 57 % 1011,2 hPa 0,0 mm 1,1 km/h (1 Bft) O 81 ° 0 min 0,000 mm 0,0 UV-I 35 W/m² 16,0 °C 25,1 °C 3,2 km/h (1 Bft)
29.07.2018 19:18 25,1 °C 57 % 1011,2 hPa 0,0 mm 1,0 km/h (0 Bft) O 81 ° 0 min 0,000 mm 0,0 UV-I 35 W/m² 16,0 °C 25,1 °C 3,2 km/h (1 Bft)
29.07.2018 19:19 25,0 °C 55 % 1011,3 hPa 0,0 mm 0,2 km/h (0 Bft) O 81 ° 0 min 0,000 mm 0,0 UV-I 35 W/m² 15,3 °C 25,0 °C 1,6 km/h (1 Bft)
29.07.2018 19:20 24,9 °C 58 % 1011,2 hPa 0,0 mm 0,0 km/h (0 Bft) O 81 ° 0 min 0,000 mm 0,0 UV-I 35 W/m² 16,1 °C 24,9 °C 0,0 km/h (0 Bft)
29.07.2018 19:21 24,9 °C 57 % 1011,2 hPa 0,0 mm 0,7 km/h (0 Bft) O 81 ° 0 min 0,000 mm 0,0 UV-I 35 W/m² 15,8 °C 24,9 °C 1,6 km/h (1 Bft)
29.07.2018 19:22 24,9 °C 57 % 1011,3 hPa 0,0 mm 0,0 km/h (0 Bft) O 81 ° 0 min 0,000 mm 0,0 UV-I 37 W/m² 15,8 °C 24,9 °C 0,0 km/h (0 Bft)
29.07.2018 19:23 24,9 °C 59 % 1011,2 hPa 0,0 mm 0,1 km/h (0 Bft) O 81 ° 0 min 0,000 mm 0,0 UV-I 37 W/m² 16,3 °C 24,9 °C 1,6 km/h (1 Bft)
29.07.2018 19:24 24,9 °C 59 % 1011,3 hPa 0,0 mm 1,6 km/h (1 Bft) O 81 ° 0 min 0,000 mm 0,0 UV-I 35 W/m² 16,3 °C 24,9 °C 4,8 km/h (1 Bft)
29.07.2018 19:25 24,8 °C 56 % 1011,2 hPa 0,0 mm 1,6 km/h (1 Bft) O 81 ° 0 min 0,000 mm 0,0 UV-I 39 W/m² 15,4 °C 24,8 °C 3,2 km/h (1 Bft)
29.07.2018 19:26 24,9 °C 56 % 1011,2 hPa 0,0 mm 0,3 km/h (0 Bft) O 81 ° 0 min 0,000 mm 0,6 UV-I 91 W/m² 15,5 °C 24,9 °C 1,6 km/h (1 Bft)
29.07.2018 19:27 24,9 °C 57 % 1011,2 hPa 0,0 mm 0,0 km/h (0 Bft) O 81 ° 0 min 0,000 mm 0,6 UV-I 90 W/m² 15,8 °C 24,9 °C 0,0 km/h (0 Bft)
29.07.2018 19:28 24,9 °C 57 % 1011,2 hPa 0,0 mm 0,3 km/h (0 Bft) O 81 ° 0 min 0,000 mm 0,6 UV-I 60 W/m² 15,8 °C 24,9 °C 1,6 km/h (1 Bft)
29.07.2018 19:29 24,9 °C 54 % 1011,2 hPa 0,0 mm 0,9 km/h (0 Bft) O 81 ° 0 min 0,000 mm 0,0 UV-I 37 W/m² 14,9 °C 24,9 °C 1,6 km/h (1 Bft)
29.07.2018 19:30 25,1 °C 56 % 1011,2 hPa 0,0 mm 0,4 km/h (0 Bft) O 81 ° 0 min 0,000 mm 0,0 UV-I 35 W/m² 15,7 °C 25,1 °C 1,6 km/h (1 Bft)
29.07.2018 19:31 25,0 °C 56 % 1011,2 hPa 0,0 mm 0,1 km/h (0 Bft) O 81 ° 0 min 0,000 mm 0,0 UV-I 40 W/m² 15,6 °C 25,0 °C 1,6 km/h (1 Bft)
29.07.2018 19:32 24,9 °C 57 % 1011,2 hPa 0,0 mm 0,0 km/h (0 Bft) O 81 ° 0 min 0,000 mm 0,6 UV-I 60 W/m² 15,8 °C 24,9 °C 0,0 km/h (0 Bft)
29.07.2018 19:33 24,8 °C 57 % 1011,1 hPa 0,0 mm 0,0 km/h (0 Bft) O 81 ° 0 min 0,000 mm 0,0 UV-I 47 W/m² 15,7 °C 24,8 °C 0,0 km/h (0 Bft)
29.07.2018 19:34 24,7 °C 57 % 1011,2 hPa 0,0 mm 0,0 km/h (0 Bft) O 81 ° 0 min 0,000 mm 0,0 UV-I 44 W/m² 15,6 °C 24,7 °C 0,0 km/h (0 Bft)
29.07.2018 19:35 24,6 °C 58 % 1011,1 hPa 0,0 mm 0,2 km/h (0 Bft) O 81 ° 0 min 0,000 mm 0,0 UV-I 40 W/m² 15,8 °C 24,6 °C 1,6 km/h (1 Bft)
29.07.2018 19:36 24,5 °C 58 % 1011,1 hPa 0,0 mm 0,0 km/h (0 Bft) O 81 ° 0 min 0,000 mm 0,5 UV-I 69 W/m² 15,7 °C 24,5 °C 0,0 km/h (0 Bft)
29.07.2018 19:37 24,5 °C 57 % 1011,2 hPa 0,0 mm 0,0 km/h (0 Bft) O 81 ° 0 min 0,000 mm 0,5 UV-I 47 W/m² 15,4 °C 24,5 °C 0,0 km/h (0 Bft)
29.07.2018 19:38 24,5 °C 58 % 1011,2 hPa 0,0 mm 0,0 km/h (0 Bft) O 81 ° 0 min 0,000 mm 0,0 UV-I 35 W/m² 15,7 °C 24,5 °C 0,0 km/h (0 Bft)
29.07.2018 19:39 24,5 °C 59 % 1011,2 hPa 0,0 mm 0,0 km/h (0 Bft) O 81 ° 0 min 0,000 mm 0,0 UV-I 49 W/m² 15,9 °C 24,5 °C 0,0 km/h (0 Bft)
29.07.2018 19:40 24,4 °C 57 % 1011,1 hPa 0,0 mm 0,0 km/h (0 Bft) O 81 ° 0 min 0,000 mm 0,5 UV-I 76 W/m² 15,3 °C 24,4 °C 0,0 km/h (0 Bft)
29.07.2018 19:41 24,4 °C 58 % 1011,1 hPa 0,0 mm 0,0 km/h (0 Bft) O 81 ° 0 min 0,000 mm 0,5 UV-I 100 W/m² 15,6 °C 24,4 °C 0,0 km/h (0 Bft)
29.07.2018 19:42 24,4 °C 57 % 1011,1 hPa 0,0 mm 0,0 km/h (0 Bft) O 81 ° 0 min 0,000 mm 0,5 UV-I 104 W/m² 15,3 °C 24,4 °C 0,0 km/h (0 Bft)
29.07.2018 19:43 24,4 °C 60 % 1011,1 hPa 0,0 mm 0,0 km/h (0 Bft) O 81 ° 0 min 0,000 mm 0,5 UV-I 98 W/m² 16,1 °C 24,4 °C 0,0 km/h (0 Bft)
29.07.2018 19:44 24,4 °C 58 % 1011,1 hPa 0,0 mm 0,0 km/h (0 Bft) O 81 ° 0 min 0,000 mm 0,5 UV-I 97 W/m² 15,6 °C 24,4 °C 0,0 km/h (0 Bft)
29.07.2018 19:45 24,3 °C 59 % 1011,2 hPa 0,0 mm 0,0 km/h (0 Bft) O 81 ° 0 min 0,000 mm 0,0 UV-I 95 W/m² 15,8 °C 24,3 °C 0,0 km/h (0 Bft)
29.07.2018 19:46 24,4 °C 58 % 1011,2 hPa 0,0 mm 0,6 km/h (0 Bft) O 81 ° 0 min 0,000 mm 0,0 UV-I 91 W/m² 15,6 °C 24,4 °C 3,2 km/h (1 Bft)
29.07.2018 19:47 24,4 °C 59 % 1011,2 hPa 0,0 mm 0,3 km/h (0 Bft) O 81 ° 0 min 0,000 mm 0,0 UV-I 90 W/m² 15,9 °C 24,4 °C 1,6 km/h (1 Bft)
29.07.2018 19:48 24,4 °C 58 % 1011,2 hPa 0,0 mm 0,0 km/h (0 Bft) O 81 ° 0 min 0,000 mm 0,0 UV-I 88 W/m² 15,6 °C 24,4 °C 0,0 km/h (0 Bft)
29.07.2018 19:49 24,4 °C 60 % 1011,2 hPa 0,0 mm 0,8 km/h (0 Bft) O 81 ° 0 min 0,000 mm 0,0 UV-I 86 W/m² 16,1 °C 24,4 °C 3,2 km/h (1 Bft)
29.07.2018 19:50 24,3 °C 58 % 1011,2 hPa 0,0 mm 0,1 km/h (0 Bft) O 81 ° 0 min 0,000 mm 0,0 UV-I 83 W/m² 15,5 °C 24,3 °C 1,6 km/h (1 Bft)
29.07.2018 19:51 24,3 °C 58 % 1011,2 hPa 0,0 mm 0,0 km/h (0 Bft) O 81 ° 0 min 0,000 mm 0,0 UV-I 81 W/m² 15,5 °C 24,3 °C 0,0 km/h (0 Bft)
29.07.2018 19:52 24,3 °C 59 % 1011,2 hPa 0,0 mm 0,0 km/h (0 Bft) O 81 ° 0 min 0,000 mm 0,0 UV-I 79 W/m² 15,8 °C 24,3 °C 0,0 km/h (0 Bft)
29.07.2018 19:53 24,3 °C 60 % 1011,3 hPa 0,0 mm 0,0 km/h (0 Bft) O 81 ° 0 min 0,000 mm 0,0 UV-I 77 W/m² 16,0 °C 24,3 °C 0,0 km/h (0 Bft)
29.07.2018 19:54 24,2 °C 58 % 1011,3 hPa 0,0 mm 0,4 km/h (0 Bft) O 81 ° 0 min 0,000 mm 0,0 UV-I 76 W/m² 15,4 °C 24,2 °C 1,6 km/h (1 Bft)
29.07.2018 19:55 24,2 °C 58 % 1011,2 hPa 0,0 mm 0,0 km/h (0 Bft) O 81 ° 0 min 0,000 mm 0,0 UV-I 72 W/m² 15,4 °C 24,2 °C 0,0 km/h (0 Bft)
29.07.2018 19:56 24,2 °C 59 % 1011,3 hPa 0,0 mm 0,0 km/h (0 Bft) O 81 ° 0 min 0,000 mm 0,0 UV-I 69 W/m² 15,7 °C 24,2 °C 0,0 km/h (0 Bft)
29.07.2018 19:57 24,2 °C 59 % 1011,3 hPa 0,0 mm 0,0 km/h (0 Bft) O 81 ° 0 min 0,000 mm 0,0 UV-I 67 W/m² 15,7 °C 24,2 °C 0,0 km/h (0 Bft)
29.07.2018 19:58 24,2 °C 59 % 1011,3 hPa 0,0 mm 0,0 km/h (0 Bft) O 81 ° 0 min 0,000 mm 0,0 UV-I 65 W/m² 15,7 °C 24,2 °C 0,0 km/h (0 Bft)
29.07.2018 19:59 24,2 °C 58 % 1011,4 hPa 0,0 mm 0,0 km/h (0 Bft) O 81 ° 0 min 0,000 mm 0,0 UV-I 63 W/m² 15,4 °C 24,2 °C 0,0 km/h (0 Bft)
29.07.2018 20:00 24,2 °C 59 % 1011,3 hPa 0,0 mm 0,5 km/h (0 Bft) O 81 ° 0 min 0,000 mm 0,0 UV-I 62 W/m² 15,7 °C 24,2 °C 1,6 km/h (1 Bft)
29.07.2018 20:01 24,2 °C 60 % 1011,3 hPa 0,0 mm 0,0 km/h (0 Bft) O 81 ° 0 min 0,051 mm 0,0 UV-I 58 W/m² 15,9 °C 24,2 °C 0,0 km/h (0 Bft)
29.07.2018 20:03 24,0 °C 59 % 1011,3 hPa 0,0 mm 0,0 km/h (0 Bft) O 81 ° 0 min 0,000 mm 0,0 UV-I 56 W/m² 15,5 °C 24,0 °C 0,0 km/h (0 Bft)
29.07.2018 20:04 23,9 °C 60 % 1011,3 hPa 0,0 mm 0,0 km/h (0 Bft) O 81 ° 0 min 0,000 mm 0,0 UV-I 54 W/m² 15,7 °C 23,9 °C 0,0 km/h (0 Bft)
29.07.2018 20:05 23,9 °C 60 % 1011,3 hPa 0,0 mm 0,0 km/h (0 Bft) O 81 ° 0 min 0,000 mm 0,0 UV-I 53 W/m² 15,7 °C 23,9 °C 0,0 km/h (0 Bft)
29.07.2018 20:06 23,9 °C 59 % 1011,3 hPa 0,0 mm 0,0 km/h (0 Bft) O 81 ° 0 min 0,000 mm 0,0 UV-I 51 W/m² 15,4 °C 23,9 °C 0,0 km/h (0 Bft)
29.07.2018 20:07 23,9 °C 60 % 1011,3 hPa 0,0 mm 0,0 km/h (0 Bft) O 81 ° 0 min 0,000 mm 0,0 UV-I 47 W/m² 15,7 °C 23,9 °C 0,0 km/h (0 Bft)
29.07.2018 20:08 23,9 °C 59 % 1011,3 hPa 0,0 mm 0,0 km/h (0 Bft) O 81 ° 0 min 0,000 mm 0,0 UV-I 46 W/m² 15,4 °C 23,9 °C 0,0 km/h (0 Bft)
29.07.2018 20:09 23,9 °C 60 % 1011,4 hPa 0,0 mm 0,0 km/h (0 Bft) O 81 ° 0 min 0,000 mm 0,0 UV-I 44 W/m² 15,7 °C 23,9 °C 0,0 km/h (0 Bft)
29.07.2018 20:10 23,9 °C 60 % 1011,3 hPa 0,0 mm 0,0 km/h (0 Bft) O 81 ° 0 min 0,000 mm 0,0 UV-I 42 W/m² 15,7 °C 23,9 °C 0,0 km/h (0 Bft)
29.07.2018 20:11 23,9 °C 60 % 1011,4 hPa 0,0 mm 0,0 km/h (0 Bft) O 81 ° 0 min 0,000 mm 0,0 UV-I 42 W/m² 15,7 °C 23,9 °C 0,0 km/h (0 Bft)
29.07.2018 20:12 23,8 °C 62 % 1011,4 hPa 0,0 mm 0,0 km/h (0 Bft) O 81 ° 0 min 0,000 mm 0,0 UV-I 40 W/m² 16,1 °C 23,8 °C 0,0 km/h (0 Bft)
29.07.2018 20:13 23,8 °C 60 % 1011,4 hPa 0,0 mm 0,0 km/h (0 Bft) O 81 ° 0 min 0,000 mm 0,0 UV-I 39 W/m² 15,6 °C 23,8 °C 0,0 km/h (0 Bft)
29.07.2018 20:14 23,8 °C 60 % 1011,4 hPa 0,0 mm 0,0 km/h (0 Bft) O 81 ° 0 min 0,000 mm 0,0 UV-I 35 W/m² 15,6 °C 23,8 °C 0,0 km/h (0 Bft)
29.07.2018 20:15 23,8 °C 61 % 1011,4 hPa 0,0 mm 0,0 km/h (0 Bft) O 81 ° 0 min 0,000 mm 0,0 UV-I 35 W/m² 15,8 °C 23,8 °C 0,0 km/h (0 Bft)
29.07.2018 20:16 23,7 °C 61 % 1011,4 hPa 0,0 mm 0,0 km/h (0 Bft) O 81 ° 0 min 0,000 mm 0,0 UV-I 33 W/m² 15,7 °C 23,7 °C 0,0 km/h (0 Bft)
29.07.2018 20:17 23,7 °C 62 % 1011,4 hPa 0,0 mm 0,0 km/h (0 Bft) O 81 ° 0 min 0,000 mm 0,0 UV-I 32 W/m² 16,0 °C 23,7 °C 0,0 km/h (0 Bft)
29.07.2018 20:18 23,6 °C 64 % 1011,3 hPa 0,0 mm 0,9 km/h (0 Bft) O 81 ° 0 min 0,000 mm 0,0 UV-I 30 W/m² 16,4 °C 23,6 °C 1,6 km/h (1 Bft)
29.07.2018 20:19 23,4 °C 62 % 1011,4 hPa 0,0 mm 0,0 km/h (0 Bft) O 81 ° 0 min 0,000 mm 0,0 UV-I 28 W/m² 15,7 °C 23,4 °C 0,0 km/h (0 Bft)
29.07.2018 20:20 23,4 °C 61 % 1011,4 hPa 0,0 mm 0,0 km/h (0 Bft) O 81 ° 0 min 0,000 mm 0,0 UV-I 26 W/m² 15,4 °C 23,4 °C 0,0 km/h (0 Bft)
29.07.2018 20:21 23,4 °C 62 % 1011,4 hPa 0,0 mm 0,0 km/h (0 Bft) O 81 ° 0 min 0,000 mm 0,0 UV-I 26 W/m² 15,7 °C 23,4 °C 0,0 km/h (0 Bft)
29.07.2018 20:22 23,4 °C 63 % 1011,4 hPa 0,0 mm 0,0 km/h (0 Bft) O 81 ° 0 min 0,000 mm 0,0 UV-I 25 W/m² 15,9 °C 23,4 °C 0,0 km/h (0 Bft)
29.07.2018 20:23 23,3 °C 62 % 1011,4 hPa 0,0 mm 0,0 km/h (0 Bft) O 81 ° 0 min 0,000 mm 0,0 UV-I 25 W/m² 15,6 °C 23,3 °C 0,0 km/h (0 Bft)
29.07.2018 20:24 23,3 °C 62 % 1011,5 hPa 0,0 mm 0,0 km/h (0 Bft) O 81 ° 0 min 0,000 mm 0,0 UV-I 21 W/m² 15,6 °C 23,3 °C 0,0 km/h (0 Bft)
29.07.2018 20:25 23,3 °C 63 % 1011,4 hPa 0,0 mm 0,0 km/h (0 Bft) O 81 ° 0 min 0,000 mm 0,0 UV-I 21 W/m² 15,9 °C 23,3 °C 0,0 km/h (0 Bft)
29.07.2018 20:26 23,3 °C 62 % 1011,4 hPa 0,0 mm 0,1 km/h (0 Bft) O 81 ° 0 min 0,000 mm 0,0 UV-I 19 W/m² 15,6 °C 23,3 °C 1,6 km/h (1 Bft)
29.07.2018 20:27 23,2 °C 63 % 1011,5 hPa 0,0 mm 0,7 km/h (0 Bft) O 81 ° 0 min 0,000 mm 0,0 UV-I 19 W/m² 15,8 °C 23,2 °C 1,6 km/h (1 Bft)
29.07.2018 20:28 23,2 °C 62 % 1011,5 hPa 0,0 mm 0,9 km/h (0 Bft) O 81 ° 0 min 0,000 mm 0,0 UV-I 18 W/m² 15,5 °C 23,2 °C 1,6 km/h (1 Bft)
29.07.2018 20:29 23,2 °C 63 % 1011,5 hPa 0,0 mm 1,4 km/h (1 Bft) O 81 ° 0 min 0,000 mm 0,0 UV-I 18 W/m² 15,8 °C 23,2 °C 3,2 km/h (1 Bft)
29.07.2018 20:30 23,1 °C 63 % 1011,4 hPa 0,0 mm 1,2 km/h (1 Bft) O 81 ° 0 min 0,000 mm 0,0 UV-I 16 W/m² 15,7 °C 23,1 °C 3,2 km/h (1 Bft)
29.07.2018 20:31 23,1 °C 63 % 1011,4 hPa 0,0 mm 1,1 km/h (1 Bft) O 81 ° 0 min 0,000 mm 0,0 UV-I 14 W/m² 15,7 °C 23,1 °C 1,6 km/h (1 Bft)
29.07.2018 20:32 22,9 °C 64 % 1011,4 hPa 0,0 mm 0,5 km/h (0 Bft) O 81 ° 0 min 0,000 mm 0,0 UV-I 14 W/m² 15,7 °C 22,9 °C 1,6 km/h (1 Bft)
29.07.2018 20:33 22,8 °C 65 % 1011,4 hPa 0,0 mm 0,5 km/h (0 Bft) O 81 ° 0 min 0,000 mm 0,0 UV-I 14 W/m² 15,9 °C 22,8 °C 1,6 km/h (1 Bft)
29.07.2018 20:34 22,7 °C 65 % 1011,5 hPa 0,0 mm 1,1 km/h (1 Bft) O 81 ° 0 min 0,000 mm 0,0 UV-I 14 W/m² 15,8 °C 22,7 °C 1,6 km/h (1 Bft)
29.07.2018 20:35 22,6 °C 66 % 1011,5 hPa 0,0 mm 1,5 km/h (1 Bft) O 81 ° 0 min 0,000 mm 0,0 UV-I 12 W/m² 15,9 °C 22,6 °C 3,2 km/h (1 Bft)
29.07.2018 20:36 22,5 °C 66 % 1011,5 hPa 0,0 mm 0,9 km/h (0 Bft) O 81 ° 0 min 0,000 mm 0,0 UV-I 12 W/m² 15,8 °C 22,5 °C 1,6 km/h (1 Bft)
29.07.2018 20:37 22,4 °C 67 % 1011,5 hPa 0,0 mm 1,7 km/h (1 Bft) O 81 ° 0 min 0,000 mm 0,0 UV-I 12 W/m² 16,0 °C 22,4 °C 3,2 km/h (1 Bft)
29.07.2018 20:38 22,3 °C 67 % 1011,5 hPa 0,0 mm 0,5 km/h (0 Bft) O 81 ° 0 min 0,000 mm 0,0 UV-I 11 W/m² 15,9 °C 22,3 °C 1,6 km/h (1 Bft)
29.07.2018 20:39 22,2 °C 67 % 1011,5 hPa 0,0 mm 0,0 km/h (0 Bft) O 81 ° 0 min 0,000 mm 0,0 UV-I 11 W/m² 15,8 °C 22,2 °C 0,0 km/h (0 Bft)
29.07.2018 20:40 22,2 °C 67 % 1011,5 hPa 0,0 mm 0,0 km/h (0 Bft) O 81 ° 0 min 0,000 mm 0,0 UV-I 11 W/m² 15,8 °C 22,2 °C 0,0 km/h (0 Bft)
29.07.2018 20:41 22,1 °C 67 % 1011,5 hPa 0,0 mm 0,0 km/h (0 Bft) O 81 ° 0 min 0,000 mm 0,0 UV-I 11 W/m² 15,7 °C 22,1 °C 0,0 km/h (0 Bft)
29.07.2018 20:42 22,0 °C 69 % 1011,5 hPa 0,0 mm 0,0 km/h (0 Bft) O 81 ° 0 min 0,000 mm 0,0 UV-I 9 W/m² 16,0 °C 22,0 °C 0,0 km/h (0 Bft)
29.07.2018 20:43 21,8 °C 69 % 1011,5 hPa 0,0 mm 0,0 km/h (0 Bft) O 81 ° 0 min 0,000 mm 0,0 UV-I 9 W/m² 15,9 °C 21,8 °C 0,0 km/h (0 Bft)
29.07.2018 20:44 21,5 °C 70 % 1011,5 hPa 0,0 mm 0,0 km/h (0 Bft) O 81 ° 0 min 0,000 mm 0,0 UV-I 9 W/m² 15,8 °C 21,5 °C 0,0 km/h (0 Bft)
29.07.2018 20:45 21,3 °C 71 % 1011,5 hPa 0,0 mm 0,0 km/h (0 Bft) O 81 ° 0 min 0,000 mm 0,0 UV-I 7 W/m² 15,8 °C 21,3 °C 0,0 km/h (0 Bft)
29.07.2018 20:46 21,1 °C 72 % 1011,6 hPa 0,0 mm 0,0 km/h (0 Bft) O 81 ° 0 min 0,000 mm 0,0 UV-I 7 W/m² 15,8 °C 21,1 °C 0,0 km/h (0 Bft)
29.07.2018 20:47 20,9 °C 72 % 1011,6 hPa 0,0 mm 0,0 km/h (0 Bft) O 81 ° 0 min 0,000 mm 0,0 UV-I 7 W/m² 15,7 °C 20,9 °C 0,0 km/h (0 Bft)
29.07.2018 20:48 20,8 °C 73 % 1011,6 hPa 0,0 mm 0,0 km/h (0 Bft) O 81 ° 0 min 0,000 mm 0,0 UV-I 5 W/m² 15,8 °C 20,8 °C 0,0 km/h (0 Bft)
29.07.2018 20:49 20,7 °C 73 % 1011,7 hPa 0,0 mm 0,0 km/h (0 Bft) O 81 ° 0 min 0,000 mm 0,0 UV-I 5 W/m² 15,7 °C 20,7 °C 0,0 km/h (0 Bft)
29.07.2018 20:50 20,6 °C 73 % 1011,7 hPa 0,0 mm 0,0 km/h (0 Bft) O 81 ° 0 min 0,000 mm 0,0 UV-I 5 W/m² 15,6 °C 20,6 °C 0,0 km/h (0 Bft)
29.07.2018 20:51 20,5 °C 74 % 1011,7 hPa 0,0 mm 0,0 km/h (0 Bft) O 81 ° 0 min 0,000 mm 0,0 UV-I 5 W/m² 15,7 °C 20,5 °C 0,0 km/h (0 Bft)
29.07.2018 20:52 20,4 °C 74 % 1011,6 hPa 0,0 mm 0,0 km/h (0 Bft) O 81 ° 0 min 0,000 mm 0,0 UV-I 5 W/m² 15,6 °C 20,4 °C 0,0 km/h (0 Bft)
29.07.2018 20:53 20,4 °C 74 % 1011,7 hPa 0,0 mm 0,0 km/h (0 Bft) O 81 ° 0 min 0,000 mm 0,0 UV-I 5 W/m² 15,6 °C 20,4 °C 0,0 km/h (0 Bft)
29.07.2018 20:54 20,3 °C 74 % 1011,7 hPa 0,0 mm 0,5 km/h (0 Bft) O 81 ° 0 min 0,000 mm 0,0 UV-I 0 W/m² 15,5 °C 20,3 °C 3,2 km/h (1 Bft)
29.07.2018 20:55 20,3 °C 74 % 1011,7 hPa 0,0 mm 2,5 km/h (1 Bft) O 81 ° 0 min 0,000 mm 0,0 UV-I 0 W/m² 15,5 °C 20,3 °C 3,2 km/h (1 Bft)
29.07.2018 20:56 20,2 °C 74 % 1011,8 hPa 0,0 mm 3,2 km/h (1 Bft) O 81 ° 0 min 0,000 mm 0,0 UV-I 0 W/m² 15,4 °C 20,2 °C 4,8 km/h (1 Bft)
29.07.2018 20:57 20,2 °C 75 % 1011,7 hPa 0,0 mm 3,5 km/h (1 Bft) O 81 ° 0 min 0,000 mm 0,0 UV-I 0 W/m² 15,6 °C 20,2 °C 4,8 km/h (1 Bft)
29.07.2018 20:58 20,1 °C 75 % 1011,8 hPa 0,0 mm 3,5 km/h (1 Bft) O 81 ° 0 min 0,000 mm 0,0 UV-I 0 W/m² 15,5 °C 20,1 °C 4,8 km/h (1 Bft)
29.07.2018 20:59 20,0 °C 76 % 1011,8 hPa 0,0 mm 4,0 km/h (1 Bft) O 81 ° 0 min 0,000 mm 0,0 UV-I 0 W/m² 15,6 °C 20,0 °C 4,8 km/h (1 Bft)
29.07.2018 21:00 19,9 °C 76 % 1011,8 hPa 0,0 mm 3,9 km/h (1 Bft) O 81 ° 0 min 0,025 mm 0,0 UV-I 0 W/m² 15,5 °C 19,9 °C 4,8 km/h (1 Bft)
29.07.2018 21:01 19,8 °C 77 % 1011,8 hPa 0,0 mm 4,5 km/h (1 Bft) O 81 ° 0 min 0,000 mm 0,0 UV-I 0 W/m² 15,6 °C 19,8 °C 4,8 km/h (1 Bft)
29.07.2018 21:02 19,7 °C 77 % 1011,8 hPa 0,0 mm 4,0 km/h (1 Bft) O 81 ° 0 min 0,000 mm 0,0 UV-I 0 W/m² 15,5 °C 19,7 °C 4,8 km/h (1 Bft)
29.07.2018 21:03 19,7 °C 77 % 1011,8 hPa 0,0 mm 4,4 km/h (1 Bft) O 81 ° 0 min 0,000 mm 0,0 UV-I 0 W/m² 15,5 °C 19,7 °C 4,8 km/h (1 Bft)
29.07.2018 21:04 19,6 °C 77 % 1011,8 hPa 0,0 mm 4,1 km/h (1 Bft) O 81 ° 0 min 0,000 mm 0,0 UV-I 0 W/m² 15,5 °C 19,6 °C 4,8 km/h (1 Bft)
29.07.2018 21:05 19,6 °C 77 % 1011,8 hPa 0,0 mm 2,7 km/h (1 Bft) O 81 ° 0 min 0,000 mm 0,0 UV-I 0 W/m² 15,5 °C 19,6 °C 4,8 km/h (1 Bft)
29.07.2018 21:06 19,6 °C 77 % 1011,9 hPa 0,0 mm 1,5 km/h (1 Bft) O 81 ° 0 min 0,000 mm 0,0 UV-I 0 W/m² 15,5 °C 19,6 °C 3,2 km/h (1 Bft)
29.07.2018 21:07 19,5 °C 78 % 1011,9 hPa 0,0 mm 0,7 km/h (0 Bft) O 81 ° 0 min 0,000 mm 0,0 UV-I 0 W/m² 15,6 °C 19,5 °C 1,6 km/h (1 Bft)
29.07.2018 21:08 19,4 °C 78 % 1011,9 hPa 0,0 mm 0,1 km/h (0 Bft) O 81 ° 0 min 0,000 mm 0,0 UV-I 0 W/m² 15,5 °C 19,4 °C 1,6 km/h (1 Bft)
29.07.2018 21:09 19,3 °C 79 % 1012,0 hPa 0,0 mm 1,3 km/h (1 Bft) O 81 ° 0 min 0,000 mm 0,0 UV-I 0 W/m² 15,6 °C 19,3 °C 3,2 km/h (1 Bft)
29.07.2018 21:10 19,3 °C 79 % 1012,0 hPa 0,0 mm 4,0 km/h (1 Bft) O 81 ° 0 min 0,000 mm 0,0 UV-I 0 W/m² 15,6 °C 19,3 °C 4,8 km/h (1 Bft)
29.07.2018 21:11 19,2 °C 79 % 1011,9 hPa 0,0 mm 3,6 km/h (1 Bft) O 81 ° 0 min 0,000 mm 0,0 UV-I 0 W/m² 15,5 °C 19,2 °C 4,8 km/h (1 Bft)
29.07.2018 21:12 19,2 °C 79 % 1012,0 hPa 0,0 mm 3,2 km/h (1 Bft) O 81 ° 0 min 0,000 mm 0,0 UV-I 0 W/m² 15,5 °C 19,2 °C 4,8 km/h (1 Bft)
29.07.2018 21:13 19,3 °C 78 % 1012,0 hPa 0,0 mm 1,9 km/h (1 Bft) O 81 ° 0 min 0,000 mm 0,0 UV-I 0 W/m² 15,4 °C 19,3 °C 3,2 km/h (1 Bft)
29.07.2018 21:14 19,3 °C 78 % 1012,0 hPa 0,0 mm 0,8 km/h (0 Bft) O 81 ° 0 min 0,000 mm 0,0 UV-I 0 W/m² 15,4 °C 19,3 °C 1,6 km/h (1 Bft)
29.07.2018 21:15 19,4 °C 78 % 1012,0 hPa 0,0 mm 3,1 km/h (1 Bft) O 81 ° 0 min 0,000 mm 0,0 UV-I 0 W/m² 15,5 °C 19,4 °C 4,8 km/h (1 Bft)
29.07.2018 21:16 19,4 °C 77 % 1012,0 hPa 0,0 mm 4,1 km/h (1 Bft) O 81 ° 0 min 0,000 mm 0,0 UV-I 0 W/m² 15,3 °C 19,4 °C 4,8 km/h (1 Bft)
29.07.2018 21:17 19,4 °C 78 % 1012,1 hPa 0,0 mm 4,4 km/h (1 Bft) O 82 ° 0 min 0,000 mm 0,0 UV-I 0 W/m² 15,5 °C 19,4 °C 4,8 km/h (1 Bft)
29.07.2018 21:18 19,3 °C 78 % 1012,1 hPa 0,0 mm 3,4 km/h (1 Bft) O 82 ° 0 min 0,000 mm 0,0 UV-I 0 W/m² 15,4 °C 19,3 °C 4,8 km/h (1 Bft)
29.07.2018 21:19 19,3 °C 78 % 1012,1 hPa 0,0 mm 3,9 km/h (1 Bft) O 82 ° 0 min 0,000 mm 0,0 UV-I 0 W/m² 15,4 °C 19,3 °C 4,8 km/h (1 Bft)
29.07.2018 21:20 19,2 °C 78 % 1012,1 hPa 0,0 mm 4,1 km/h (1 Bft) O 82 ° 0 min 0,000 mm 0,0 UV-I 0 W/m² 15,3 °C 19,2 °C 4,8 km/h (1 Bft)
29.07.2018 21:21 19,1 °C 78 % 1012,2 hPa 0,0 mm 3,8 km/h (1 Bft) O 82 ° 0 min 0,000 mm 0,0 UV-I 0 W/m² 15,2 °C 19,1 °C 4,8 km/h (1 Bft)
29.07.2018 21:22 18,9 °C 79 % 1012,1 hPa 0,0 mm 4,4 km/h (1 Bft) O 82 ° 0 min 0,000 mm 0,0 UV-I 0 W/m² 15,2 °C 18,9 °C 4,8 km/h (1 Bft)
29.07.2018 21:23 18,9 °C 79 % 1012,2 hPa 0,0 mm 4,4 km/h (1 Bft) O 82 ° 0 min 0,000 mm 0,0 UV-I 0 W/m² 15,2 °C 18,9 °C 4,8 km/h (1 Bft)
29.07.2018 21:24 18,9 °C 79 % 1012,2 hPa 0,0 mm 4,1 km/h (1 Bft) O 82 ° 0 min 0,000 mm 0,0 UV-I 0 W/m² 15,2 °C 18,9 °C 4,8 km/h (1 Bft)
29.07.2018 21:25 18,9 °C 79 % 1012,2 hPa 0,0 mm 3,2 km/h (1 Bft) O 82 ° 0 min 0,000 mm 0,0 UV-I 0 W/m² 15,2 °C 18,9 °C 4,8 km/h (1 Bft)
29.07.2018 21:26 19,0 °C 79 % 1012,2 hPa 0,0 mm 3,2 km/h (1 Bft) O 82 ° 0 min 0,000 mm 0,0 UV-I 0 W/m² 15,3 °C 19,0 °C 4,8 km/h (1 Bft)
29.07.2018 21:27 19,1 °C 78 % 1012,2 hPa 0,0 mm 4,2 km/h (1 Bft) O 82 ° 0 min 0,000 mm 0,0 UV-I 0 W/m² 15,2 °C 19,1 °C 4,8 km/h (1 Bft)
29.07.2018 21:28 19,1 °C 78 % 1012,2 hPa 0,0 mm 4,5 km/h (1 Bft) O 82 ° 0 min 0,000 mm 0,0 UV-I 0 W/m² 15,2 °C 19,1 °C 4,8 km/h (1 Bft)
29.07.2018 21:29 19,1 °C 78 % 1012,2 hPa 0,0 mm 3,2 km/h (1 Bft) O 82 ° 0 min 0,000 mm 0,0 UV-I 0 W/m² 15,2 °C 19,1 °C 4,8 km/h (1 Bft)
29.07.2018 21:30 19,2 °C 78 % 1012,2 hPa 0,0 mm 3,1 km/h (1 Bft) O 82 ° 0 min 0,000 mm 0,0 UV-I 0 W/m² 15,3 °C 19,2 °C 4,8 km/h (1 Bft)
29.07.2018 21:31 19,2 °C 78 % 1012,2 hPa 0,0 mm 3,1 km/h (1 Bft) O 82 ° 0 min 0,000 mm 0,0 UV-I 0 W/m² 15,3 °C 19,2 °C 4,8 km/h (1 Bft)
29.07.2018 21:32 19,2 °C 78 % 1012,3 hPa 0,0 mm 4,6 km/h (1 Bft) O 82 ° 0 min 0,000 mm 0,0 UV-I 0 W/m² 15,3 °C 19,2 °C 6,4 km/h (2 Bft)
29.07.2018 21:33 19,1 °C 78 % 1012,3 hPa 0,0 mm 4,2 km/h (1 Bft) O 83 ° 0 min 0,000 mm 0,0 UV-I 0 W/m² 15,2 °C 19,1 °C 4,8 km/h (1 Bft)
29.07.2018 21:34 19,0 °C 78 % 1012,3 hPa 0,0 mm 4,5 km/h (1 Bft) SO 142 ° 0 min 0,000 mm 0,0 UV-I 0 W/m² 15,1 °C 19,0 °C 6,4 km/h (2 Bft)
29.07.2018 21:35 18,9 °C 79 % 1012,3 hPa 0,0 mm 4,2 km/h (1 Bft) SO 142 ° 0 min 0,000 mm 0,0 UV-I 0 W/m² 15,2 °C 18,9 °C 4,8 km/h (1 Bft)
29.07.2018 21:36 18,8 °C 79 % 1012,3 hPa 0,0 mm 4,1 km/h (1 Bft) S-SW 194 ° 0 min 0,000 mm 0,0 UV-I 0 W/m² 15,1 °C 18,8 °C 4,8 km/h (1 Bft)
29.07.2018 21:37 18,7 °C 79 % 1012,3 hPa 0,0 mm 4,4 km/h (1 Bft) S-SW 194 ° 0 min 0,000 mm 0,0 UV-I 0 W/m² 15,0 °C 18,7 °C 6,4 km/h (2 Bft)
29.07.2018 21:38 18,7 °C 80 % 1012,3 hPa 0,0 mm 3,7 km/h (1 Bft) S-SW 194 ° 0 min 0,000 mm 0,0 UV-I 0 W/m² 15,2 °C 18,7 °C 6,4 km/h (2 Bft)
29.07.2018 21:39 18,6 °C 80 % 1012,4 hPa 0,0 mm 2,4 km/h (1 Bft) S-SW 194 ° 0 min 0,000 mm 0,0 UV-I 0 W/m² 15,1 °C 18,6 °C 4,8 km/h (1 Bft)
29.07.2018 21:40 18,6 °C 80 % 1012,4 hPa 0,0 mm 1,3 km/h (1 Bft) S-SW 194 ° 0 min 0,000 mm 0,0 UV-I 0 W/m² 15,1 °C 18,6 °C 3,2 km/h (1 Bft)
29.07.2018 21:41 18,6 °C 80 % 1012,4 hPa 0,0 mm 1,5 km/h (1 Bft) S-SW 194 ° 0 min 0,000 mm 0,0 UV-I 0 W/m² 15,1 °C 18,6 °C 3,2 km/h (1 Bft)
29.07.2018 21:42 18,6 °C 80 % 1012,4 hPa 0,0 mm 2,6 km/h (1 Bft) S-SW 194 ° 0 min 0,000 mm 0,0 UV-I 0 W/m² 15,1 °C 18,6 °C 3,2 km/h (1 Bft)
29.07.2018 21:43 18,6 °C 80 % 1012,5 hPa 0,0 mm 1,3 km/h (1 Bft) S-SW 194 ° 0 min 0,000 mm 0,0 UV-I 0 W/m² 15,1 °C 18,6 °C 3,2 km/h (1 Bft)
29.07.2018 21:44 18,6 °C 80 % 1012,5 hPa 0,0 mm 0,9 km/h (0 Bft) S-SW 194 ° 0 min 0,000 mm 0,0 UV-I 0 W/m² 15,1 °C 18,6 °C 1,6 km/h (1 Bft)
29.07.2018 21:45 18,7 °C 80 % 1012,5 hPa 0,0 mm 0,0 km/h (0 Bft) S-SW 194 ° 0 min 0,000 mm 0,0 UV-I 0 W/m² 15,2 °C 18,7 °C 0,0 km/h (0 Bft)
29.07.2018 21:46 18,7 °C 80 % 1012,5 hPa 0,0 mm 0,0 km/h (0 Bft) S-SW 194 ° 0 min 0,000 mm 0,0 UV-I 0 W/m² 15,2 °C 18,7 °C 0,0 km/h (0 Bft)
29.07.2018 21:47 18,6 °C 80 % 1012,5 hPa 0,0 mm 0,0 km/h (0 Bft) S-SW 194 ° 0 min 0,000 mm 0,0 UV-I 0 W/m² 15,1 °C 18,6 °C 0,0 km/h (0 Bft)
29.07.2018 21:48 18,6 °C 80 % 1012,5 hPa 0,0 mm 0,0 km/h (0 Bft) S-SW 194 ° 0 min 0,000 mm 0,0 UV-I 0 W/m² 15,1 °C 18,6 °C 0,0 km/h (0 Bft)
29.07.2018 21:49 18,6 °C 80 % 1012,5 hPa 0,0 mm 0,0 km/h (0 Bft) S-SW 194 ° 0 min 0,000 mm 0,0 UV-I 0 W/m² 15,1 °C 18,6 °C 0,0 km/h (0 Bft)
29.07.2018 21:50 18,6 °C 80 % 1012,5 hPa 0,0 mm 0,0 km/h (0 Bft) S-SW 194 ° 0 min 0,000 mm 0,0 UV-I 0 W/m² 15,1 °C 18,6 °C 0,0 km/h (0 Bft)
29.07.2018 21:51 18,6 °C 80 % 1012,5 hPa 0,0 mm 0,0 km/h (0 Bft) S-SW 194 ° 0 min 0,000 mm 0,0 UV-I 0 W/m² 15,1 °C 18,6 °C 0,0 km/h (0 Bft)
29.07.2018 21:52 18,6 °C 80 % 1012,5 hPa 0,0 mm 0,0 km/h (0 Bft) S-SW 194 ° 0 min 0,000 mm 0,0 UV-I 0 W/m² 15,1 °C 18,6 °C 0,0 km/h (0 Bft)
29.07.2018 21:53 18,6 °C 80 % 1012,6 hPa 0,0 mm 0,0 km/h (0 Bft) S-SW 194 ° 0 min 0,000 mm 0,0 UV-I 0 W/m² 15,1 °C 18,6 °C 0,0 km/h (0 Bft)
29.07.2018 21:54 18,7 °C 80 % 1012,5 hPa 0,0 mm 0,0 km/h (0 Bft) S-SW 194 ° 0 min 0,000 mm 0,0 UV-I 0 W/m² 15,2 °C 18,7 °C 0,0 km/h (0 Bft)
29.07.2018 21:55 18,7 °C 80 % 1012,6 hPa 0,0 mm 0,0 km/h (0 Bft) S-SW 194 ° 0 min 0,000 mm 0,0 UV-I 0 W/m² 15,2 °C 18,7 °C 0,0 km/h (0 Bft)
29.07.2018 21:56 18,7 °C 80 % 1012,5 hPa 0,0 mm 0,0 km/h (0 Bft) S-SW 194 ° 0 min 0,000 mm 0,0 UV-I 0 W/m² 15,2 °C 18,7 °C 0,0 km/h (0 Bft)
29.07.2018 21:57 18,7 °C 80 % 1012,5 hPa 0,0 mm 0,0 km/h (0 Bft) S-SW 194 ° 0 min 0,000 mm 0,0 UV-I 0 W/m² 15,2 °C 18,7 °C 0,0 km/h (0 Bft)
29.07.2018 21:58 18,6 °C 80 % 1012,5 hPa 0,0 mm 0,0 km/h (0 Bft) S-SW 194 ° 0 min 0,000 mm 0,0 UV-I 0 W/m² 15,1 °C 18,6 °C 0,0 km/h (0 Bft)
29.07.2018 21:59 18,6 °C 80 % 1012,5 hPa 0,0 mm 0,0 km/h (0 Bft) S-SW 194 ° 0 min 0,000 mm 0,0 UV-I 0 W/m² 15,1 °C 18,6 °C 0,0 km/h (0 Bft)
29.07.2018 22:00 18,5 °C 80 % 1012,5 hPa 0,0 mm 0,0 km/h (0 Bft) S-SW 194 ° 0 min 0,000 mm 0,0 UV-I 0 W/m² 15,0 °C 18,5 °C 0,0 km/h (0 Bft)
29.07.2018 22:01 18,4 °C 80 % 1012,5 hPa 0,0 mm 0,0 km/h (0 Bft) S-SW 194 ° 0 min 0,000 mm 0,0 UV-I 0 W/m² 14,9 °C 18,4 °C 0,0 km/h (0 Bft)
29.07.2018 22:02 18,3 °C 80 % 1012,5 hPa 0,0 mm 0,0 km/h (0 Bft) S-SW 194 ° 0 min 0,000 mm 0,0 UV-I 0 W/m² 14,8 °C 18,3 °C 0,0 km/h (0 Bft)
29.07.2018 22:03 18,3 °C 81 % 1012,5 hPa 0,0 mm 0,0 km/h (0 Bft) S-SW 194 ° 0 min 0,000 mm 0,0 UV-I 0 W/m² 15,0 °C 18,3 °C 0,0 km/h (0 Bft)
29.07.2018 22:04 18,2 °C 81 % 1012,5 hPa 0,0 mm 0,0 km/h (0 Bft) S-SW 194 ° 0 min 0,000 mm 0,0 UV-I 0 W/m² 14,9 °C 18,2 °C 0,0 km/h (0 Bft)
29.07.2018 22:05 18,1 °C 81 % 1012,6 hPa 0,0 mm 0,0 km/h (0 Bft) S-SW 194 ° 0 min 0,000 mm 0,0 UV-I 0 W/m² 14,8 °C 18,1 °C 0,0 km/h (0 Bft)
29.07.2018 22:06 18,1 °C 81 % 1012,6 hPa 0,0 mm 0,0 km/h (0 Bft) S-SW 194 ° 0 min 0,000 mm 0,0 UV-I 0 W/m² 14,8 °C 18,1 °C 0,0 km/h (0 Bft)
29.07.2018 22:07 18,1 °C 81 % 1012,6 hPa 0,0 mm 0,0 km/h (0 Bft) S-SW 194 ° 0 min 0,000 mm 0,0 UV-I 0 W/m² 14,8 °C 18,1 °C 0,0 km/h (0 Bft)
29.07.2018 22:08 18,1 °C 81 % 1012,6 hPa 0,0 mm 0,0 km/h (0 Bft) S-SW 194 ° 0 min 0,000 mm 0,0 UV-I 0 W/m² 14,8 °C 18,1 °C 0,0 km/h (0 Bft)
29.07.2018 22:09 18,1 °C 81 % 1012,6 hPa 0,0 mm 0,0 km/h (0 Bft) S-SW 194 ° 0 min 0,000 mm 0,0 UV-I 0 W/m² 14,8 °C 18,1 °C 0,0 km/h (0 Bft)
29.07.2018 22:10 18,1 °C 81 % 1012,6 hPa 0,0 mm 0,0 km/h (0 Bft) S-SW 194 ° 0 min 0,000 mm 0,0 UV-I 0 W/m² 14,8 °C 18,1 °C 0,0 km/h (0 Bft)
29.07.2018 22:11 18,1 °C 81 % 1012,7 hPa 0,0 mm 0,0 km/h (0 Bft) S-SW 194 ° 0 min 0,000 mm 0,0 UV-I 0 W/m² 14,8 °C 18,1 °C 0,0 km/h (0 Bft)
29.07.2018 22:12 18,1 °C 81 % 1012,7 hPa 0,0 mm 0,0 km/h (0 Bft) S-SW 194 ° 0 min 0,000 mm 0,0 UV-I 0 W/m² 14,8 °C 18,1 °C 0,0 km/h (0 Bft)
29.07.2018 22:13 18,1 °C 82 % 1012,7 hPa 0,0 mm 0,0 km/h (0 Bft) S-SW 194 ° 0 min 0,000 mm 0,0 UV-I 0 W/m² 15,0 °C 18,1 °C 0,0 km/h (0 Bft)
29.07.2018 22:14 18,1 °C 82 % 1012,7 hPa 0,0 mm 0,0 km/h (0 Bft) S-SW 194 ° 0 min 0,000 mm 0,0 UV-I 0 W/m² 15,0 °C 18,1 °C 0,0 km/h (0 Bft)
29.07.2018 22:15 18,1 °C 82 % 1012,7 hPa 0,0 mm 0,0 km/h (0 Bft) S-SW 194 ° 0 min 0,000 mm 0,0 UV-I 0 W/m² 15,0 °C 18,1 °C 0,0 km/h (0 Bft)
29.07.2018 22:16 18,1 °C 82 % 1012,7 hPa 0,0 mm 0,0 km/h (0 Bft) S-SW 194 ° 0 min 0,000 mm 0,0 UV-I 0 W/m² 15,0 °C 18,1 °C 0,0 km/h (0 Bft)
29.07.2018 22:17 17,9 °C 82 % 1012,7 hPa 0,0 mm 0,0 km/h (0 Bft) S-SW 194 ° 0 min 0,000 mm 0,0 UV-I 0 W/m² 14,8 °C 17,9 °C 0,0 km/h (0 Bft)
29.07.2018 22:18 18,0 °C 82 % 1012,7 hPa 0,0 mm 0,0 km/h (0 Bft) S-SW 194 ° 0 min 0,000 mm 0,0 UV-I 0 W/m² 14,9 °C 18,0 °C 0,0 km/h (0 Bft)
29.07.2018 22:19 17,9 °C 82 % 1012,7 hPa 0,0 mm 0,0 km/h (0 Bft) S-SW 194 ° 0 min 0,000 mm 0,0 UV-I 0 W/m² 14,8 °C 17,9 °C 0,0 km/h (0 Bft)
29.07.2018 22:20 17,9 °C 82 % 1012,6 hPa 0,0 mm 0,0 km/h (0 Bft) S-SW 194 ° 0 min 0,000 mm 0,0 UV-I 0 W/m² 14,8 °C 17,9 °C 0,0 km/h (0 Bft)
29.07.2018 22:21 17,9 °C 82 % 1012,7 hPa 0,0 mm 0,0 km/h (0 Bft) S-SW 194 ° 0 min 0,000 mm 0,0 UV-I 0 W/m² 14,8 °C 17,9 °C 0,0 km/h (0 Bft)
29.07.2018 22:22 17,9 °C 82 % 1012,7 hPa 0,0 mm 0,0 km/h (0 Bft) S-SW 194 ° 0 min 0,000 mm 0,0 UV-I 0 W/m² 14,8 °C 17,9 °C 0,0 km/h (0 Bft)
29.07.2018 22:23 18,0 °C 82 % 1012,6 hPa 0,0 mm 0,0 km/h (0 Bft) S-SW 194 ° 0 min 0,000 mm 0,0 UV-I 0 W/m² 14,9 °C 18,0 °C 0,0 km/h (0 Bft)
29.07.2018 22:24 18,0 °C 82 % 1012,6 hPa 0,0 mm 0,0 km/h (0 Bft) S-SW 194 ° 0 min 0,000 mm 0,0 UV-I 0 W/m² 14,9 °C 18,0 °C 0,0 km/h (0 Bft)
29.07.2018 22:25 18,0 °C 82 % 1012,6 hPa 0,0 mm 0,0 km/h (0 Bft) S-SW 194 ° 0 min 0,000 mm 0,0 UV-I 0 W/m² 14,9 °C 18,0 °C 0,0 km/h (0 Bft)
29.07.2018 22:26 18,1 °C 82 % 1012,6 hPa 0,0 mm 0,0 km/h (0 Bft) S-SW 194 ° 0 min 0,000 mm 0,0 UV-I 0 W/m² 15,0 °C 18,1 °C 0,0 km/h (0 Bft)
29.07.2018 22:27 18,1 °C 81 % 1012,6 hPa 0,0 mm 0,0 km/h (0 Bft) S-SW 194 ° 0 min 0,000 mm 0,0 UV-I 0 W/m² 14,8 °C 18,1 °C 0,0 km/h (0 Bft)
29.07.2018 22:28 18,1 °C 81 % 1012,7 hPa 0,0 mm 0,0 km/h (0 Bft) S-SW 194 ° 0 min 0,000 mm 0,0 UV-I 0 W/m² 14,8 °C 18,1 °C 0,0 km/h (0 Bft)
29.07.2018 22:29 18,2 °C 81 % 1012,6 hPa 0,0 mm 0,0 km/h (0 Bft) S-SW 194 ° 0 min 0,000 mm 0,0 UV-I 0 W/m² 14,9 °C 18,2 °C 0,0 km/h (0 Bft)
29.07.2018 22:30 18,2 °C 81 % 1012,7 hPa 0,0 mm 0,0 km/h (0 Bft) S-SW 194 ° 0 min 0,000 mm 0,0 UV-I 0 W/m² 14,9 °C 18,2 °C 0,0 km/h (0 Bft)
29.07.2018 22:31 18,2 °C 81 % 1012,7 hPa 0,0 mm 0,0 km/h (0 Bft) S-SW 194 ° 0 min 0,000 mm 0,0 UV-I 0 W/m² 14,9 °C 18,2 °C 0,0 km/h (0 Bft)
29.07.2018 22:32 18,2 °C 81 % 1012,7 hPa 0,0 mm 0,0 km/h (0 Bft) S-SW 194 ° 0 min 0,000 mm 0,0 UV-I 0 W/m² 14,9 °C 18,2 °C 0,0 km/h (0 Bft)
29.07.2018 22:33 18,2 °C 81 % 1012,7 hPa 0,0 mm 0,0 km/h (0 Bft) S-SW 194 ° 0 min 0,000 mm 0,0 UV-I 0 W/m² 14,9 °C 18,2 °C 0,0 km/h (0 Bft)
29.07.2018 22:34 18,2 °C 81 % 1012,7 hPa 0,0 mm 0,0 km/h (0 Bft) S-SW 194 ° 0 min 0,000 mm 0,0 UV-I 0 W/m² 14,9 °C 18,2 °C 0,0 km/h (0 Bft)
29.07.2018 22:35 18,2 °C 81 % 1012,7 hPa 0,0 mm 0,0 km/h (0 Bft) S-SW 194 ° 0 min 0,000 mm 0,0 UV-I 0 W/m² 14,9 °C 18,2 °C 0,0 km/h (0 Bft)
29.07.2018 22:36 18,2 °C 81 % 1012,7 hPa 0,0 mm 0,0 km/h (0 Bft) S-SW 194 ° 0 min 0,000 mm 0,0 UV-I 0 W/m² 14,9 °C 18,2 °C 0,0 km/h (0 Bft)
29.07.2018 22:37 18,2 °C 81 % 1012,7 hPa 0,0 mm 0,0 km/h (0 Bft) S-SW 194 ° 0 min 0,000 mm 0,0 UV-I 0 W/m² 14,9 °C 18,2 °C 0,0 km/h (0 Bft)
29.07.2018 22:38 18,2 °C 81 % 1012,8 hPa 0,0 mm 0,0 km/h (0 Bft) S-SW 194 ° 0 min 0,000 mm 0,0 UV-I 0 W/m² 14,9 °C 18,2 °C 0,0 km/h (0 Bft)
29.07.2018 22:39 18,2 °C 81 % 1012,7 hPa 0,0 mm 0,0 km/h (0 Bft) S-SW 194 ° 0 min 0,000 mm 0,0 UV-I 0 W/m² 14,9 °C 18,2 °C 0,0 km/h (0 Bft)
29.07.2018 22:40 18,2 °C 81 % 1012,8 hPa 0,0 mm 0,0 km/h (0 Bft) S-SW 194 ° 0 min 0,000 mm 0,0 UV-I 0 W/m² 14,9 °C 18,2 °C 0,0 km/h (0 Bft)
29.07.2018 22:41 18,2 °C 81 % 1012,7 hPa 0,0 mm 0,0 km/h (0 Bft) S-SW 194 ° 0 min 0,000 mm 0,0 UV-I 0 W/m² 14,9 °C 18,2 °C 0,0 km/h (0 Bft)
29.07.2018 22:42 18,2 °C 81 % 1012,8 hPa 0,0 mm 0,0 km/h (0 Bft) S-SW 194 ° 0 min 0,000 mm 0,0 UV-I 0 W/m² 14,9 °C 18,2 °C 0,0 km/h (0 Bft)
29.07.2018 22:43 18,2 °C 81 % 1012,8 hPa 0,0 mm 0,0 km/h (0 Bft) S-SW 194 ° 0 min 0,000 mm 0,0 UV-I 0 W/m² 14,9 °C 18,2 °C 0,0 km/h (0 Bft)
29.07.2018 22:44 18,2 °C 81 % 1012,8 hPa 0,0 mm 0,0 km/h (0 Bft) S-SW 194 ° 0 min 0,000 mm 0,0 UV-I 0 W/m² 14,9 °C 18,2 °C 0,0 km/h (0 Bft)
29.07.2018 22:45 18,1 °C 81 % 1012,8 hPa 0,0 mm 0,0 km/h (0 Bft) S-SW 194 ° 0 min 0,000 mm 0,0 UV-I 0 W/m² 14,8 °C 18,1 °C 0,0 km/h (0 Bft)
29.07.2018 22:46 18,1 °C 81 % 1012,9 hPa 0,0 mm 0,0 km/h (0 Bft) S-SW 194 ° 0 min 0,000 mm 0,0 UV-I 0 W/m² 14,8 °C 18,1 °C 0,0 km/h (0 Bft)
29.07.2018 22:47 18,1 °C 81 % 1012,8 hPa 0,0 mm 0,0 km/h (0 Bft) S-SW 194 ° 0 min 0,000 mm 0,0 UV-I 0 W/m² 14,8 °C 18,1 °C 0,0 km/h (0 Bft)
29.07.2018 22:48 18,0 °C 82 % 1012,9 hPa 0,0 mm 0,0 km/h (0 Bft) S-SW 194 ° 0 min 0,000 mm 0,0 UV-I 0 W/m² 14,9 °C 18,0 °C 0,0 km/h (0 Bft)
29.07.2018 22:49 18,0 °C 82 % 1012,9 hPa 0,0 mm 0,0 km/h (0 Bft) S-SW 194 ° 0 min 0,000 mm 0,0 UV-I 0 W/m² 14,9 °C 18,0 °C 0,0 km/h (0 Bft)
29.07.2018 22:50 18,0 °C 82 % 1012,9 hPa 0,0 mm 0,0 km/h (0 Bft) S-SW 194 ° 0 min 0,000 mm 0,0 UV-I 0 W/m² 14,9 °C 18,0 °C 0,0 km/h (0 Bft)
29.07.2018 22:51 18,0 °C 82 % 1012,9 hPa 0,0 mm 0,0 km/h (0 Bft) S-SW 194 ° 0 min 0,000 mm 0,0 UV-I 0 W/m² 14,9 °C 18,0 °C 0,0 km/h (0 Bft)
29.07.2018 22:52 17,9 °C 82 % 1012,9 hPa 0,0 mm 0,0 km/h (0 Bft) S-SW 194 ° 0 min 0,000 mm 0,0 UV-I 0 W/m² 14,8 °C 17,9 °C 0,0 km/h (0 Bft)
29.07.2018 22:53 17,9 °C 82 % 1013,0 hPa 0,0 mm 0,0 km/h (0 Bft) S-SW 194 ° 0 min 0,000 mm 0,0 UV-I 0 W/m² 14,8 °C 17,9 °C 0,0 km/h (0 Bft)
29.07.2018 22:54 17,9 °C 83 % 1012,9 hPa 0,0 mm 0,0 km/h (0 Bft) S-SW 194 ° 0 min 0,000 mm 0,0 UV-I 0 W/m² 15,0 °C 17,9 °C 0,0 km/h (0 Bft)
29.07.2018 22:55 17,8 °C 82 % 1013,0 hPa 0,0 mm 0,0 km/h (0 Bft) S-SW 194 ° 0 min 0,000 mm 0,0 UV-I 0 W/m² 14,7 °C 17,8 °C 0,0 km/h (0 Bft)
29.07.2018 22:56 17,8 °C 82 % 1013,0 hPa 0,0 mm 0,0 km/h (0 Bft) S-SW 194 ° 0 min 0,000 mm 0,0 UV-I 0 W/m² 14,7 °C 17,8 °C 0,0 km/h (0 Bft)
29.07.2018 22:57 17,8 °C 82 % 1013,0 hPa 0,0 mm 0,0 km/h (0 Bft) S-SW 194 ° 0 min 0,000 mm 0,0 UV-I 0 W/m² 14,7 °C 17,8 °C 0,0 km/h (0 Bft)
29.07.2018 22:58 17,8 °C 82 % 1013,0 hPa 0,0 mm 0,0 km/h (0 Bft) S-SW 194 ° 0 min 0,000 mm 0,0 UV-I 0 W/m² 14,7 °C 17,8 °C 0,0 km/h (0 Bft)
29.07.2018 22:59 17,8 °C 83 % 1013,0 hPa 0,0 mm 0,0 km/h (0 Bft) S-SW 194 ° 0 min 0,000 mm 0,0 UV-I 0 W/m² 14,9 °C 17,8 °C 0,0 km/h (0 Bft)
29.07.2018 23:00 17,7 °C 83 % 1013,1 hPa 0,0 mm 0,0 km/h (0 Bft) S-SW 194 ° 0 min 0,000 mm 0,0 UV-I 0 W/m² 14,8 °C 17,7 °C 0,0 km/h (0 Bft)
29.07.2018 23:01 17,7 °C 83 % 1013,0 hPa 0,0 mm 0,0 km/h (0 Bft) S-SW 194 ° 0 min 0,026 mm 0,0 UV-I 0 W/m² 14,8 °C 17,7 °C 0,0 km/h (0 Bft)
29.07.2018 23:02 17,7 °C 83 % 1013,1 hPa 0,0 mm 0,0 km/h (0 Bft) S-SW 194 ° 0 min 0,000 mm 0,0 UV-I 0 W/m² 14,8 °C 17,7 °C 0,0 km/h (0 Bft)
29.07.2018 23:03 17,7 °C 83 % 1013,1 hPa 0,0 mm 0,0 km/h (0 Bft) S-SW 194 ° 0 min 0,000 mm 0,0 UV-I 0 W/m² 14,8 °C 17,7 °C 0,0 km/h (0 Bft)
29.07.2018 23:04 17,7 °C 83 % 1013,1 hPa 0,0 mm 0,0 km/h (0 Bft) S-SW 194 ° 0 min 0,000 mm 0,0 UV-I 0 W/m² 14,8 °C 17,7 °C 0,0 km/h (0 Bft)
29.07.2018 23:05 17,6 °C 83 % 1013,1 hPa 0,0 mm 0,0 km/h (0 Bft) S-SW 194 ° 0 min 0,000 mm 0,0 UV-I 0 W/m² 14,7 °C 17,6 °C 0,0 km/h (0 Bft)
29.07.2018 23:06 17,6 °C 83 % 1013,1 hPa 0,0 mm 0,0 km/h (0 Bft) S-SW 194 ° 0 min 0,000 mm 0,0 UV-I 0 W/m² 14,7 °C 17,6 °C 0,0 km/h (0 Bft)
29.07.2018 23:07 17,6 °C 84 % 1013,1 hPa 0,0 mm 0,0 km/h (0 Bft) S-SW 194 ° 0 min 0,000 mm 0,0 UV-I 0 W/m² 14,9 °C 17,6 °C 0,0 km/h (0 Bft)
29.07.2018 23:08 17,5 °C 83 % 1013,1 hPa 0,0 mm 0,0 km/h (0 Bft) S-SW 194 ° 0 min 0,000 mm 0,0 UV-I 0 W/m² 14,6 °C 17,5 °C 0,0 km/h (0 Bft)
29.07.2018 23:09 17,5 °C 83 % 1013,1 hPa 0,0 mm 0,0 km/h (0 Bft) S-SW 194 ° 0 min 0,000 mm 0,0 UV-I 0 W/m² 14,6 °C 17,5 °C 0,0 km/h (0 Bft)
29.07.2018 23:10 17,4 °C 84 % 1013,2 hPa 0,0 mm 0,0 km/h (0 Bft) S-SW 194 ° 0 min 0,000 mm 0,0 UV-I 0 W/m² 14,7 °C 17,4 °C 0,0 km/h (0 Bft)
29.07.2018 23:11 17,3 °C 84 % 1013,1 hPa 0,0 mm 0,0 km/h (0 Bft) S-SW 194 ° 0 min 0,000 mm 0,0 UV-I 0 W/m² 14,6 °C 17,3 °C 0,0 km/h (0 Bft)
29.07.2018 23:12 17,4 °C 84 % 1013,1 hPa 0,0 mm 0,0 km/h (0 Bft) S-SW 194 ° 0 min 0,000 mm 0,0 UV-I 0 W/m² 14,7 °C 17,4 °C 0,0 km/h (0 Bft)
29.07.2018 23:13 17,4 °C 84 % 1013,1 hPa 0,0 mm 0,0 km/h (0 Bft) S-SW 194 ° 0 min 0,000 mm 0,0 UV-I 0 W/m² 14,7 °C 17,4 °C 0,0 km/h (0 Bft)
29.07.2018 23:14 17,4 °C 84 % 1013,1 hPa 0,0 mm 0,0 km/h (0 Bft) S-SW 194 ° 0 min 0,000 mm 0,0 UV-I 0 W/m² 14,7 °C 17,4 °C 0,0 km/h (0 Bft)
29.07.2018 23:15 17,4 °C 84 % 1013,1 hPa 0,0 mm 0,0 km/h (0 Bft) S-SW 194 ° 0 min 0,000 mm 0,0 UV-I 0 W/m² 14,7 °C 17,4 °C 0,0 km/h (0 Bft)
29.07.2018 23:16 17,4 °C 84 % 1013,0 hPa 0,0 mm 0,0 km/h (0 Bft) S-SW 194 ° 0 min 0,000 mm 0,0 UV-I 0 W/m² 14,7 °C 17,4 °C 0,0 km/h (0 Bft)
29.07.2018 23:17 17,4 °C 84 % 1013,1 hPa 0,0 mm 0,0 km/h (0 Bft) S-SW 194 ° 0 min 0,000 mm 0,0 UV-I 0 W/m² 14,7 °C 17,4 °C 0,0 km/h (0 Bft)
29.07.2018 23:18 17,4 °C 84 % 1013,1 hPa 0,0 mm 0,0 km/h (0 Bft) S-SW 194 ° 0 min 0,000 mm 0,0 UV-I 0 W/m² 14,7 °C 17,4 °C 0,0 km/h (0 Bft)
29.07.2018 23:19 17,3 °C 84 % 1013,1 hPa 0,0 mm 0,0 km/h (0 Bft) S-SW 194 ° 0 min 0,000 mm 0,0 UV-I 0 W/m² 14,6 °C 17,3 °C 0,0 km/h (0 Bft)
29.07.2018 23:20 17,3 °C 84 % 1013,1 hPa 0,0 mm 0,0 km/h (0 Bft) S-SW 194 ° 0 min 0,000 mm 0,0 UV-I 0 W/m² 14,6 °C 17,3 °C 0,0 km/h (0 Bft)
29.07.2018 23:21 17,3 °C 84 % 1013,1 hPa 0,0 mm 0,0 km/h (0 Bft) S-SW 194 ° 0 min 0,000 mm 0,0 UV-I 0 W/m² 14,6 °C 17,3 °C 0,0 km/h (0 Bft)
29.07.2018 23:22 17,3 °C 85 % 1013,1 hPa 0,0 mm 0,0 km/h (0 Bft) S-SW 194 ° 0 min 0,000 mm 0,0 UV-I 0 W/m² 14,8 °C 17,3 °C 0,0 km/h (0 Bft)
29.07.2018 23:23 17,2 °C 85 % 1013,1 hPa 0,0 mm 0,0 km/h (0 Bft) S-SW 194 ° 0 min 0,000 mm 0,0 UV-I 0 W/m² 14,7 °C 17,2 °C 0,0 km/h (0 Bft)
29.07.2018 23:24 17,2 °C 85 % 1013,1 hPa 0,0 mm 0,0 km/h (0 Bft) S-SW 194 ° 0 min 0,000 mm 0,0 UV-I 0 W/m² 14,7 °C 17,2 °C 0,0 km/h (0 Bft)
29.07.2018 23:25 17,3 °C 85 % 1013,1 hPa 0,0 mm 0,0 km/h (0 Bft) S-SW 194 ° 0 min 0,000 mm 0,0 UV-I 0 W/m² 14,8 °C 17,3 °C 0,0 km/h (0 Bft)
29.07.2018 23:26 17,2 °C 85 % 1013,1 hPa 0,0 mm 0,0 km/h (0 Bft) S-SW 194 ° 0 min 0,000 mm 0,0 UV-I 0 W/m² 14,7 °C 17,2 °C 0,0 km/h (0 Bft)
29.07.2018 23:27 17,2 °C 85 % 1013,1 hPa 0,0 mm 0,0 km/h (0 Bft) S-SW 194 ° 0 min 0,000 mm 0,0 UV-I 0 W/m² 14,7 °C 17,2 °C 0,0 km/h (0 Bft)
29.07.2018 23:28 17,2 °C 85 % 1013,1 hPa 0,0 mm 0,0 km/h (0 Bft) S-SW 194 ° 0 min 0,000 mm 0,0 UV-I 0 W/m² 14,7 °C 17,2 °C 0,0 km/h (0 Bft)
29.07.2018 23:29 17,2 °C 85 % 1013,1 hPa 0,0 mm 0,0 km/h (0 Bft) S-SW 194 ° 0 min 0,000 mm 0,0 UV-I 0 W/m² 14,7 °C 17,2 °C 0,0 km/h (0 Bft)
29.07.2018 23:30 17,2 °C 85 % 1013,1 hPa 0,0 mm 0,0 km/h (0 Bft) S-SW 194 ° 0 min 0,000 mm 0,0 UV-I 0 W/m² 14,7 °C 17,2 °C 0,0 km/h (0 Bft)
29.07.2018 23:31 17,2 °C 85 % 1013,2 hPa 0,0 mm 0,0 km/h (0 Bft) S-SW 194 ° 0 min 0,000 mm 0,0 UV-I 0 W/m² 14,7 °C 17,2 °C 0,0 km/h (0 Bft)
29.07.2018 23:32 17,2 °C 85 % 1013,1 hPa 0,0 mm 0,0 km/h (0 Bft) S-SW 194 ° 0 min 0,000 mm 0,0 UV-I 0 W/m² 14,7 °C 17,2 °C 0,0 km/h (0 Bft)
29.07.2018 23:33 17,2 °C 85 % 1013,1 hPa 0,0 mm 0,0 km/h (0 Bft) S-SW 194 ° 0 min 0,000 mm 0,0 UV-I 0 W/m² 14,7 °C 17,2 °C 0,0 km/h (0 Bft)
29.07.2018 23:34 17,2 °C 85 % 1013,1 hPa 0,0 mm 0,0 km/h (0 Bft) S-SW 194 ° 0 min 0,000 mm 0,0 UV-I 0 W/m² 14,7 °C 17,2 °C 0,0 km/h (0 Bft)
29.07.2018 23:35 17,2 °C 85 % 1013,1 hPa 0,0 mm 0,0 km/h (0 Bft) S-SW 194 ° 0 min 0,000 mm 0,0 UV-I 0 W/m² 14,7 °C 17,2 °C 0,0 km/h (0 Bft)
29.07.2018 23:36 17,2 °C 85 % 1013,1 hPa 0,0 mm 0,0 km/h (0 Bft) S-SW 194 ° 0 min 0,000 mm 0,0 UV-I 0 W/m² 14,7 °C 17,2 °C 0,0 km/h (0 Bft)
29.07.2018 23:37 17,2 °C 85 % 1013,1 hPa 0,0 mm 0,0 km/h (0 Bft) S-SW 194 ° 0 min 0,000 mm 0,0 UV-I 0 W/m² 14,7 °C 17,2 °C 0,0 km/h (0 Bft)
29.07.2018 23:38 17,2 °C 85 % 1013,1 hPa 0,0 mm 0,0 km/h (0 Bft) S-SW 194 ° 0 min 0,000 mm 0,0 UV-I 0 W/m² 14,7 °C 17,2 °C 0,0 km/h (0 Bft)
29.07.2018 23:39 17,3 °C 85 % 1013,1 hPa 0,0 mm 0,0 km/h (0 Bft) S-SW 194 ° 0 min 0,000 mm 0,0 UV-I 0 W/m² 14,8 °C 17,3 °C 0,0 km/h (0 Bft)
29.07.2018 23:40 17,3 °C 85 % 1013,1 hPa 0,0 mm 0,0 km/h (0 Bft) S-SW 194 ° 0 min 0,000 mm 0,0 UV-I 0 W/m² 14,8 °C 17,3 °C 0,0 km/h (0 Bft)
29.07.2018 23:41 17,3 °C 85 % 1013,1 hPa 0,0 mm 0,0 km/h (0 Bft) S-SW 194 ° 0 min 0,000 mm 0,0 UV-I 0 W/m² 14,8 °C 17,3 °C 0,0 km/h (0 Bft)
29.07.2018 23:42 17,2 °C 85 % 1013,1 hPa 0,0 mm 0,0 km/h (0 Bft) S-SW 194 ° 0 min 0,000 mm 0,0 UV-I 0 W/m² 14,7 °C 17,2 °C 0,0 km/h (0 Bft)
29.07.2018 23:43 17,2 °C 85 % 1013,1 hPa 0,0 mm 0,0 km/h (0 Bft) S-SW 194 ° 0 min 0,000 mm 0,0 UV-I 0 W/m² 14,7 °C 17,2 °C 0,0 km/h (0 Bft)
29.07.2018 23:44 17,2 °C 85 % 1013,1 hPa 0,0 mm 0,0 km/h (0 Bft) S-SW 194 ° 0 min 0,000 mm 0,0 UV-I 0 W/m² 14,7 °C 17,2 °C 0,0 km/h (0 Bft)
29.07.2018 23:45 17,2 °C 85 % 1013,1 hPa 0,0 mm 0,0 km/h (0 Bft) S-SW 194 ° 0 min 0,000 mm 0,0 UV-I 0 W/m² 14,7 °C 17,2 °C 0,0 km/h (0 Bft)
29.07.2018 23:46 17,2 °C 85 % 1013,1 hPa 0,0 mm 0,0 km/h (0 Bft) S-SW 194 ° 0 min 0,000 mm 0,0 UV-I 0 W/m² 14,7 °C 17,2 °C 0,0 km/h (0 Bft)
29.07.2018 23:47 17,3 °C 85 % 1013,1 hPa 0,0 mm 0,0 km/h (0 Bft) S-SW 194 ° 0 min 0,000 mm 0,0 UV-I 0 W/m² 14,8 °C 17,3 °C 0,0 km/h (0 Bft)
29.07.2018 23:48 17,3 °C 85 % 1013,1 hPa 0,0 mm 0,0 km/h (0 Bft) S-SW 194 ° 0 min 0,000 mm 0,0 UV-I 0 W/m² 14,8 °C 17,3 °C 0,0 km/h (0 Bft)
29.07.2018 23:49 17,3 °C 84 % 1013,1 hPa 0,0 mm 0,0 km/h (0 Bft) S-SW 194 ° 0 min 0,000 mm 0,0 UV-I 0 W/m² 14,6 °C 17,3 °C 0,0 km/h (0 Bft)
29.07.2018 23:50 17,3 °C 85 % 1013,1 hPa 0,0 mm 0,0 km/h (0 Bft) S-SW 194 ° 0 min 0,000 mm 0,0 UV-I 0 W/m² 14,8 °C 17,3 °C 0,0 km/h (0 Bft)
29.07.2018 23:51 17,3 °C 84 % 1013,1 hPa 0,0 mm 0,0 km/h (0 Bft) S-SW 194 ° 0 min 0,000 mm 0,0 UV-I 0 W/m² 14,6 °C 17,3 °C 0,0 km/h (0 Bft)
29.07.2018 23:52 17,3 °C 84 % 1013,1 hPa 0,0 mm 0,0 km/h (0 Bft) S-SW 194 ° 0 min 0,000 mm 0,0 UV-I 0 W/m² 14,6 °C 17,3 °C 0,0 km/h (0 Bft)
29.07.2018 23:53 17,4 °C 84 % 1013,1 hPa 0,0 mm 0,0 km/h (0 Bft) S-SW 194 ° 0 min 0,000 mm 0,0 UV-I 0 W/m² 14,7 °C 17,4 °C 0,0 km/h (0 Bft)
29.07.2018 23:54 17,4 °C 84 % 1013,1 hPa 0,0 mm 0,0 km/h (0 Bft) S-SW 194 ° 0 min 0,000 mm 0,0 UV-I 0 W/m² 14,7 °C 17,4 °C 0,0 km/h (0 Bft)
29.07.2018 23:55 17,4 °C 84 % 1013,1 hPa 0,0 mm 0,0 km/h (0 Bft) S-SW 194 ° 0 min 0,000 mm 0,0 UV-I 0 W/m² 14,7 °C 17,4 °C 0,0 km/h (0 Bft)
29.07.2018 23:56 17,4 °C 84 % 1013,1 hPa 0,0 mm 0,0 km/h (0 Bft) S-SW 194 ° 0 min 0,000 mm 0,0 UV-I 0 W/m² 14,7 °C 17,4 °C 0,0 km/h (0 Bft)
29.07.2018 23:57 17,4 °C 84 % 1013,1 hPa 0,0 mm 0,0 km/h (0 Bft) S-SW 194 ° 0 min 0,000 mm 0,0 UV-I 0 W/m² 14,7 °C 17,4 °C 0,0 km/h (0 Bft)
29.07.2018 23:58 17,4 °C 84 % 1013,1 hPa 0,0 mm 0,0 km/h (0 Bft) S-SW 194 ° 0 min 0,000 mm 0,0 UV-I 0 W/m² 14,7 °C 17,4 °C 0,0 km/h (0 Bft)
29.07.2018 23:59 17,4 °C 84 % 1013,1 hPa 0,0 mm 0,0 km/h (0 Bft) S-SW 194 ° 0 min 0,000 mm 0,0 UV-I 0 W/m² 14,7 °C 17,4 °C 0,0 km/h (0 Bft)
_ Min-Zeit 07:23 18:23 18:36 - 23:59 - - - - - - 06:35 07:23 23:59
Minimum _ 15,3 °C 49 % 1011,0 hPa - 0,0 km/h (0 Bft) - - - - - - 13,3 °C 15,3 °C 0,0 km/h (0 Bft)
_ Max-Zeit 15:43 02:11 07:50 01:59 10:32 - - 16:17 15:01 13:07 13:04 13:56 15:43 10:43
Maximum _ 26,9 °C 92 % 1013,4 hPa 0,2 mm 10,6 km/h
O-NO (2 Bft)
- - 1 min 0,534 mm 7,7 UV-I 979 W/m² 17,2 °C 26,8 °C 17,7 km/h
NO (3 Bft)
Durchschnitt _ 20,6 °C 72 % 1012,4 hPa #0,8 mm 2,0 km/h (1 Bft) NO - #5:39 h #3,988 mm 4,5 UV-I 246 W/m² 15,0 °C 20,6 °C 3,6 km/h (1 Bft)